ftp/pub/palmer/observations_modified/2019/November/AR191123_AWS2.txt

Download

Sample DateTime	Unit Id	WS Avg 2min	WD Avg 2min	WGS 10min	WGD 10min	Air Temp	Rel Humidity	Dew Point	Pyranometer	Quantum	Air Pressure	Snow Level	Rainfall	PW Current	Visibility	CBase 1	CBase 2	CBase 3	Vert Vis
2019/11/23 00:00:00	AWS2	10.41	15	12.14	17	M	M	M	NA	NA	989.4	NA	NA		M	NA	NA	NA	NA
2019/11/23 00:01:00	AWS2	10.73	15	12.14	17	M	M	M	NA	NA	988.9	NA	NA		M	NA	NA	NA	NA
2019/11/23 00:02:00	AWS2	10.59	12	12.14	17	M	M	M	NA	NA	988.7	NA	NA		M	NA	NA	NA	NA
2019/11/23 00:03:00	AWS2	10.49	10	12.14	4	M	M	M	NA	NA	987.4	NA	NA		M	NA	NA	NA	NA
2019/11/23 00:04:00	AWS2	10.93	8	12.14	4	M	M	M	NA	NA	988.3	NA	NA		M	NA	NA	NA	NA
2019/11/23 00:05:00	AWS2	11.17	7	12.14	4	M	M	M	NA	NA	988.2	NA	NA		M	NA	NA	NA	NA
2019/11/23 00:06:00	AWS2	11.15	7	12.60	6	M	M	M	NA	NA	987.8	NA	NA		M	NA	NA	NA	NA
2019/11/23 00:07:00	AWS2	11.13	8	12.60	6	M	M	M	NA	NA	989.1	NA	NA		M	NA	NA	NA	NA
2019/11/23 00:08:00	AWS2	10.92	12	12.60	6	M	M	M	NA	NA	988.5	NA	NA		M	NA	NA	NA	NA
2019/11/23 00:09:00	AWS2	10.79	11	12.60	6	M	M	M	NA	NA	989.4	NA	NA		M	NA	NA	NA	NA
2019/11/23 00:10:00	AWS2	10.26	9	12.60	6	M	M	M	NA	NA	988.7	NA	NA		M	NA	NA	NA	NA
2019/11/23 00:11:00	AWS2	9.90	9	12.60	6	M	M	M	NA	NA	988.9	NA	NA		M	NA	NA	NA	NA
2019/11/23 00:12:00	AWS2	9.52	12	12.60	6	M	M	M	NA	NA	988.8	NA	NA		M	NA	NA	NA	NA
2019/11/23 00:13:00	AWS2	9.55	10	12.60	6	M	M	M	NA	NA	988.1	NA	NA		M	NA	NA	NA	NA
2019/11/23 00:14:00	AWS2	9.89	9	12.60	6	M	M	M	NA	NA	987.9	NA	NA		M	NA	NA	NA	NA
2019/11/23 00:15:00	AWS2	9.63	9	12.60	6	M	M	M	NA	NA	988.8	NA	NA		M	NA	NA	NA	NA
2019/11/23 00:16:00	AWS2	9.90	8	11.68	11	M	M	M	NA	NA	988.4	NA	NA		M	NA	NA	NA	NA
2019/11/23 00:17:00	AWS2	10.69	10	12.14	5	M	M	M	NA	NA	988.4	NA	NA		M	NA	NA	NA	NA
2019/11/23 00:18:00	AWS2	10.87	10	12.14	5	M	M	M	NA	NA	987.9	NA	NA		M	NA	NA	NA	NA
2019/11/23 00:19:00	AWS2	10.70	10	12.14	5	M	M	M	NA	NA	987.7	NA	NA		M	NA	NA	NA	NA
2019/11/23 00:20:00	AWS2	11.15	11	12.60	11	M	M	M	NA	NA	987.6	NA	NA		M	NA	NA	NA	NA
2019/11/23 00:21:00	AWS2	11.71	9	12.60	11	M	M	M	NA	NA	988.7	NA	NA		M	NA	NA	NA	NA
2019/11/23 00:22:00	AWS2	11.35	7	12.60	11	M	M	M	NA	NA	988.9	NA	NA		M	NA	NA	NA	NA
2019/11/23 00:23:00	AWS2	10.65	9	12.60	11	M	M	M	NA	NA	987.2	NA	NA		M	NA	NA	NA	NA
2019/11/23 00:24:00	AWS2	10.40	10	12.60	11	M	M	M	NA	NA	987.1	NA	NA		M	NA	NA	NA	NA
2019/11/23 00:25:00	AWS2	10.38	10	12.60	11	M	M	M	NA	NA	988.4	NA	NA		M	NA	NA	NA	NA
2019/11/23 00:26:00	AWS2	10.71	10	12.60	11	M	M	M	NA	NA	987.8	NA	NA		M	NA	NA	NA	NA
2019/11/23 00:27:00	AWS2	10.77	11	12.60	11	M	M	M	NA	NA	987.8	NA	NA		M	NA	NA	NA	NA
2019/11/23 00:28:00	AWS2	10.26	9	12.60	11	M	M	M	NA	NA	989.3	NA	NA		M	NA	NA	NA	NA
2019/11/23 00:29:00	AWS2	10.39	9	12.60	11	M	M	M	NA	NA	988.8	NA	NA		M	NA	NA	NA	NA
2019/11/23 00:30:00	AWS2	10.68	11	12.45	3	M	M	M	NA	NA	988.9	NA	NA		M	NA	NA	NA	NA
2019/11/23 00:31:00	AWS2	11.09	11	13.17	3	M	M	M	NA	NA	987.8	NA	NA		M	NA	NA	NA	NA
2019/11/23 00:32:00	AWS2	11.23	8	13.17	3	M	M	M	NA	NA	987.8	NA	NA		M	NA	NA	NA	NA
2019/11/23 00:33:00	AWS2	11.03	6	13.17	3	M	M	M	NA	NA	989.0	NA	NA		M	NA	NA	NA	NA
2019/11/23 00:34:00	AWS2	10.90	9	13.17	3	M	M	M	NA	NA	987.7	NA	NA		M	NA	NA	NA	NA
2019/11/23 00:35:00	AWS2	11.07	12	13.17	3	M	M	M	NA	NA	988.1	NA	NA		M	NA	NA	NA	NA
2019/11/23 00:36:00	AWS2	11.21	9	13.17	3	M	M	M	NA	NA	987.9	NA	NA		M	NA	NA	NA	NA
2019/11/23 00:37:00	AWS2	11.33	7	13.17	3	M	M	M	NA	NA	987.2	NA	NA		M	NA	NA	NA	NA
2019/11/23 00:38:00	AWS2	11.78	8	13.53	12	M	M	M	NA	NA	988.1	NA	NA		M	NA	NA	NA	NA
2019/11/23 00:39:00	AWS2	11.74	11	13.53	12	M	M	M	NA	NA	987.2	NA	NA		M	NA	NA	NA	NA
2019/11/23 00:40:00	AWS2	11.34	9	13.53	12	M	M	M	NA	NA	987.9	NA	NA		M	NA	NA	NA	NA
2019/11/23 00:41:00	AWS2	11.39	2	13.53	12	M	M	M	NA	NA	987.4	NA	NA		M	NA	NA	NA	NA
2019/11/23 00:42:00	AWS2	11.92	3	13.53	12	M	M	M	NA	NA	987.9	NA	NA		M	NA	NA	NA	NA
2019/11/23 00:43:00	AWS2	11.86	6	13.53	12	M	M	M	NA	NA	987.8	NA	NA		M	NA	NA	NA	NA
2019/11/23 00:44:00	AWS2	11.19	4	13.53	12	M	M	M	NA	NA	988.5	NA	NA		M	NA	NA	NA	NA
2019/11/23 00:45:00	AWS2	10.79	4	13.53	12	M	M	M	NA	NA	987.5	NA	NA		M	NA	NA	NA	NA
2019/11/23 00:46:00	AWS2	11.11	6	13.53	12	M	M	M	NA	NA	986.4	NA	NA		M	NA	NA	NA	NA
2019/11/23 00:47:00	AWS2	11.59	9	13.53	12	M	M	M	NA	NA	987.6	NA	NA		M	NA	NA	NA	NA
2019/11/23 00:48:00	AWS2	12.24	7	13.58	3	M	M	M	NA	NA	988.1	NA	NA		M	NA	NA	NA	NA
2019/11/23 00:49:00	AWS2	12.43	6	13.58	3	M	M	M	NA	NA	985.6	NA	NA		M	NA	NA	NA	NA
2019/11/23 00:50:00	AWS2	12.14	8	13.58	3	M	M	M	NA	NA	986.7	NA	NA		M	NA	NA	NA	NA
2019/11/23 00:51:00	AWS2	12.08	7	13.58	3	M	M	M	NA	NA	987.2	NA	NA		M	NA	NA	NA	NA
2019/11/23 00:52:00	AWS2	11.64	6	13.58	3	M	M	M	NA	NA	986.7	NA	NA		M	NA	NA	NA	NA
2019/11/23 00:53:00	AWS2	11.19	9	13.58	3	M	M	M	NA	NA	986.7	NA	NA		M	NA	NA	NA	NA
2019/11/23 00:54:00	AWS2	11.19	15	13.58	3	M	M	M	NA	NA	986.4	NA	NA		M	NA	NA	NA	NA
2019/11/23 00:55:00	AWS2	11.34	13	13.58	3	M	M	M	NA	NA	986.9	NA	NA		M	NA	NA	NA	NA
2019/11/23 00:56:00	AWS2	11.73	9	13.58	3	M	M	M	NA	NA	986.6	NA	NA		M	NA	NA	NA	NA
2019/11/23 00:57:00	AWS2	11.70	11	13.58	3	M	M	M	NA	NA	988.0	NA	NA		M	NA	NA	NA	NA
2019/11/23 00:58:00	AWS2	11.25	12	13.48	10	M	M	M	NA	NA	987.9	NA	NA		M	NA	NA	NA	NA
2019/11/23 00:59:00	AWS2	11.16	11	13.48	10	M	M	M	NA	NA	987.4	NA	NA		M	NA	NA	NA	NA
2019/11/23 01:00:00	AWS2	11.36	11	13.48	10	M	M	M	NA	NA	986.9	NA	NA		M	NA	NA	NA	NA
2019/11/23 01:01:00	AWS2	11.21	9	13.68	7	M	M	M	NA	NA	986.8	NA	NA		M	NA	NA	NA	NA
2019/11/23 01:02:00	AWS2	11.90	10	13.68	7	M	M	M	NA	NA	986.1	NA	NA		M	NA	NA	NA	NA
2019/11/23 01:03:00	AWS2	12.90	10	14.35	12	M	M	M	NA	NA	986.1	NA	NA		M	NA	NA	NA	NA
2019/11/23 01:04:00	AWS2	12.54	8	14.35	12	M	M	M	NA	NA	987.4	NA	NA		M	NA	NA	NA	NA
2019/11/23 01:05:00	AWS2	12.35	5	14.35	12	M	M	M	NA	NA	987.1	NA	NA		M	NA	NA	NA	NA
2019/11/23 01:06:00	AWS2	12.06	5	14.35	12	M	M	M	NA	NA	986.6	NA	NA		M	NA	NA	NA	NA
2019/11/23 01:07:00	AWS2	11.52	8	14.35	12	M	M	M	NA	NA	987.0	NA	NA		M	NA	NA	NA	NA
2019/11/23 01:08:00	AWS2	11.90	8	14.35	12	M	M	M	NA	NA	986.9	NA	NA		M	NA	NA	NA	NA
2019/11/23 01:09:00	AWS2	12.01	9	14.35	12	M	M	M	NA	NA	987.0	NA	NA		M	NA	NA	NA	NA
2019/11/23 01:10:00	AWS2	11.85	8	14.35	12	M	M	M	NA	NA	987.9	NA	NA		M	NA	NA	NA	NA
2019/11/23 01:11:00	AWS2	11.59	6	14.35	12	M	M	M	NA	NA	986.3	NA	NA		M	NA	NA	NA	NA
2019/11/23 01:12:00	AWS2	11.20	6	14.35	12	M	M	M	NA	NA	986.2	NA	NA		M	NA	NA	NA	NA
2019/11/23 01:13:00	AWS2	10.50	7	13.68	5	M	M	M	NA	NA	988.6	NA	NA		M	NA	NA	NA	NA
2019/11/23 01:14:00	AWS2	10.12	7	13.68	5	M	M	M	NA	NA	987.5	NA	NA		M	NA	NA	NA	NA
2019/11/23 01:15:00	AWS2	10.26	9	13.07	6	M	M	M	NA	NA	987.0	NA	NA		M	NA	NA	NA	NA
2019/11/23 01:16:00	AWS2	10.39	10	13.07	6	M	M	M	NA	NA	986.6	NA	NA		M	NA	NA	NA	NA
2019/11/23 01:17:00	AWS2	10.60	10	13.07	6	M	M	M	NA	NA	987.0	NA	NA		M	NA	NA	NA	NA
2019/11/23 01:18:00	AWS2	10.18	10	12.91	6	M	M	M	NA	NA	986.1	NA	NA		M	NA	NA	NA	NA
2019/11/23 01:19:00	AWS2	10.01	10	12.91	6	M	M	M	NA	NA	987.8	NA	NA		M	NA	NA	NA	NA
2019/11/23 01:20:00	AWS2	10.67	7	12.91	3	M	M	M	NA	NA	987.2	NA	NA		M	NA	NA	NA	NA
2019/11/23 01:21:00	AWS2	11.20	6	13.07	6	M	M	M	NA	NA	986.7	NA	NA		M	NA	NA	NA	NA
2019/11/23 01:22:00	AWS2	10.73	7	13.07	6	M	M	M	NA	NA	987.9	NA	NA		M	NA	NA	NA	NA
2019/11/23 01:23:00	AWS2	10.13	5	13.07	6	M	M	M	NA	NA	986.4	NA	NA		M	NA	NA	NA	NA
2019/11/23 01:24:00	AWS2	9.81	6	13.07	6	M	M	M	NA	NA	987.5	NA	NA		M	NA	NA	NA	NA
2019/11/23 01:25:00	AWS2	9.63	8	13.07	6	M	M	M	NA	NA	987.4	NA	NA		M	NA	NA	NA	NA
2019/11/23 01:26:00	AWS2	10.01	8	13.07	6	M	M	M	NA	NA	986.2	NA	NA		M	NA	NA	NA	NA
2019/11/23 01:27:00	AWS2	10.59	8	13.07	6	M	M	M	NA	NA	987.8	NA	NA		M	NA	NA	NA	NA
2019/11/23 01:28:00	AWS2	10.79	8	13.07	6	M	M	M	NA	NA	987.4	NA	NA		M	NA	NA	NA	NA
2019/11/23 01:29:00	AWS2	10.44	9	13.07	6	M	M	M	NA	NA	987.1	NA	NA		M	NA	NA	NA	NA
2019/11/23 01:30:00	AWS2	10.06	10	13.07	6	M	M	M	NA	NA	987.7	NA	NA		M	NA	NA	NA	NA
2019/11/23 01:31:00	AWS2	9.82	8	11.94	5	M	M	M	NA	NA	986.1	NA	NA		M	NA	NA	NA	NA
2019/11/23 01:32:00	AWS2	10.02	6	11.94	5	M	M	M	NA	NA	986.2	NA	NA		M	NA	NA	NA	NA
2019/11/23 01:33:00	AWS2	10.44	8	11.94	5	M	M	M	NA	NA	987.5	NA	NA		M	NA	NA	NA	NA
2019/11/23 01:34:00	AWS2	10.78	8	11.94	5	M	M	M	NA	NA	987.5	NA	NA		M	NA	NA	NA	NA
2019/11/23 01:35:00	AWS2	10.62	7	11.94	5	M	M	M	NA	NA	987.8	NA	NA		M	NA	NA	NA	NA
2019/11/23 01:36:00	AWS2	10.32	7	11.94	5	M	M	M	NA	NA	987.7	NA	NA		M	NA	NA	NA	NA
2019/11/23 01:37:00	AWS2	10.32	8	11.94	5	M	M	M	NA	NA	986.0	NA	NA		M	NA	NA	NA	NA
2019/11/23 01:38:00	AWS2	9.99	8	11.63	8	M	M	M	NA	NA	986.3	NA	NA		M	NA	NA	NA	NA
2019/11/23 01:39:00	AWS2	9.86	7	11.63	8	M	M	M	NA	NA	987.0	NA	NA		M	NA	NA	NA	NA
2019/11/23 01:40:00	AWS2	9.84	9	11.63	8	M	M	M	NA	NA	986.1	NA	NA		M	NA	NA	NA	NA
2019/11/23 01:41:00	AWS2	9.94	9	11.63	8	M	M	M	NA	NA	987.5	NA	NA		M	NA	NA	NA	NA
2019/11/23 01:42:00	AWS2	10.00	8	11.63	8	M	M	M	NA	NA	988.5	NA	NA		M	NA	NA	NA	NA
2019/11/23 01:43:00	AWS2	9.48	5	11.52	5	M	M	M	NA	NA	987.4	NA	NA		M	NA	NA	NA	NA
2019/11/23 01:44:00	AWS2	9.97	7	11.63	6	M	M	M	NA	NA	988.5	NA	NA		M	NA	NA	NA	NA
2019/11/23 01:45:00	AWS2	10.75	9	11.63	6	M	M	M	NA	NA	987.0	NA	NA		M	NA	NA	NA	NA
2019/11/23 01:46:00	AWS2	10.54	6	11.63	6	M	M	M	NA	NA	986.7	NA	NA		M	NA	NA	NA	NA
2019/11/23 01:47:00	AWS2	10.36	359	11.63	6	M	M	M	NA	NA	986.8	NA	NA		M	NA	NA	NA	NA
2019/11/23 01:48:00	AWS2	10.56	360	11.63	6	M	M	M	NA	NA	985.9	NA	NA		M	NA	NA	NA	NA
2019/11/23 01:49:00	AWS2	10.84	3	11.94	5	M	M	M	NA	NA	986.7	NA	NA		M	NA	NA	NA	NA
2019/11/23 01:50:00	AWS2	10.95	2	11.94	5	M	M	M	NA	NA	987.7	NA	NA		M	NA	NA	NA	NA
2019/11/23 01:51:00	AWS2	10.91	6	11.94	5	M	M	M	NA	NA	986.4	NA	NA		M	NA	NA	NA	NA
2019/11/23 01:52:00	AWS2	10.75	4	12.04	4	M	M	M	NA	NA	986.7	NA	NA		M	NA	NA	NA	NA
2019/11/23 01:53:00	AWS2	10.96	1	12.04	4	M	M	M	NA	NA	987.4	NA	NA		M	NA	NA	NA	NA
2019/11/23 01:54:00	AWS2	11.65	4	13.32	1	M	M	M	NA	NA	987.0	NA	NA		M	NA	NA	NA	NA
2019/11/23 01:55:00	AWS2	11.55	7	13.32	1	M	M	M	NA	NA	986.6	NA	NA		M	NA	NA	NA	NA
2019/11/23 01:56:00	AWS2	11.45	1	13.32	1	M	M	M	NA	NA	985.7	NA	NA		M	NA	NA	NA	NA
2019/11/23 01:57:00	AWS2	11.71	360	13.32	1	M	M	M	NA	NA	988.2	NA	NA		M	NA	NA	NA	NA
2019/11/23 01:58:00	AWS2	12.19	4	13.38	4	M	M	M	NA	NA	989.8	NA	NA		M	NA	NA	NA	NA
2019/11/23 01:59:00	AWS2	12.44	5	13.53	9	M	M	M	NA	NA	988.4	NA	NA		M	NA	NA	NA	NA
2019/11/23 02:00:00	AWS2	11.72	8	13.53	9	M	M	M	NA	NA	989.5	NA	NA		M	NA	NA	NA	NA
2019/11/23 02:01:00	AWS2	11.24	6	13.53	9	M	M	M	NA	NA	989.6	NA	NA		M	NA	NA	NA	NA
2019/11/23 02:02:00	AWS2	11.45	6	13.53	9	M	M	M	NA	NA	989.7	NA	NA		M	NA	NA	NA	NA
2019/11/23 02:03:00	AWS2	11.70	9	13.53	9	M	M	M	NA	NA	988.5	NA	NA		M	NA	NA	NA	NA
2019/11/23 02:04:00	AWS2	11.45	10	13.53	9	M	M	M	NA	NA	989.6	NA	NA		M	NA	NA	NA	NA
2019/11/23 02:05:00	AWS2	10.94	8	13.53	9	M	M	M	NA	NA	989.4	NA	NA		M	NA	NA	NA	NA
2019/11/23 02:06:00	AWS2	10.49	10	13.53	9	M	M	M	NA	NA	988.6	NA	NA		M	NA	NA	NA	NA
2019/11/23 02:07:00	AWS2	10.14	12	13.53	9	M	M	M	NA	NA	990.1	NA	NA		M	NA	NA	NA	NA
2019/11/23 02:08:00	AWS2	9.96	10	13.53	9	M	M	M	NA	NA	988.2	NA	NA		M	NA	NA	NA	NA
2019/11/23 02:09:00	AWS2	10.19	7	13.38	16	M	M	M	NA	NA	991.0	NA	NA		M	NA	NA	NA	NA
2019/11/23 02:10:00	AWS2	10.15	7	13.38	16	M	M	M	NA	NA	989.0	NA	NA		M	NA	NA	NA	NA
2019/11/23 02:11:00	AWS2	9.64	8	13.38	16	M	M	M	NA	NA	989.2	NA	NA		M	NA	NA	NA	NA
2019/11/23 02:12:00	AWS2	9.34	9	13.38	16	M	M	M	NA	NA	988.4	NA	NA		M	NA	NA	NA	NA
2019/11/23 02:13:00	AWS2	9.10	9	12.30	6	M	M	M	NA	NA	991.2	NA	NA		M	NA	NA	NA	NA
2019/11/23 02:14:00	AWS2	8.83	8	11.47	6	M	M	M	NA	NA	988.2	NA	NA		M	NA	NA	NA	NA
2019/11/23 02:15:00	AWS2	9.29	9	11.47	6	M	M	M	NA	NA	990.4	NA	NA		M	NA	NA	NA	NA
2019/11/23 02:16:00	AWS2	9.48	10	11.47	6	M	M	M	NA	NA	989.1	NA	NA		M	NA	NA	NA	NA
2019/11/23 02:17:00	AWS2	9.31	13	11.47	6	M	M	M	NA	NA	988.7	NA	NA		M	NA	NA	NA	NA
2019/11/23 02:18:00	AWS2	9.23	12	11.47	6	M	M	M	NA	NA	989.5	NA	NA		M	NA	NA	NA	NA
2019/11/23 02:19:00	AWS2	8.69	11	10.91	5	M	M	M	NA	NA	989.7	NA	NA		M	NA	NA	NA	NA
2019/11/23 02:20:00	AWS2	8.46	9	10.55	4	M	M	M	NA	NA	990.2	NA	NA		M	NA	NA	NA	NA
2019/11/23 02:21:00	AWS2	8.87	7	10.55	4	M	M	M	NA	NA	990.0	NA	NA		M	NA	NA	NA	NA
2019/11/23 02:22:00	AWS2	8.90	11	10.55	4	M	M	M	NA	NA	990.5	NA	NA		M	NA	NA	NA	NA
2019/11/23 02:23:00	AWS2	8.61	11	10.55	4	M	M	M	NA	NA	989.2	NA	NA		M	NA	NA	NA	NA
2019/11/23 02:24:00	AWS2	9.19	7	10.55	4	M	M	M	NA	NA	990.8	NA	NA		M	NA	NA	NA	NA
2019/11/23 02:25:00	AWS2	9.54	6	10.19	7	M	M	M	NA	NA	989.4	NA	NA		M	NA	NA	NA	NA
2019/11/23 02:26:00	AWS2	9.04	5	10.19	7	M	M	M	NA	NA	992.0	NA	NA		M	NA	NA	NA	NA
2019/11/23 02:27:00	AWS2	8.99	0	10.19	7	M	M	M	NA	NA	990.2	NA	NA		M	NA	NA	NA	NA
2019/11/23 02:28:00	AWS2	9.22	1	10.19	7	M	M	M	NA	NA	991.4	NA	NA		M	NA	NA	NA	NA
2019/11/23 02:29:00	AWS2	8.76	4	10.19	7	M	M	M	NA	NA	988.8	NA	NA		M	NA	NA	NA	NA
2019/11/23 02:30:00	AWS2	8.49	3	10.19	7	M	M	M	NA	NA	988.2	NA	NA		M	NA	NA	NA	NA
2019/11/23 02:31:00	AWS2	8.71	5	10.19	7	M	M	M	NA	NA	989.0	NA	NA		M	NA	NA	NA	NA
2019/11/23 02:32:00	AWS2	9.15	6	10.29	3	M	M	M	NA	NA	989.2	NA	NA		M	NA	NA	NA	NA
2019/11/23 02:33:00	AWS2	9.71	7	10.91	10	M	M	M	NA	NA	989.8	NA	NA		M	NA	NA	NA	NA
2019/11/23 02:34:00	AWS2	10.20	5	11.47	2	M	M	M	NA	NA	989.9	NA	NA		M	NA	NA	NA	NA
2019/11/23 02:35:00	AWS2	10.29	5	11.47	2	M	M	M	NA	NA	988.8	NA	NA		M	NA	NA	NA	NA
2019/11/23 02:36:00	AWS2	9.60	4	11.47	2	M	M	M	NA	NA	989.2	NA	NA		M	NA	NA	NA	NA
2019/11/23 02:37:00	AWS2	9.17	5	11.47	2	M	M	M	NA	NA	989.8	NA	NA		M	NA	NA	NA	NA
2019/11/23 02:38:00	AWS2	9.43	7	11.47	2	M	M	M	NA	NA	989.5	NA	NA		M	NA	NA	NA	NA
2019/11/23 02:39:00	AWS2	9.41	7	11.47	2	M	M	M	NA	NA	988.8	NA	NA		M	NA	NA	NA	NA
2019/11/23 02:40:00	AWS2	9.14	7	11.47	2	M	M	M	NA	NA	990.6	NA	NA		M	NA	NA	NA	NA
2019/11/23 02:41:00	AWS2	8.64	9	11.47	2	M	M	M	NA	NA	988.1	NA	NA		M	NA	NA	NA	NA
2019/11/23 02:42:00	AWS2	8.60	9	11.47	2	M	M	M	NA	NA	987.8	NA	NA		M	NA	NA	NA	NA
2019/11/23 02:43:00	AWS2	8.94	7	11.47	2	M	M	M	NA	NA	989.9	NA	NA		M	NA	NA	NA	NA
2019/11/23 02:44:00	AWS2	8.87	5	10.75	9	M	M	M	NA	NA	991.4	NA	NA		M	NA	NA	NA	NA
2019/11/23 02:45:00	AWS2	8.87	4	9.93	16	M	M	M	NA	NA	989.6	NA	NA		M	NA	NA	NA	NA
2019/11/23 02:46:00	AWS2	8.88	4	9.93	16	M	M	M	NA	NA	988.7	NA	NA		M	NA	NA	NA	NA
2019/11/23 02:47:00	AWS2	9.07	5	10.29	1	M	M	M	NA	NA	989.8	NA	NA		M	NA	NA	NA	NA
2019/11/23 02:48:00	AWS2	9.40	4	10.29	1	M	M	M	NA	NA	989.8	NA	NA		M	NA	NA	NA	NA
2019/11/23 02:49:00	AWS2	9.66	0	10.29	1	M	M	M	NA	NA	989.7	NA	NA		M	NA	NA	NA	NA
2019/11/23 02:50:00	AWS2	9.82	359	10.80	2	M	M	M	NA	NA	989.3	NA	NA		M	NA	NA	NA	NA
2019/11/23 02:51:00	AWS2	9.71	3	10.80	2	M	M	M	NA	NA	989.0	NA	NA		M	NA	NA	NA	NA
2019/11/23 02:52:00	AWS2	9.58	2	10.80	2	M	M	M	NA	NA	987.6	NA	NA		M	NA	NA	NA	NA
2019/11/23 02:53:00	AWS2	9.56	358	10.80	6	M	M	M	NA	NA	989.3	NA	NA		M	NA	NA	NA	NA
2019/11/23 02:54:00	AWS2	8.95	1	10.80	6	M	M	M	NA	NA	988.7	NA	NA		M	NA	NA	NA	NA
2019/11/23 02:55:00	AWS2	8.69	5	10.80	6	M	M	M	NA	NA	989.9	NA	NA		M	NA	NA	NA	NA
2019/11/23 02:56:00	AWS2	9.04	4	10.80	6	M	M	M	NA	NA	989.6	NA	NA		M	NA	NA	NA	NA
2019/11/23 02:57:00	AWS2	9.05	4	10.80	6	M	M	M	NA	NA	988.2	NA	NA		M	NA	NA	NA	NA
2019/11/23 02:58:00	AWS2	8.99	4	10.80	6	M	M	M	NA	NA	988.9	NA	NA		M	NA	NA	NA	NA
2019/11/23 02:59:00	AWS2	8.81	359	10.80	6	M	M	M	NA	NA	989.7	NA	NA		M	NA	NA	NA	NA
2019/11/23 03:00:00	AWS2	8.69	359	10.80	6	M	M	M	NA	NA	988.6	NA	NA		M	NA	NA	NA	NA
2019/11/23 03:01:00	AWS2	8.42	5	10.80	6	M	M	M	NA	NA	989.9	NA	NA		M	NA	NA	NA	NA
2019/11/23 03:02:00	AWS2	8.29	6	10.80	6	M	M	M	NA	NA	989.7	NA	NA		M	NA	NA	NA	NA
2019/11/23 03:03:00	AWS2	8.31	5	10.08	6	M	M	M	NA	NA	989.5	NA	NA		M	NA	NA	NA	NA
2019/11/23 03:04:00	AWS2	8.31	4	10.08	6	M	M	M	NA	NA	989.4	NA	NA		M	NA	NA	NA	NA
2019/11/23 03:05:00	AWS2	8.58	6	9.83	1	M	M	M	NA	NA	989.6	NA	NA		M	NA	NA	NA	NA
2019/11/23 03:06:00	AWS2	8.43	7	9.83	1	M	M	M	NA	NA	987.9	NA	NA		M	NA	NA	NA	NA
2019/11/23 03:07:00	AWS2	8.29	9	9.83	1	M	M	M	NA	NA	989.6	NA	NA		M	NA	NA	NA	NA
2019/11/23 03:08:00	AWS2	8.07	9	9.83	1	M	M	M	NA	NA	988.6	NA	NA		M	NA	NA	NA	NA
2019/11/23 03:09:00	AWS2	7.97	10	9.62	9	M	M	M	NA	NA	988.9	NA	NA		M	NA	NA	NA	NA
2019/11/23 03:10:00	AWS2	8.08	9	9.26	13	M	M	M	NA	NA	989.1	NA	NA		M	NA	NA	NA	NA
2019/11/23 03:11:00	AWS2	7.73	7	9.26	13	M	M	M	NA	NA	991.2	NA	NA		M	NA	NA	NA	NA
2019/11/23 03:12:00	AWS2	7.68	9	9.26	13	M	M	M	NA	NA	988.7	NA	NA		M	NA	NA	NA	NA
2019/11/23 03:13:00	AWS2	7.49	9	9.26	13	M	M	M	NA	NA	990.4	NA	NA		M	NA	NA	NA	NA
2019/11/23 03:14:00	AWS2	7.05	7	9.26	13	M	M	M	NA	NA	989.1	NA	NA		M	NA	NA	NA	NA
2019/11/23 03:15:00	AWS2	7.26	9	9.26	13	M	M	M	NA	NA	989.1	NA	NA		M	NA	NA	NA	NA
2019/11/23 03:16:00	AWS2	7.63	10	9.26	13	M	M	M	NA	NA	989.6	NA	NA		M	NA	NA	NA	NA
2019/11/23 03:17:00	AWS2	7.49	10	9.26	13	M	M	M	NA	NA	989.3	NA	NA		M	NA	NA	NA	NA
2019/11/23 03:18:00	AWS2	7.48	10	9.26	13	M	M	M	NA	NA	989.4	NA	NA		M	NA	NA	NA	NA
2019/11/23 03:19:00	AWS2	7.55	10	9.26	13	M	M	M	NA	NA	988.9	NA	NA		M	NA	NA	NA	NA
2019/11/23 03:20:00	AWS2	7.14	10	8.39	14	M	M	M	NA	NA	989.5	NA	NA		M	NA	NA	NA	NA
2019/11/23 03:21:00	AWS2	7.04	8	8.39	14	M	M	M	NA	NA	990.3	NA	NA		M	NA	NA	NA	NA
2019/11/23 03:22:00	AWS2	7.00	6	8.18	16	M	M	M	NA	NA	989.7	NA	NA		M	NA	NA	NA	NA
2019/11/23 03:23:00	AWS2	6.93	2	8.18	16	M	M	M	NA	NA	990.0	NA	NA		M	NA	NA	NA	NA
2019/11/23 03:24:00	AWS2	7.33	359	8.28	4	M	M	M	NA	NA	987.9	NA	NA		M	NA	NA	NA	NA
2019/11/23 03:25:00	AWS2	7.57	1	8.28	4	M	M	M	NA	NA	988.2	NA	NA		M	NA	NA	NA	NA
2019/11/23 03:26:00	AWS2	7.61	354	8.28	4	M	M	M	NA	NA	988.7	NA	NA		M	NA	NA	NA	NA
2019/11/23 03:27:00	AWS2	7.56	353	8.28	4	M	M	M	NA	NA	989.0	NA	NA		M	NA	NA	NA	NA
2019/11/23 03:28:00	AWS2	7.42	359	8.28	4	M	M	M	NA	NA	989.2	NA	NA		M	NA	NA	NA	NA
2019/11/23 03:29:00	AWS2	7.14	357	8.28	4	M	M	M	NA	NA	989.5	NA	NA		M	NA	NA	NA	NA
2019/11/23 03:30:00	AWS2	7.40	357	9.05	3	M	M	M	NA	NA	989.3	NA	NA		M	NA	NA	NA	NA
2019/11/23 03:31:00	AWS2	7.62	1	9.05	3	M	M	M	NA	NA	988.9	NA	NA		M	NA	NA	NA	NA
2019/11/23 03:32:00	AWS2	7.10	5	9.05	3	M	M	M	NA	NA	989.7	NA	NA		M	NA	NA	NA	NA
2019/11/23 03:33:00	AWS2	7.39	5	9.05	3	M	M	M	NA	NA	988.7	NA	NA		M	NA	NA	NA	NA
2019/11/23 03:34:00	AWS2	7.98	2	9.05	3	M	M	M	NA	NA	988.8	NA	NA		M	NA	NA	NA	NA
2019/11/23 03:35:00	AWS2	8.43	360	9.16	1	M	M	M	NA	NA	989.3	NA	NA		M	NA	NA	NA	NA
2019/11/23 03:36:00	AWS2	8.52	359	9.16	1	M	M	M	NA	NA	988.8	NA	NA		M	NA	NA	NA	NA
2019/11/23 03:37:00	AWS2	8.32	360	9.41	1	M	M	M	NA	NA	989.1	NA	NA		M	NA	NA	NA	NA
2019/11/23 03:38:00	AWS2	8.24	4	9.41	1	M	M	M	NA	NA	989.0	NA	NA		M	NA	NA	NA	NA
2019/11/23 03:39:00	AWS2	7.73	4	9.41	1	M	M	M	NA	NA	989.2	NA	NA		M	NA	NA	NA	NA
2019/11/23 03:40:00	AWS2	7.62	4	9.41	1	M	M	M	NA	NA	990.1	NA	NA		M	NA	NA	NA	NA
2019/11/23 03:41:00	AWS2	8.20	4	9.41	1	M	M	M	NA	NA	988.5	NA	NA		M	NA	NA	NA	NA
2019/11/23 03:42:00	AWS2	8.41	4	9.41	1	M	M	M	NA	NA	990.7	NA	NA		M	NA	NA	NA	NA
2019/11/23 03:43:00	AWS2	8.15	6	9.41	1	M	M	M	NA	NA	990.1	NA	NA		M	NA	NA	NA	NA
2019/11/23 03:44:00	AWS2	7.83	7	9.41	1	M	M	M	NA	NA	989.8	NA	NA		M	NA	NA	NA	NA
2019/11/23 03:45:00	AWS2	8.08	3	9.47	5	M	M	M	NA	NA	990.3	NA	NA		M	NA	NA	NA	NA
2019/11/23 03:46:00	AWS2	8.65	2	9.47	5	M	M	M	NA	NA	990.5	NA	NA		M	NA	NA	NA	NA
2019/11/23 03:47:00	AWS2	8.72	4	9.47	5	M	M	M	NA	NA	989.2	NA	NA		M	NA	NA	NA	NA
2019/11/23 03:48:00	AWS2	8.69	5	9.57	5	M	M	M	NA	NA	988.6	NA	NA		M	NA	NA	NA	NA
2019/11/23 03:49:00	AWS2	8.72	6	9.57	3	M	M	M	NA	NA	989.7	NA	NA		M	NA	NA	NA	NA
2019/11/23 03:50:00	AWS2	8.59	5	9.57	3	M	M	M	NA	NA	989.5	NA	NA		M	NA	NA	NA	NA
2019/11/23 03:51:00	AWS2	8.63	4	9.98	6	M	M	M	NA	NA	989.1	NA	NA		M	NA	NA	NA	NA
2019/11/23 03:52:00	AWS2	8.78	3	9.98	6	M	M	M	NA	NA	989.8	NA	NA		M	NA	NA	NA	NA
2019/11/23 03:53:00	AWS2	8.64	1	9.98	6	M	M	M	NA	NA	989.7	NA	NA		M	NA	NA	NA	NA
2019/11/23 03:54:00	AWS2	8.23	3	9.98	6	M	M	M	NA	NA	988.7	NA	NA		M	NA	NA	NA	NA
2019/11/23 03:55:00	AWS2	8.12	9	9.98	6	M	M	M	NA	NA	990.0	NA	NA		M	NA	NA	NA	NA
2019/11/23 03:56:00	AWS2	8.38	8	9.98	6	M	M	M	NA	NA	989.6	NA	NA		M	NA	NA	NA	NA
2019/11/23 03:57:00	AWS2	8.35	3	9.98	6	M	M	M	NA	NA	989.2	NA	NA		M	NA	NA	NA	NA
2019/11/23 03:58:00	AWS2	8.11	4	9.98	6	M	M	M	NA	NA	988.1	NA	NA		M	NA	NA	NA	NA
2019/11/23 03:59:00	AWS2	8.10	5	9.98	6	M	M	M	NA	NA	988.7	NA	NA		M	NA	NA	NA	NA
2019/11/23 04:00:00	AWS2	7.88	4	9.98	6	M	M	M	NA	NA	990.2	NA	NA		M	NA	NA	NA	NA
2019/11/23 04:01:00	AWS2	7.62	7	9.41	2	M	M	M	NA	NA	990.9	NA	NA		M	NA	NA	NA	NA
2019/11/23 04:02:00	AWS2	7.52	7	9.41	2	M	M	M	NA	NA	M	NA	NA		M	NA	NA	NA	NA
2019/11/23 04:03:00	AWS2	7.48	8	9.11	12	M	M	M	NA	NA	989.3	NA	NA		M	NA	NA	NA	NA
2019/11/23 04:04:00	AWS2	7.23	6	9.11	12	M	M	M	NA	NA	989.1	NA	NA		M	NA	NA	NA	NA
2019/11/23 04:05:00	AWS2	7.20	4	9.11	12	M	M	M	NA	NA	989.4	NA	NA		M	NA	NA	NA	NA
2019/11/23 04:06:00	AWS2	7.14	4	9.11	12	M	M	M	NA	NA	988.7	NA	NA		M	NA	NA	NA	NA
2019/11/23 04:07:00	AWS2	7.20	4	8.75	4	M	M	M	NA	NA	988.9	NA	NA		M	NA	NA	NA	NA
2019/11/23 04:08:00	AWS2	7.28	4	8.75	4	M	M	M	NA	NA	989.6	NA	NA		M	NA	NA	NA	NA
2019/11/23 04:09:00	AWS2	7.20	6	8.75	4	M	M	M	NA	NA	988.8	NA	NA		M	NA	NA	NA	NA
2019/11/23 04:10:00	AWS2	7.15	8	8.75	4	M	M	M	NA	NA	989.5	NA	NA		M	NA	NA	NA	NA
2019/11/23 04:11:00	AWS2	7.08	8	8.75	4	M	M	M	NA	NA	988.0	NA	NA		M	NA	NA	NA	NA
2019/11/23 04:12:00	AWS2	7.19	6	8.03	8	M	M	M	NA	NA	989.8	NA	NA		M	NA	NA	NA	NA
2019/11/23 04:13:00	AWS2	7.26	5	8.03	8	M	M	M	NA	NA	989.2	NA	NA		M	NA	NA	NA	NA
2019/11/23 04:14:00	AWS2	7.31	5	8.03	8	M	M	M	NA	NA	990.0	NA	NA		M	NA	NA	NA	NA
2019/11/23 04:15:00	AWS2	7.31	4	8.03	8	M	M	M	NA	NA	989.3	NA	NA		M	NA	NA	NA	NA
2019/11/23 04:16:00	AWS2	7.13	5	8.03	8	M	M	M	NA	NA	988.9	NA	NA		M	NA	NA	NA	NA
2019/11/23 04:17:00	AWS2	6.89	3	8.03	8	M	M	M	NA	NA	989.6	NA	NA		M	NA	NA	NA	NA
2019/11/23 04:18:00	AWS2	7.05	1	8.03	8	M	M	M	NA	NA	989.6	NA	NA		M	NA	NA	NA	NA
2019/11/23 04:19:00	AWS2	7.46	2	8.23	8	M	M	M	NA	NA	989.7	NA	NA		M	NA	NA	NA	NA
2019/11/23 04:20:00	AWS2	7.45	4	8.23	8	M	M	M	NA	NA	989.5	NA	NA		M	NA	NA	NA	NA
2019/11/23 04:21:00	AWS2	7.38	5	8.69	12	M	M	M	NA	NA	989.6	NA	NA		M	NA	NA	NA	NA
2019/11/23 04:22:00	AWS2	7.71	5	8.69	12	M	M	M	NA	NA	990.2	NA	NA		M	NA	NA	NA	NA
2019/11/23 04:23:00	AWS2	7.64	5	8.69	12	M	M	M	NA	NA	989.2	NA	NA		M	NA	NA	NA	NA
2019/11/23 04:24:00	AWS2	7.39	2	8.69	12	M	M	M	NA	NA	989.5	NA	NA		M	NA	NA	NA	NA
2019/11/23 04:25:00	AWS2	7.51	1	8.69	12	M	M	M	NA	NA	990.1	NA	NA		M	NA	NA	NA	NA
2019/11/23 04:26:00	AWS2	7.45	3	8.69	12	M	M	M	NA	NA	988.2	NA	NA		M	NA	NA	NA	NA
2019/11/23 04:27:00	AWS2	7.42	4	8.69	10	M	M	M	NA	NA	988.8	NA	NA		M	NA	NA	NA	NA
2019/11/23 04:28:00	AWS2	7.64	6	8.69	10	M	M	M	NA	NA	989.0	NA	NA		M	NA	NA	NA	NA
2019/11/23 04:29:00	AWS2	7.51	4	8.69	10	M	M	M	NA	NA	989.2	NA	NA		M	NA	NA	NA	NA
2019/11/23 04:30:00	AWS2	7.18	2	8.69	10	M	M	M	NA	NA	989.1	NA	NA		M	NA	NA	NA	NA
2019/11/23 04:31:00	AWS2	7.39	3	8.69	10	M	M	M	NA	NA	990.2	NA	NA		M	NA	NA	NA	NA
2019/11/23 04:32:00	AWS2	7.47	2	8.69	10	M	M	M	NA	NA	990.3	NA	NA		M	NA	NA	NA	NA
2019/11/23 04:33:00	AWS2	7.45	353	8.69	10	M	M	M	NA	NA	989.3	NA	NA		M	NA	NA	NA	NA
2019/11/23 04:34:00	AWS2	7.25	349	8.69	10	M	M	M	NA	NA	989.9	NA	NA		M	NA	NA	NA	NA
2019/11/23 04:35:00	AWS2	6.99	354	8.69	10	M	M	M	NA	NA	990.9	NA	NA		M	NA	NA	NA	NA
2019/11/23 04:36:00	AWS2	6.79	353	8.69	10	M	M	M	NA	NA	989.6	NA	NA		M	NA	NA	NA	NA
2019/11/23 04:37:00	AWS2	6.71	350	8.49	355	M	M	M	NA	NA	989.3	NA	NA		M	NA	NA	NA	NA
2019/11/23 04:38:00	AWS2	6.52	348	8.49	355	M	M	M	NA	NA	990.1	NA	NA		M	NA	NA	NA	NA
2019/11/23 04:39:00	AWS2	6.67	351	8.49	355	M	M	M	NA	NA	991.2	NA	NA		M	NA	NA	NA	NA
2019/11/23 04:40:00	AWS2	7.10	358	8.49	355	M	M	M	NA	NA	990.0	NA	NA		M	NA	NA	NA	NA
2019/11/23 04:41:00	AWS2	6.89	356	8.49	355	M	M	M	NA	NA	990.2	NA	NA		M	NA	NA	NA	NA
2019/11/23 04:42:01	AWS2	6.94	354	8.49	355	M	M	M	NA	NA	990.5	NA	NA		M	NA	NA	NA	NA
2019/11/23 04:43:00	AWS2	6.89	355	8.49	355	M	M	M	NA	NA	990.5	NA	NA		M	NA	NA	NA	NA
2019/11/23 04:44:01	AWS2	6.68	356	8.49	355	M	M	M	NA	NA	992.5	NA	NA		M	NA	NA	NA	NA
2019/11/23 04:45:00	AWS2	6.79	352	8.49	355	M	M	M	NA	NA	990.1	NA	NA		M	NA	NA	NA	NA
2019/11/23 04:46:00	AWS2	7.01	355	8.28	11	M	M	M	NA	NA	991.0	NA	NA		M	NA	NA	NA	NA
2019/11/23 04:47:00	AWS2	6.82	358	8.28	11	M	M	M	NA	NA	990.3	NA	NA		M	NA	NA	NA	NA
2019/11/23 04:48:00	AWS2	6.76	358	8.28	11	M	M	M	NA	NA	990.7	NA	NA		M	NA	NA	NA	NA
2019/11/23 04:49:00	AWS2	7.14	3	8.28	11	M	M	M	NA	NA	990.0	NA	NA		M	NA	NA	NA	NA
2019/11/23 04:50:00	AWS2	7.25	4	7.92	2	M	M	M	NA	NA	992.2	NA	NA		M	NA	NA	NA	NA
2019/11/23 04:51:00	AWS2	7.13	6	7.92	354	M	M	M	NA	NA	991.1	NA	NA		M	NA	NA	NA	NA
2019/11/23 04:52:00	AWS2	7.07	7	7.92	354	M	M	M	NA	NA	990.8	NA	NA		M	NA	NA	NA	NA
2019/11/23 04:53:00	AWS2	7.05	7	7.92	354	M	M	M	NA	NA	989.4	NA	NA		M	NA	NA	NA	NA
2019/11/23 04:54:00	AWS2	7.06	6	8.13	10	M	M	M	NA	NA	991.6	NA	NA		M	NA	NA	NA	NA
2019/11/23 04:55:00	AWS2	7.28	5	8.13	10	M	M	M	NA	NA	991.7	NA	NA		M	NA	NA	NA	NA
2019/11/23 04:56:00	AWS2	7.63	3	8.28	2	M	M	M	NA	NA	990.2	NA	NA		M	NA	NA	NA	NA
2019/11/23 04:57:01	AWS2	7.95	1	8.69	2	M	M	M	NA	NA	992.2	NA	NA		M	NA	NA	NA	NA
2019/11/23 04:58:01	AWS2	8.18	1	9.21	2	M	M	M	NA	NA	992.8	NA	NA		M	NA	NA	NA	NA
2019/11/23 04:59:00	AWS2	8.37	3	9.21	2	M	M	M	NA	NA	991.2	NA	NA		M	NA	NA	NA	NA
2019/11/23 05:00:00	AWS2	8.29	2	9.21	2	M	M	M	NA	NA	991.9	NA	NA		M	NA	NA	NA	NA
2019/11/23 05:01:00	AWS2	8.10	359	9.21	2	M	M	M	NA	NA	992.0	NA	NA		M	NA	NA	NA	NA
2019/11/23 05:02:00	AWS2	8.40	356	9.88	1	M	M	M	NA	NA	990.5	NA	NA		M	NA	NA	NA	NA
2019/11/23 05:03:00	AWS2	8.24	357	9.88	1	M	M	M	NA	NA	991.2	NA	NA		M	NA	NA	NA	NA
2019/11/23 05:04:01	AWS2	7.89	358	9.88	1	M	M	M	NA	NA	991.2	NA	NA		M	NA	NA	NA	NA
2019/11/23 05:05:00	AWS2	8.21	356	9.88	1	M	M	M	NA	NA	990.9	NA	NA		M	NA	NA	NA	NA
2019/11/23 05:06:00	AWS2	8.35	355	9.88	1	M	M	M	NA	NA	992.4	NA	NA		M	NA	NA	NA	NA
2019/11/23 05:07:00	AWS2	8.43	354	9.98	275	M	M	M	NA	NA	991.8	NA	NA		M	NA	NA	NA	NA
2019/11/23 05:08:00	AWS2	8.10	357	9.98	275	M	M	M	NA	NA	991.3	NA	NA		M	NA	NA	NA	NA
2019/11/23 05:09:00	AWS2	7.69	1	9.98	275	M	M	M	NA	NA	989.9	NA	NA		M	NA	NA	NA	NA
2019/11/23 05:10:00	AWS2	7.74	2	9.98	275	M	M	M	NA	NA	991.9	NA	NA		M	NA	NA	NA	NA
2019/11/23 05:11:00	AWS2	7.60	1	9.98	275	M	M	M	NA	NA	990.7	NA	NA		M	NA	NA	NA	NA
2019/11/23 05:12:00	AWS2	6.93	359	9.98	275	M	M	M	NA	NA	992.1	NA	NA		M	NA	NA	NA	NA
2019/11/23 05:13:00	AWS2	6.76	356	9.98	275	M	M	M	NA	NA	991.3	NA	NA		M	NA	NA	NA	NA
2019/11/23 05:14:00	AWS2	6.67	351	9.98	275	M	M	M	NA	NA	991.8	NA	NA		M	NA	NA	NA	NA
2019/11/23 05:15:00	AWS2	6.37	355	9.98	275	M	M	M	NA	NA	992.0	NA	NA		M	NA	NA	NA	NA
2019/11/23 05:16:00	AWS2	6.42	3	9.98	275	M	M	M	NA	NA	991.1	NA	NA		M	NA	NA	NA	NA
2019/11/23 05:17:00	AWS2	6.24	3	8.39	6	M	M	M	NA	NA	992.4	NA	NA		M	NA	NA	NA	NA
2019/11/23 05:18:00	AWS2	6.39	5	8.39	6	M	M	M	NA	NA	991.4	NA	NA		M	NA	NA	NA	NA
2019/11/23 05:19:00	AWS2	6.48	8	8.39	6	M	M	M	NA	NA	992.0	NA	NA		M	NA	NA	NA	NA
2019/11/23 05:20:00	AWS2	6.28	9	7.97	354	M	M	M	NA	NA	992.6	NA	NA		M	NA	NA	NA	NA
2019/11/23 05:21:00	AWS2	6.22	11	7.51	352	M	M	M	NA	NA	989.8	NA	NA		M	NA	NA	NA	NA
2019/11/23 05:22:00	AWS2	6.30	11	7.51	352	M	M	M	NA	NA	991.1	NA	NA		M	NA	NA	NA	NA
2019/11/23 05:23:00	AWS2	6.49	11	7.46	1	M	M	M	NA	NA	991.1	NA	NA		M	NA	NA	NA	NA
2019/11/23 05:24:00	AWS2	6.62	12	7.46	1	M	M	M	NA	NA	989.7	NA	NA		M	NA	NA	NA	NA
2019/11/23 05:25:00	AWS2	6.80	12	7.46	1	M	M	M	NA	NA	990.7	NA	NA		M	NA	NA	NA	NA
2019/11/23 05:26:00	AWS2	6.90	11	7.46	1	M	M	M	NA	NA	989.8	NA	NA		M	NA	NA	NA	NA
2019/11/23 05:27:00	AWS2	6.74	11	7.46	1	M	M	M	NA	NA	991.7	NA	NA		M	NA	NA	NA	NA
2019/11/23 05:28:00	AWS2	6.74	11	7.56	10	M	M	M	NA	NA	990.8	NA	NA		M	NA	NA	NA	NA
2019/11/23 05:29:00	AWS2	6.87	9	7.56	10	M	M	M	NA	NA	992.4	NA	NA		M	NA	NA	NA	NA
2019/11/23 05:30:00	AWS2	6.98	9	7.56	10	M	M	M	NA	NA	990.8	NA	NA		M	NA	NA	NA	NA
2019/11/23 05:31:00	AWS2	7.35	11	8.39	8	M	M	M	NA	NA	989.6	NA	NA		M	NA	NA	NA	NA
2019/11/23 05:32:00	AWS2	7.38	11	8.39	8	M	M	M	NA	NA	991.3	NA	NA		M	NA	NA	NA	NA
2019/11/23 05:33:00	AWS2	6.72	10	8.39	8	M	M	M	NA	NA	990.9	NA	NA		M	NA	NA	NA	NA
2019/11/23 05:34:00	AWS2	6.39	11	8.39	8	M	M	M	NA	NA	992.0	NA	NA		M	NA	NA	NA	NA
2019/11/23 05:35:00	AWS2	6.48	12	8.39	8	M	M	M	NA	NA	989.8	NA	NA		M	NA	NA	NA	NA
2019/11/23 05:36:00	AWS2	6.48	11	8.39	8	M	M	M	NA	NA	991.6	NA	NA		M	NA	NA	NA	NA
2019/11/23 05:37:00	AWS2	6.47	11	8.39	8	M	M	M	NA	NA	991.3	NA	NA		M	NA	NA	NA	NA
2019/11/23 05:38:00	AWS2	6.30	13	8.39	8	M	M	M	NA	NA	992.3	NA	NA		M	NA	NA	NA	NA
2019/11/23 05:39:00	AWS2	6.19	14	8.39	8	M	M	M	NA	NA	991.5	NA	NA		M	NA	NA	NA	NA
2019/11/23 05:40:00	AWS2	6.06	11	8.39	8	M	M	M	NA	NA	990.8	NA	NA		M	NA	NA	NA	NA
2019/11/23 05:41:00	AWS2	6.11	9	8.08	12	M	M	M	NA	NA	991.1	NA	NA		M	NA	NA	NA	NA
2019/11/23 05:42:00	AWS2	6.06	10	6.94	6	M	M	M	NA	NA	991.2	NA	NA		M	NA	NA	NA	NA
2019/11/23 05:43:00	AWS2	5.55	10	6.84	10	M	M	M	NA	NA	990.7	NA	NA		M	NA	NA	NA	NA
2019/11/23 05:44:00	AWS2	5.40	8	6.84	10	M	M	M	NA	NA	991.6	NA	NA		M	NA	NA	NA	NA
2019/11/23 05:45:00	AWS2	5.67	8	6.84	10	M	M	M	NA	NA	990.8	NA	NA		M	NA	NA	NA	NA
2019/11/23 05:46:00	AWS2	5.79	7	6.74	2	M	M	M	NA	NA	990.2	NA	NA		M	NA	NA	NA	NA
2019/11/23 05:47:00	AWS2	6.16	5	7.05	10	M	M	M	NA	NA	990.8	NA	NA		M	NA	NA	NA	NA
2019/11/23 05:48:00	AWS2	6.47	5	7.05	10	M	M	M	NA	NA	990.6	NA	NA		M	NA	NA	NA	NA
2019/11/23 05:49:00	AWS2	6.61	3	7.41	2	M	M	M	NA	NA	991.2	NA	NA		M	NA	NA	NA	NA
2019/11/23 05:50:00	AWS2	6.89	2	7.77	9	M	M	M	NA	NA	990.8	NA	NA		M	NA	NA	NA	NA
2019/11/23 05:51:00	AWS2	7.40	3	8.13	3	M	M	M	NA	NA	992.4	NA	NA		M	NA	NA	NA	NA
2019/11/23 05:52:00	AWS2	7.46	4	8.13	3	M	M	M	NA	NA	989.6	NA	NA		M	NA	NA	NA	NA
2019/11/23 05:53:00	AWS2	7.04	5	8.13	3	M	M	M	NA	NA	990.0	NA	NA		M	NA	NA	NA	NA
2019/11/23 05:54:00	AWS2	6.81	5	8.13	3	M	M	M	NA	NA	991.6	NA	NA		M	NA	NA	NA	NA
2019/11/23 05:55:00	AWS2	6.65	5	8.13	3	M	M	M	NA	NA	989.5	NA	NA		M	NA	NA	NA	NA
2019/11/23 05:56:00	AWS2	6.75	6	8.13	3	M	M	M	NA	NA	990.5	NA	NA		M	NA	NA	NA	NA
2019/11/23 05:57:00	AWS2	6.55	7	8.13	3	M	M	M	NA	NA	990.7	NA	NA		M	NA	NA	NA	NA
2019/11/23 05:58:00	AWS2	6.61	6	8.13	3	M	M	M	NA	NA	992.0	NA	NA		M	NA	NA	NA	NA
2019/11/23 05:59:00	AWS2	7.28	4	8.28	1	M	M	M	NA	NA	989.5	NA	NA		M	NA	NA	NA	NA
2019/11/23 06:00:00	AWS2	7.56	4	8.28	1	M	M	M	NA	NA	991.3	NA	NA		M	NA	NA	NA	NA
2019/11/23 06:01:00	AWS2	7.37	6	8.28	1	M	M	M	NA	NA	990.1	NA	NA		M	NA	NA	NA	NA
2019/11/23 06:02:00	AWS2	7.29	10	8.28	1	M	M	M	NA	NA	990.6	NA	NA		M	NA	NA	NA	NA
2019/11/23 06:03:00	AWS2	7.47	13	8.49	8	M	M	M	NA	NA	989.2	NA	NA		M	NA	NA	NA	NA
2019/11/23 06:04:00	AWS2	7.39	13	8.49	8	M	M	M	NA	NA	989.6	NA	NA		M	NA	NA	NA	NA
2019/11/23 06:05:00	AWS2	7.34	12	8.49	8	M	M	M	NA	NA	990.5	NA	NA		M	NA	NA	NA	NA
2019/11/23 06:06:00	AWS2	7.39	11	8.49	8	M	M	M	NA	NA	991.2	NA	NA		M	NA	NA	NA	NA
2019/11/23 06:07:00	AWS2	7.07	9	8.49	8	M	M	M	NA	NA	989.8	NA	NA		M	NA	NA	NA	NA
2019/11/23 06:08:00	AWS2	6.87	11	8.49	8	M	M	M	NA	NA	990.0	NA	NA		M	NA	NA	NA	NA
2019/11/23 06:09:00	AWS2	6.60	11	8.49	8	M	M	M	NA	NA	989.6	NA	NA		M	NA	NA	NA	NA
2019/11/23 06:10:00	AWS2	6.35	11	8.49	8	M	M	M	NA	NA	991.6	NA	NA		M	NA	NA	NA	NA
2019/11/23 06:11:00	AWS2	6.32	11	8.49	8	M	M	M	NA	NA	990.3	NA	NA		M	NA	NA	NA	NA
2019/11/23 06:12:00	AWS2	6.27	14	8.49	8	M	M	M	NA	NA	990.3	NA	NA		M	NA	NA	NA	NA
2019/11/23 06:13:00	AWS2	6.29	16	8.13	10	M	M	M	NA	NA	990.3	NA	NA		M	NA	NA	NA	NA
2019/11/23 06:14:00	AWS2	6.42	16	8.13	10	M	M	M	NA	NA	990.2	NA	NA		M	NA	NA	NA	NA
2019/11/23 06:15:00	AWS2	6.20	16	7.56	6	M	M	M	NA	NA	990.5	NA	NA		M	NA	NA	NA	NA
2019/11/23 06:16:00	AWS2	5.85	17	7.15	14	M	M	M	NA	NA	990.4	NA	NA		M	NA	NA	NA	NA
2019/11/23 06:17:00	AWS2	5.84	18	7.15	14	M	M	M	NA	NA	991.3	NA	NA		M	NA	NA	NA	NA
2019/11/23 06:18:00	AWS2	5.93	20	7.15	14	M	M	M	NA	NA	990.0	NA	NA		M	NA	NA	NA	NA
2019/11/23 06:19:00	AWS2	5.83	20	7.15	14	M	M	M	NA	NA	991.3	NA	NA		M	NA	NA	NA	NA
2019/11/23 06:20:00	AWS2	5.81	18	7.15	14	M	M	M	NA	NA	989.9	NA	NA		M	NA	NA	NA	NA
2019/11/23 06:21:00	AWS2	5.89	20	7.15	14	M	M	M	NA	NA	990.7	NA	NA		M	NA	NA	NA	NA
2019/11/23 06:22:00	AWS2	5.66	23	7.15	14	M	M	M	NA	NA	989.2	NA	NA		M	NA	NA	NA	NA
2019/11/23 06:23:00	AWS2	5.50	25	7.15	14	M	M	M	NA	NA	991.2	NA	NA		M	NA	NA	NA	NA
2019/11/23 06:24:00	AWS2	5.62	26	6.53	35	M	M	M	NA	NA	991.1	NA	NA		M	NA	NA	NA	NA
2019/11/23 06:25:00	AWS2	5.59	26	6.53	35	M	M	M	NA	NA	990.2	NA	NA		M	NA	NA	NA	NA
2019/11/23 06:26:00	AWS2	5.43	26	6.53	35	M	M	M	NA	NA	989.9	NA	NA		M	NA	NA	NA	NA
2019/11/23 06:27:00	AWS2	5.51	25	6.53	35	M	M	M	NA	NA	990.8	NA	NA		M	NA	NA	NA	NA
2019/11/23 06:28:00	AWS2	5.62	25	6.53	35	M	M	M	NA	NA	991.5	NA	NA		M	NA	NA	NA	NA
2019/11/23 06:29:00	AWS2	5.55	24	6.53	35	M	M	M	NA	NA	990.7	NA	NA		M	NA	NA	NA	NA
2019/11/23 06:30:00	AWS2	5.33	21	6.53	35	M	M	M	NA	NA	990.6	NA	NA		M	NA	NA	NA	NA
2019/11/23 06:31:00	AWS2	5.23	22	6.53	35	M	M	M	NA	NA	991.1	NA	NA		M	NA	NA	NA	NA
2019/11/23 06:32:00	AWS2	5.35	21	6.53	35	M	M	M	NA	NA	988.9	NA	NA		M	NA	NA	NA	NA
2019/11/23 06:33:00	AWS2	5.64	19	6.53	35	M	M	M	NA	NA	990.7	NA	NA		M	NA	NA	NA	NA
2019/11/23 06:34:00	AWS2	6.08	20	6.38	20	M	M	M	NA	NA	988.9	NA	NA		M	NA	NA	NA	NA
2019/11/23 06:35:00	AWS2	6.19	17	6.69	8	M	M	M	NA	NA	988.6	NA	NA		M	NA	NA	NA	NA
2019/11/23 06:36:00	AWS2	6.19	15	6.69	19	M	M	M	NA	NA	989.3	NA	NA		M	NA	NA	NA	NA
2019/11/23 06:37:00	AWS2	6.23	18	6.69	19	M	M	M	NA	NA	990.8	NA	NA		M	NA	NA	NA	NA
2019/11/23 06:38:00	AWS2	6.24	19	6.69	21	M	M	M	NA	NA	990.1	NA	NA		M	NA	NA	NA	NA
2019/11/23 06:39:00	AWS2	6.17	16	6.74	14	M	M	M	NA	NA	990.7	NA	NA		M	NA	NA	NA	NA
2019/11/23 06:40:00	AWS2	6.18	17	7.10	16	M	M	M	NA	NA	989.3	NA	NA		M	NA	NA	NA	NA
2019/11/23 06:41:00	AWS2	6.43	18	7.61	15	M	M	M	NA	NA	990.5	NA	NA		M	NA	NA	NA	NA
2019/11/23 06:42:00	AWS2	6.61	18	7.61	15	M	M	M	NA	NA	989.0	NA	NA		M	NA	NA	NA	NA
2019/11/23 06:43:00	AWS2	6.76	20	7.97	21	M	M	M	NA	NA	988.9	NA	NA		M	NA	NA	NA	NA
2019/11/23 06:44:00	AWS2	6.73	24	7.97	21	M	M	M	NA	NA	988.9	NA	NA		M	NA	NA	NA	NA
2019/11/23 06:45:00	AWS2	6.59	23	7.97	21	M	M	M	NA	NA	989.3	NA	NA		M	NA	NA	NA	NA
2019/11/23 06:46:00	AWS2	6.63	24	8.18	29	M	M	M	NA	NA	990.6	NA	NA		M	NA	NA	NA	NA
2019/11/23 06:47:00	AWS2	7.16	23	8.69	25	M	M	M	NA	NA	989.7	NA	NA		M	NA	NA	NA	NA
2019/11/23 06:48:00	AWS2	7.55	23	8.69	25	M	M	M	NA	NA	991.7	NA	NA		M	NA	NA	NA	NA
2019/11/23 06:49:01	AWS2	7.83	22	8.90	22	M	M	M	NA	NA	990.1	NA	NA		M	NA	NA	NA	NA
2019/11/23 06:50:00	AWS2	8.18	24	8.90	22	M	M	M	NA	NA	989.6	NA	NA		M	NA	NA	NA	NA
2019/11/23 06:51:00	AWS2	8.60	29	9.77	31	M	M	M	NA	NA	990.4	NA	NA		M	NA	NA	NA	NA
2019/11/23 06:52:00	AWS2	8.71	30	9.77	31	M	M	M	NA	NA	989.8	NA	NA		M	NA	NA	NA	NA
2019/11/23 06:53:00	AWS2	8.56	29	10.49	17	M	M	M	NA	NA	989.3	NA	NA		M	NA	NA	NA	NA
2019/11/23 06:54:00	AWS2	8.87	29	10.49	17	M	M	M	NA	NA	988.3	NA	NA		M	NA	NA	NA	NA
2019/11/23 06:55:00	AWS2	8.86	26	10.49	17	M	M	M	NA	NA	989.8	NA	NA		M	NA	NA	NA	NA
2019/11/23 06:56:00	AWS2	8.63	25	10.49	17	M	M	M	NA	NA	992.5	NA	NA		M	NA	NA	NA	NA
2019/11/23 06:57:00	AWS2	8.30	27	10.49	17	M	M	M	NA	NA	990.6	NA	NA		M	NA	NA	NA	NA
2019/11/23 06:58:00	AWS2	7.92	27	10.49	17	M	M	M	NA	NA	992.3	NA	NA		M	NA	NA	NA	NA
2019/11/23 06:59:00	AWS2	7.88	28	10.49	17	M	M	M	NA	NA	991.2	NA	NA		M	NA	NA	NA	NA
2019/11/23 07:00:00	AWS2	7.95	30	10.49	17	M	M	M	NA	NA	992.2	NA	NA		M	NA	NA	NA	NA
2019/11/23 07:01:00	AWS2	7.69	28	10.49	17	M	M	M	NA	NA	991.7	NA	NA		M	NA	NA	NA	NA
2019/11/23 07:02:00	AWS2	7.76	29	10.49	17	M	M	M	NA	NA	991.3	NA	NA		M	NA	NA	NA	NA
2019/11/23 07:03:00	AWS2	8.30	30	9.88	31	M	M	M	NA	NA	991.8	NA	NA		M	NA	NA	NA	NA
2019/11/23 07:04:00	AWS2	8.63	31	9.52	25	M	M	M	NA	NA	991.0	NA	NA		M	NA	NA	NA	NA
2019/11/23 07:05:00	AWS2	8.63	33	9.31	28	M	M	M	NA	NA	992.4	NA	NA		M	NA	NA	NA	NA
2019/11/23 07:06:00	AWS2	8.43	34	9.47	33	M	M	M	NA	NA	992.3	NA	NA		M	NA	NA	NA	NA
2019/11/23 07:07:00	AWS2	8.08	33	9.47	33	M	M	M	NA	NA	991.4	NA	NA		M	NA	NA	NA	NA
2019/11/23 07:08:00	AWS2	7.78	31	9.47	33	M	M	M	NA	NA	992.8	NA	NA		M	NA	NA	NA	NA
2019/11/23 07:09:00	AWS2	7.68	33	9.47	33	M	M	M	NA	NA	991.6	NA	NA		M	NA	NA	NA	NA
2019/11/23 07:10:00	AWS2	7.73	33	9.47	33	M	M	M	NA	NA	992.3	NA	NA		M	NA	NA	NA	NA
2019/11/23 07:11:00	AWS2	7.98	32	9.47	33	M	M	M	NA	NA	991.7	NA	NA		M	NA	NA	NA	NA
2019/11/23 07:12:00	AWS2	8.12	33	9.47	33	M	M	M	NA	NA	992.0	NA	NA		M	NA	NA	NA	NA
2019/11/23 07:13:00	AWS2	8.45	31	9.77	30	M	M	M	NA	NA	991.6	NA	NA		M	NA	NA	NA	NA
2019/11/23 07:14:00	AWS2	8.60	30	9.77	30	M	M	M	NA	NA	991.8	NA	NA		M	NA	NA	NA	NA
2019/11/23 07:15:00	AWS2	8.86	32	10.24	28	M	M	M	NA	NA	992.2	NA	NA		M	NA	NA	NA	NA
2019/11/23 07:16:00	AWS2	9.21	34	10.24	28	M	M	M	NA	NA	991.7	NA	NA		M	NA	NA	NA	NA
2019/11/23 07:17:00	AWS2	8.95	31	10.24	28	M	M	M	NA	NA	992.0	NA	NA		M	NA	NA	NA	NA
2019/11/23 07:18:00	AWS2	8.60	29	10.24	28	M	M	M	NA	NA	991.2	NA	NA		M	NA	NA	NA	NA
2019/11/23 07:19:00	AWS2	8.65	33	10.24	28	M	M	M	NA	NA	990.3	NA	NA		M	NA	NA	NA	NA
2019/11/23 07:20:00	AWS2	8.93	35	10.24	28	M	M	M	NA	NA	991.5	NA	NA		M	NA	NA	NA	NA
2019/11/23 07:21:00	AWS2	9.25	35	10.24	28	M	M	M	NA	NA	992.0	NA	NA		M	NA	NA	NA	NA
2019/11/23 07:22:00	AWS2	9.45	33	10.24	28	M	M	M	NA	NA	991.5	NA	NA		M	NA	NA	NA	NA
2019/11/23 07:23:00	AWS2	9.11	33	10.24	28	M	M	M	NA	NA	991.3	NA	NA		M	NA	NA	NA	NA
2019/11/23 07:24:00	AWS2	9.07	33	10.24	28	M	M	M	NA	NA	991.4	NA	NA		M	NA	NA	NA	NA
2019/11/23 07:25:00	AWS2	9.13	30	10.13	44	M	M	M	NA	NA	992.5	NA	NA		M	NA	NA	NA	NA
2019/11/23 07:26:00	AWS2	8.81	28	10.13	44	M	M	M	NA	NA	990.8	NA	NA		M	NA	NA	NA	NA
2019/11/23 07:27:00	AWS2	8.61	33	10.13	44	M	M	M	NA	NA	992.1	NA	NA		M	NA	NA	NA	NA
2019/11/23 07:28:00	AWS2	8.98	33	10.24	29	M	M	M	NA	NA	992.9	NA	NA		M	NA	NA	NA	NA
2019/11/23 07:29:00	AWS2	9.38	31	10.65	37	M	M	M	NA	NA	992.0	NA	NA		M	NA	NA	NA	NA
2019/11/23 07:30:00	AWS2	9.13	32	10.65	37	M	M	M	NA	NA	991.8	NA	NA		M	NA	NA	NA	NA
2019/11/23 07:31:00	AWS2	9.21	30	10.80	28	M	M	M	NA	NA	991.5	NA	NA		M	NA	NA	NA	NA
2019/11/23 07:32:00	AWS2	9.40	30	10.80	28	M	M	M	NA	NA	992.1	NA	NA		M	NA	NA	NA	NA
2019/11/23 07:33:00	AWS2	8.83	31	10.80	28	M	M	M	NA	NA	991.9	NA	NA		M	NA	NA	NA	NA
2019/11/23 07:34:00	AWS2	8.46	32	10.80	28	M	M	M	NA	NA	992.4	NA	NA		M	NA	NA	NA	NA
2019/11/23 07:35:00	AWS2	8.62	32	10.80	28	M	M	M	NA	NA	992.2	NA	NA		M	NA	NA	NA	NA
2019/11/23 07:36:00	AWS2	8.56	32	10.80	28	M	M	M	NA	NA	991.4	NA	NA		M	NA	NA	NA	NA
2019/11/23 07:37:00	AWS2	8.26	29	10.80	28	M	M	M	NA	NA	992.4	NA	NA		M	NA	NA	NA	NA
2019/11/23 07:38:00	AWS2	8.09	26	10.80	28	M	M	M	NA	NA	992.4	NA	NA		M	NA	NA	NA	NA
2019/11/23 07:39:00	AWS2	7.67	24	10.80	28	M	M	M	NA	NA	992.4	NA	NA		M	NA	NA	NA	NA
2019/11/23 07:40:00	AWS2	7.49	24	10.80	28	M	M	M	NA	NA	992.7	NA	NA		M	NA	NA	NA	NA
2019/11/23 07:41:00	AWS2	7.49	26	9.88	21	M	M	M	NA	NA	991.8	NA	NA		M	NA	NA	NA	NA
2019/11/23 07:42:00	AWS2	7.85	28	9.67	30	M	M	M	NA	NA	992.2	NA	NA		M	NA	NA	NA	NA
2019/11/23 07:43:00	AWS2	8.06	29	9.41	28	M	M	M	NA	NA	991.8	NA	NA		M	NA	NA	NA	NA
2019/11/23 07:44:00	AWS2	8.20	29	9.77	29	M	M	M	NA	NA	991.9	NA	NA		M	NA	NA	NA	NA
2019/11/23 07:45:00	AWS2	8.57	27	9.77	29	M	M	M	NA	NA	991.7	NA	NA		M	NA	NA	NA	NA
2019/11/23 07:46:00	AWS2	8.58	26	9.77	29	M	M	M	NA	NA	992.3	NA	NA		M	NA	NA	NA	NA
2019/11/23 07:47:00	AWS2	8.69	26	10.08	28	M	M	M	NA	NA	991.8	NA	NA		M	NA	NA	NA	NA
2019/11/23 07:48:00	AWS2	8.31	26	10.08	28	M	M	M	NA	NA	991.9	NA	NA		M	NA	NA	NA	NA
2019/11/23 07:49:00	AWS2	8.03	26	10.08	28	M	M	M	NA	NA	990.7	NA	NA		M	NA	NA	NA	NA
2019/11/23 07:50:00	AWS2	8.65	25	11.37	21	M	M	M	NA	NA	992.9	NA	NA		M	NA	NA	NA	NA
2019/11/23 07:51:00	AWS2	9.51	25	11.37	21	M	M	M	NA	NA	992.4	NA	NA		M	NA	NA	NA	NA
2019/11/23 07:52:00	AWS2	9.67	26	11.37	21	M	M	M	NA	NA	990.5	NA	NA		M	NA	NA	NA	NA
2019/11/23 07:53:00	AWS2	9.39	26	11.37	21	M	M	M	NA	NA	991.2	NA	NA		M	NA	NA	NA	NA
2019/11/23 07:54:00	AWS2	9.48	24	11.37	21	M	M	M	NA	NA	991.7	NA	NA		M	NA	NA	NA	NA
2019/11/23 07:55:00	AWS2	9.43	25	11.37	21	M	M	M	NA	NA	992.4	NA	NA		M	NA	NA	NA	NA
2019/11/23 07:56:00	AWS2	8.74	24	11.37	21	M	M	M	NA	NA	991.2	NA	NA		M	NA	NA	NA	NA
2019/11/23 07:57:00	AWS2	8.43	25	11.37	21	M	M	M	NA	NA	992.3	NA	NA		M	NA	NA	NA	NA
2019/11/23 07:58:00	AWS2	8.93	27	11.37	21	M	M	M	NA	NA	991.1	NA	NA		M	NA	NA	NA	NA
2019/11/23 07:59:00	AWS2	9.84	27	12.30	24	M	M	M	NA	NA	991.7	NA	NA		M	NA	NA	NA	NA
2019/11/23 08:00:00	AWS2	10.18	27	12.30	24	M	M	M	NA	NA	992.0	NA	NA		M	NA	NA	NA	NA
2019/11/23 08:01:00	AWS2	9.86	27	12.30	24	M	M	M	NA	NA	991.7	NA	NA		M	NA	NA	NA	NA
2019/11/23 08:02:00	AWS2	9.17	26	12.30	24	M	M	M	NA	NA	992.5	NA	NA		M	NA	NA	NA	NA
2019/11/23 08:03:00	AWS2	9.24	24	12.30	24	M	M	M	NA	NA	992.1	NA	NA		M	NA	NA	NA	NA
2019/11/23 08:04:00	AWS2	9.44	23	12.30	24	M	M	M	NA	NA	991.0	NA	NA		M	NA	NA	NA	NA
2019/11/23 08:05:00	AWS2	9.70	24	12.30	24	M	M	M	NA	NA	991.4	NA	NA		M	NA	NA	NA	NA
2019/11/23 08:06:00	AWS2	10.26	26	12.30	24	M	M	M	NA	NA	991.8	NA	NA		M	NA	NA	NA	NA
2019/11/23 08:07:00	AWS2	9.47	26	12.30	24	M	M	M	NA	NA	992.4	NA	NA		M	NA	NA	NA	NA
2019/11/23 08:08:00	AWS2	9.91	23	12.55	23	M	M	M	NA	NA	991.8	NA	NA		M	NA	NA	NA	NA
2019/11/23 08:09:00	AWS2	10.32	23	12.55	23	M	M	M	NA	NA	991.4	NA	NA		M	NA	NA	NA	NA
2019/11/23 08:10:00	AWS2	10.32	24	12.55	23	M	M	M	NA	NA	992.1	NA	NA		M	NA	NA	NA	NA
2019/11/23 08:11:00	AWS2	10.27	23	12.55	23	M	M	M	NA	NA	991.9	NA	NA		M	NA	NA	NA	NA
2019/11/23 08:12:00	AWS2	9.80	22	12.55	23	M	M	M	NA	NA	991.7	NA	NA		M	NA	NA	NA	NA
2019/11/23 08:13:00	AWS2	9.72	22	12.55	23	M	M	M	NA	NA	991.8	NA	NA		M	NA	NA	NA	NA
2019/11/23 08:14:00	AWS2	9.40	24	12.55	23	M	M	M	NA	NA	991.7	NA	NA		M	NA	NA	NA	NA
2019/11/23 08:15:00	AWS2	9.38	25	12.55	23	M	M	M	NA	NA	991.9	NA	NA		M	NA	NA	NA	NA
2019/11/23 08:16:00	AWS2	9.29	23	12.55	23	M	M	M	NA	NA	991.9	NA	NA		M	NA	NA	NA	NA
2019/11/23 08:17:00	AWS2	9.46	22	12.55	23	M	M	M	NA	NA	991.7	NA	NA		M	NA	NA	NA	NA
2019/11/23 08:18:00	AWS2	10.36	24	12.55	33	M	M	M	NA	NA	989.6	NA	NA		M	NA	NA	NA	NA
2019/11/23 08:19:00	AWS2	10.89	26	12.55	33	M	M	M	NA	NA	992.5	NA	NA		M	NA	NA	NA	NA
2019/11/23 08:20:00	AWS2	10.66	25	12.55	33	M	M	M	NA	NA	992.3	NA	NA		M	NA	NA	NA	NA
2019/11/23 08:21:00	AWS2	10.39	21	12.55	33	M	M	M	NA	NA	991.3	NA	NA		M	NA	NA	NA	NA
2019/11/23 08:22:00	AWS2	9.91	21	12.55	33	M	M	M	NA	NA	992.3	NA	NA		M	NA	NA	NA	NA
2019/11/23 08:23:00	AWS2	9.20	26	12.55	33	M	M	M	NA	NA	992.0	NA	NA		M	NA	NA	NA	NA
2019/11/23 08:24:00	AWS2	8.88	27	12.55	33	M	M	M	NA	NA	991.8	NA	NA		M	NA	NA	NA	NA
2019/11/23 08:25:00	AWS2	9.06	25	12.55	33	M	M	M	NA	NA	991.8	NA	NA		M	NA	NA	NA	NA
2019/11/23 08:26:00	AWS2	9.10	22	12.55	33	M	M	M	NA	NA	991.9	NA	NA		M	NA	NA	NA	NA
2019/11/23 08:27:00	AWS2	9.76	23	12.55	33	M	M	M	NA	NA	992.3	NA	NA		M	NA	NA	NA	NA
2019/11/23 08:28:00	AWS2	9.99	21	12.24	14	M	M	M	NA	NA	990.7	NA	NA		M	NA	NA	NA	NA
2019/11/23 08:29:00	AWS2	10.24	20	12.24	14	M	M	M	NA	NA	991.5	NA	NA		M	NA	NA	NA	NA
2019/11/23 08:30:00	AWS2	9.86	18	12.24	14	M	M	M	NA	NA	992.1	NA	NA		M	NA	NA	NA	NA
2019/11/23 08:31:00	AWS2	9.63	18	12.24	14	M	M	M	NA	NA	991.0	NA	NA		M	NA	NA	NA	NA
2019/11/23 08:32:00	AWS2	9.87	22	12.24	14	M	M	M	NA	NA	991.8	NA	NA		M	NA	NA	NA	NA
2019/11/23 08:33:00	AWS2	9.19	21	12.24	14	M	M	M	NA	NA	990.9	NA	NA		M	NA	NA	NA	NA
2019/11/23 08:34:00	AWS2	9.14	22	12.24	14	M	M	M	NA	NA	992.3	NA	NA		M	NA	NA	NA	NA
2019/11/23 08:35:00	AWS2	8.67	25	12.24	14	M	M	M	NA	NA	991.5	NA	NA		M	NA	NA	NA	NA
2019/11/23 08:36:00	AWS2	8.70	23	12.24	14	M	M	M	NA	NA	991.1	NA	NA		M	NA	NA	NA	NA
2019/11/23 08:37:00	AWS2	9.36	20	12.14	8	M	M	M	NA	NA	991.7	NA	NA		M	NA	NA	NA	NA
2019/11/23 08:38:00	AWS2	9.84	20	12.14	8	M	M	M	NA	NA	991.6	NA	NA		M	NA	NA	NA	NA
2019/11/23 08:39:00	AWS2	9.74	22	11.73	20	M	M	M	NA	NA	992.1	NA	NA		M	NA	NA	NA	NA
2019/11/23 08:40:00	AWS2	9.56	25	11.73	20	M	M	M	NA	NA	991.7	NA	NA		M	NA	NA	NA	NA
2019/11/23 08:41:00	AWS2	8.89	25	11.47	23	M	M	M	NA	NA	992.1	NA	NA		M	NA	NA	NA	NA
2019/11/23 08:42:00	AWS2	8.01	23	11.47	23	M	M	M	NA	NA	991.4	NA	NA		M	NA	NA	NA	NA
2019/11/23 08:43:00	AWS2	8.38	24	11.47	23	M	M	M	NA	NA	992.1	NA	NA		M	NA	NA	NA	NA
2019/11/23 08:44:00	AWS2	9.52	26	12.86	24	M	M	M	NA	NA	991.3	NA	NA		M	NA	NA	NA	NA
2019/11/23 08:45:00	AWS2	10.55	26	12.86	24	M	M	M	NA	NA	990.8	NA	NA		M	NA	NA	NA	NA
2019/11/23 08:46:00	AWS2	10.78	27	13.07	24	M	M	M	NA	NA	990.9	NA	NA		M	NA	NA	NA	NA
2019/11/23 08:47:00	AWS2	9.78	27	13.07	24	M	M	M	NA	NA	991.7	NA	NA		M	NA	NA	NA	NA
2019/11/23 08:48:00	AWS2	9.07	26	13.07	24	M	M	M	NA	NA	991.6	NA	NA		M	NA	NA	NA	NA
2019/11/23 08:49:00	AWS2	9.40	23	13.07	24	M	M	M	NA	NA	990.9	NA	NA		M	NA	NA	NA	NA
2019/11/23 08:50:00	AWS2	10.30	23	13.07	24	M	M	M	NA	NA	991.1	NA	NA		M	NA	NA	NA	NA
2019/11/23 08:51:00	AWS2	10.71	25	13.07	24	M	M	M	NA	NA	992.1	NA	NA		M	NA	NA	NA	NA
2019/11/23 08:52:00	AWS2	10.17	27	13.07	24	M	M	M	NA	NA	991.6	NA	NA		M	NA	NA	NA	NA
2019/11/23 08:53:00	AWS2	9.73	29	13.07	24	M	M	M	NA	NA	991.2	NA	NA		M	NA	NA	NA	NA
2019/11/23 08:54:00	AWS2	9.41	29	13.07	24	M	M	M	NA	NA	991.9	NA	NA		M	NA	NA	NA	NA
2019/11/23 08:55:00	AWS2	9.02	24	13.07	24	M	M	M	NA	NA	991.0	NA	NA		M	NA	NA	NA	NA
2019/11/23 08:56:00	AWS2	7.95	22	12.09	21	M	M	M	NA	NA	991.3	NA	NA		M	NA	NA	NA	NA
2019/11/23 08:57:00	AWS2	7.39	23	12.09	21	M	M	M	NA	NA	991.2	NA	NA		M	NA	NA	NA	NA
2019/11/23 08:58:00	AWS2	7.98	22	12.09	21	M	M	M	NA	NA	991.8	NA	NA		M	NA	NA	NA	NA
2019/11/23 08:59:00	AWS2	8.34	20	12.09	21	M	M	M	NA	NA	991.5	NA	NA		M	NA	NA	NA	NA
2019/11/23 09:00:00	AWS2	8.58	23	11.73	19	M	M	M	NA	NA	991.6	NA	NA		M	NA	NA	NA	NA
2019/11/23 09:01:00	AWS2	8.81	27	11.21	28	M	M	M	NA	NA	990.5	NA	NA		M	NA	NA	NA	NA
2019/11/23 09:02:00	AWS2	9.22	26	10.80	34	M	M	M	NA	NA	991.3	NA	NA		M	NA	NA	NA	NA
2019/11/23 09:03:00	AWS2	9.55	25	10.80	34	M	M	M	NA	NA	990.9	NA	NA		M	NA	NA	NA	NA
2019/11/23 09:04:00	AWS2	9.69	22	11.88	15	M	M	M	NA	NA	991.1	NA	NA		M	NA	NA	NA	NA
2019/11/23 09:05:00	AWS2	10.32	22	11.88	15	M	M	M	NA	NA	990.2	NA	NA		M	NA	NA	NA	NA
2019/11/23 09:06:00	AWS2	10.76	20	11.88	15	M	M	M	NA	NA	991.3	NA	NA		M	NA	NA	NA	NA
2019/11/23 09:07:00	AWS2	10.55	17	12.45	24	M	M	M	NA	NA	990.1	NA	NA		M	NA	NA	NA	NA
2019/11/23 09:08:00	AWS2	10.11	20	12.45	24	M	M	M	NA	NA	991.5	NA	NA		M	NA	NA	NA	NA
2019/11/23 09:09:00	AWS2	10.24	21	12.45	24	M	M	M	NA	NA	991.0	NA	NA		M	NA	NA	NA	NA
2019/11/23 09:10:00	AWS2	10.59	24	12.76	28	M	M	M	NA	NA	991.0	NA	NA		M	NA	NA	NA	NA
2019/11/23 09:11:00	AWS2	11.72	25	14.61	22	M	M	M	NA	NA	990.4	NA	NA		M	NA	NA	NA	NA
2019/11/23 09:12:00	AWS2	12.87	23	14.61	22	M	M	M	NA	NA	989.5	NA	NA		M	NA	NA	NA	NA
2019/11/23 09:13:00	AWS2	12.09	21	14.61	22	M	M	M	NA	NA	991.4	NA	NA		M	NA	NA	NA	NA
2019/11/23 09:14:00	AWS2	11.24	20	14.61	22	M	M	M	NA	NA	990.1	NA	NA		M	NA	NA	NA	NA
2019/11/23 09:15:00	AWS2	11.75	23	16.20	21	M	M	M	NA	NA	989.7	NA	NA		M	NA	NA	NA	NA
2019/11/23 09:16:00	AWS2	13.01	23	16.20	26	M	M	M	NA	NA	990.2	NA	NA		M	NA	NA	NA	NA
2019/11/23 09:17:00	AWS2	13.77	22	16.46	24	M	M	M	NA	NA	989.0	NA	NA		M	NA	NA	NA	NA
2019/11/23 09:18:00	AWS2	12.85	18	16.46	24	M	M	M	NA	NA	990.4	NA	NA		M	NA	NA	NA	NA
2019/11/23 09:19:00	AWS2	12.47	16	17.03	13	M	M	M	NA	NA	989.8	NA	NA		M	NA	NA	NA	NA
2019/11/23 09:20:00	AWS2	13.94	22	17.03	13	M	M	M	NA	NA	989.9	NA	NA		M	NA	NA	NA	NA
2019/11/23 09:21:00	AWS2	14.85	24	17.75	19	M	M	M	NA	NA	989.6	NA	NA		M	NA	NA	NA	NA
2019/11/23 09:22:00	AWS2	15.83	23	18.52	17	M	M	M	NA	NA	989.2	NA	NA		M	NA	NA	NA	NA
2019/11/23 09:23:00	AWS2	15.53	24	18.52	17	M	M	M	NA	NA	989.1	NA	NA		M	NA	NA	NA	NA
2019/11/23 09:24:00	AWS2	14.06	25	18.52	17	M	M	M	NA	NA	990.0	NA	NA		M	NA	NA	NA	NA
2019/11/23 09:25:00	AWS2	13.88	19	18.52	17	M	M	M	NA	NA	990.0	NA	NA		M	NA	NA	NA	NA
2019/11/23 09:26:00	AWS2	15.12	20	18.52	17	M	M	M	NA	NA	989.6	NA	NA		M	NA	NA	NA	NA
2019/11/23 09:27:00	AWS2	16.35	24	18.52	17	M	M	M	NA	NA	990.3	NA	NA		M	NA	NA	NA	NA
2019/11/23 09:28:00	AWS2	15.35	21	18.52	17	M	M	M	NA	NA	990.1	NA	NA		M	NA	NA	NA	NA
2019/11/23 09:29:00	AWS2	13.69	23	18.52	17	M	M	M	NA	NA	990.7	NA	NA		M	NA	NA	NA	NA
2019/11/23 09:30:00	AWS2	14.12	23	18.52	17	M	M	M	NA	NA	990.6	NA	NA		M	NA	NA	NA	NA
2019/11/23 09:31:00	AWS2	15.41	21	18.52	17	M	M	M	NA	NA	989.5	NA	NA		M	NA	NA	NA	NA
2019/11/23 09:32:00	AWS2	15.77	18	18.31	29	M	M	M	NA	NA	991.3	NA	NA		M	NA	NA	NA	NA
2019/11/23 09:33:00	AWS2	15.06	17	18.31	29	M	M	M	NA	NA	990.2	NA	NA		M	NA	NA	NA	NA
2019/11/23 09:34:00	AWS2	14.32	17	18.31	29	M	M	M	NA	NA	990.2	NA	NA		M	NA	NA	NA	NA
2019/11/23 09:35:00	AWS2	15.07	16	18.31	29	M	M	M	NA	NA	989.9	NA	NA		M	NA	NA	NA	NA
2019/11/23 09:36:00	AWS2	14.89	15	18.01	19	M	M	M	NA	NA	990.9	NA	NA		M	NA	NA	NA	NA
2019/11/23 09:37:00	AWS2	13.13	12	18.01	19	M	M	M	NA	NA	991.1	NA	NA		M	NA	NA	NA	NA
2019/11/23 09:38:00	AWS2	12.68	12	18.01	19	M	M	M	NA	NA	991.0	NA	NA		M	NA	NA	NA	NA
2019/11/23 09:39:00	AWS2	13.20	11	18.01	19	M	M	M	NA	NA	990.5	NA	NA		M	NA	NA	NA	NA
2019/11/23 09:40:00	AWS2	13.68	10	18.01	19	M	M	M	NA	NA	990.6	NA	NA		M	NA	NA	NA	NA
2019/11/23 09:41:00	AWS2	13.79	7	17.75	8	M	M	M	NA	NA	990.6	NA	NA		M	NA	NA	NA	NA
2019/11/23 09:42:00	AWS2	13.32	5	17.18	17	M	M	M	NA	NA	990.3	NA	NA		M	NA	NA	NA	NA
2019/11/23 09:43:00	AWS2	13.45	4	17.18	17	M	M	M	NA	NA	990.9	NA	NA		M	NA	NA	NA	NA
2019/11/23 09:44:00	AWS2	13.75	6	17.18	17	M	M	M	NA	NA	990.8	NA	NA		M	NA	NA	NA	NA
2019/11/23 09:45:00	AWS2	13.91	7	17.18	17	M	M	M	NA	NA	991.2	NA	NA		M	NA	NA	NA	NA
2019/11/23 09:46:00	AWS2	14.00	7	15.64	1	M	M	M	NA	NA	990.8	NA	NA		M	NA	NA	NA	NA
2019/11/23 09:47:00	AWS2	14.14	2	15.64	1	M	M	M	NA	NA	989.7	NA	NA		M	NA	NA	NA	NA
2019/11/23 09:48:00	AWS2	13.99	3	15.64	1	M	M	M	NA	NA	991.4	NA	NA		M	NA	NA	NA	NA
2019/11/23 09:49:00	AWS2	13.87	7	16.05	3	M	M	M	NA	NA	990.6	NA	NA		M	NA	NA	NA	NA
2019/11/23 09:50:00	AWS2	15.13	8	17.44	8	M	M	M	NA	NA	990.5	NA	NA		M	NA	NA	NA	NA
2019/11/23 09:51:00	AWS2	15.77	9	17.44	8	M	M	M	NA	NA	990.7	NA	NA		M	NA	NA	NA	NA
2019/11/23 09:52:00	AWS2	14.98	8	17.44	8	M	M	M	NA	NA	990.5	NA	NA		M	NA	NA	NA	NA
2019/11/23 09:53:00	AWS2	14.95	11	17.44	8	M	M	M	NA	NA	990.7	NA	NA		M	NA	NA	NA	NA
2019/11/23 09:54:00	AWS2	15.21	11	17.44	8	M	M	M	NA	NA	989.9	NA	NA		M	NA	NA	NA	NA
2019/11/23 09:55:00	AWS2	15.18	10	17.44	8	M	M	M	NA	NA	989.8	NA	NA		M	NA	NA	NA	NA
2019/11/23 09:56:00	AWS2	15.39	12	18.06	15	M	M	M	NA	NA	990.1	NA	NA		M	NA	NA	NA	NA
2019/11/23 09:57:00	AWS2	15.71	12	18.06	15	M	M	M	NA	NA	989.6	NA	NA		M	NA	NA	NA	NA
2019/11/23 09:58:00	AWS2	15.44	12	18.06	15	M	M	M	NA	NA	990.3	NA	NA		M	NA	NA	NA	NA
2019/11/23 09:59:00	AWS2	14.63	13	18.06	15	M	M	M	NA	NA	990.8	NA	NA		M	NA	NA	NA	NA
2019/11/23 10:00:00	AWS2	14.46	13	18.06	15	M	M	M	NA	NA	990.4	NA	NA		M	NA	NA	NA	NA
2019/11/23 10:01:00	AWS2	14.51	10	18.06	15	M	M	M	NA	NA	990.4	NA	NA		M	NA	NA	NA	NA
2019/11/23 10:02:00	AWS2	14.00	9	18.06	15	M	M	M	NA	NA	990.5	NA	NA		M	NA	NA	NA	NA
2019/11/23 10:03:00	AWS2	14.66	12	18.06	15	M	M	M	NA	NA	989.4	NA	NA		M	NA	NA	NA	NA
2019/11/23 10:04:00	AWS2	15.12	11	18.06	15	M	M	M	NA	NA	990.4	NA	NA		M	NA	NA	NA	NA
2019/11/23 10:05:00	AWS2	14.53	11	18.06	15	M	M	M	NA	NA	990.5	NA	NA		M	NA	NA	NA	NA
2019/11/23 10:06:00	AWS2	13.90	13	18.06	15	M	M	M	NA	NA	990.8	NA	NA		M	NA	NA	NA	NA
2019/11/23 10:07:00	AWS2	13.57	13	16.93	19	M	M	M	NA	NA	990.5	NA	NA		M	NA	NA	NA	NA
2019/11/23 10:08:00	AWS2	13.76	13	16.93	19	M	M	M	NA	NA	990.7	NA	NA		M	NA	NA	NA	NA
2019/11/23 10:09:00	AWS2	14.10	11	16.93	19	M	M	M	NA	NA	990.1	NA	NA		M	NA	NA	NA	NA
2019/11/23 10:10:00	AWS2	14.50	12	16.93	19	M	M	M	NA	NA	989.7	NA	NA		M	NA	NA	NA	NA
2019/11/23 10:11:00	AWS2	14.04	11	16.93	19	M	M	M	NA	NA	990.5	NA	NA		M	NA	NA	NA	NA
2019/11/23 10:12:00	AWS2	13.45	9	16.93	19	M	M	M	NA	NA	990.2	NA	NA		M	NA	NA	NA	NA
2019/11/23 10:13:00	AWS2	14.06	7	16.36	5	M	M	M	NA	NA	990.1	NA	NA		M	NA	NA	NA	NA
2019/11/23 10:14:00	AWS2	14.56	3	16.41	14	M	M	M	NA	NA	990.5	NA	NA		M	NA	NA	NA	NA
2019/11/23 10:15:00	AWS2	14.28	1	16.41	14	M	M	M	NA	NA	990.5	NA	NA		M	NA	NA	NA	NA
2019/11/23 10:16:00	AWS2	14.43	357	16.41	14	M	M	M	NA	NA	990.5	NA	NA		M	NA	NA	NA	NA
2019/11/23 10:17:00	AWS2	15.47	358	18.47	17	M	M	M	NA	NA	990.1	NA	NA		M	NA	NA	NA	NA
2019/11/23 10:18:00	AWS2	16.85	8	19.29	3	M	M	M	NA	NA	989.5	NA	NA		M	NA	NA	NA	NA
2019/11/23 10:19:00	AWS2	18.11	8	20.06	6	M	M	M	NA	NA	989.2	NA	NA		M	NA	NA	NA	NA
2019/11/23 10:20:00	AWS2	19.00	10	20.27	19	M	M	M	NA	NA	989.1	NA	NA		M	NA	NA	NA	NA
2019/11/23 10:21:00	AWS2	18.95	9	22.58	4	M	M	M	NA	NA	989.8	NA	NA		M	NA	NA	NA	NA
2019/11/23 10:22:00	AWS2	18.25	9	22.58	4	M	M	M	NA	NA	989.5	NA	NA		M	NA	NA	NA	NA
2019/11/23 10:23:00	AWS2	18.30	11	22.58	4	M	M	M	NA	NA	990.4	NA	NA		M	NA	NA	NA	NA
2019/11/23 10:24:00	AWS2	18.40	10	22.58	4	M	M	M	NA	NA	989.1	NA	NA		M	NA	NA	NA	NA
2019/11/23 10:25:00	AWS2	18.03	8	22.58	4	M	M	M	NA	NA	989.5	NA	NA		M	NA	NA	NA	NA
2019/11/23 10:26:00	AWS2	18.17	11	22.58	4	M	M	M	NA	NA	989.9	NA	NA		M	NA	NA	NA	NA
2019/11/23 10:27:00	AWS2	18.33	9	22.58	4	M	M	M	NA	NA	989.7	NA	NA		M	NA	NA	NA	NA
2019/11/23 10:28:00	AWS2	18.23	9	22.58	4	M	M	M	NA	NA	989.1	NA	NA		M	NA	NA	NA	NA
2019/11/23 10:29:00	AWS2	18.27	10	22.58	4	M	M	M	NA	NA	989.2	NA	NA		M	NA	NA	NA	NA
2019/11/23 10:30:00	AWS2	17.46	9	22.58	4	M	M	M	NA	NA	989.9	NA	NA		M	NA	NA	NA	NA
2019/11/23 10:31:00	AWS2	17.23	13	22.07	7	M	M	M	NA	NA	990.2	NA	NA		M	NA	NA	NA	NA
2019/11/23 10:32:00	AWS2	18.19	14	22.07	7	M	M	M	NA	NA	988.6	NA	NA		M	NA	NA	NA	NA
2019/11/23 10:33:00	AWS2	18.65	13	22.07	7	M	M	M	NA	NA	989.6	NA	NA		M	NA	NA	NA	NA
2019/11/23 10:34:00	AWS2	18.40	12	22.07	7	M	M	M	NA	NA	990.1	NA	NA		M	NA	NA	NA	NA
2019/11/23 10:35:00	AWS2	17.18	14	22.07	7	M	M	M	NA	NA	989.5	NA	NA		M	NA	NA	NA	NA
2019/11/23 10:36:00	AWS2	16.84	12	22.07	7	M	M	M	NA	NA	990.3	NA	NA		M	NA	NA	NA	NA
2019/11/23 10:37:00	AWS2	17.23	9	21.04	6	M	M	M	NA	NA	990.4	NA	NA		M	NA	NA	NA	NA
2019/11/23 10:38:00	AWS2	17.28	9	21.04	6	M	M	M	NA	NA	989.9	NA	NA		M	NA	NA	NA	NA
2019/11/23 10:39:00	AWS2	17.30	13	21.04	6	M	M	M	NA	NA	990.1	NA	NA		M	NA	NA	NA	NA
2019/11/23 10:40:00	AWS2	17.12	15	21.04	6	M	M	M	NA	NA	990.0	NA	NA		M	NA	NA	NA	NA
2019/11/23 10:41:00	AWS2	17.18	12	21.04	6	M	M	M	NA	NA	989.8	NA	NA		M	NA	NA	NA	NA
2019/11/23 10:42:00	AWS2	17.90	14	21.04	6	M	M	M	NA	NA	989.9	NA	NA		M	NA	NA	NA	NA
2019/11/23 10:43:00	AWS2	18.02	15	21.04	6	M	M	M	NA	NA	989.9	NA	NA		M	NA	NA	NA	NA
2019/11/23 10:44:00	AWS2	17.96	13	20.83	27	M	M	M	NA	NA	989.4	NA	NA		M	NA	NA	NA	NA
2019/11/23 10:45:00	AWS2	18.53	11	20.83	27	M	M	M	NA	NA	989.7	NA	NA		M	NA	NA	NA	NA
2019/11/23 10:46:00	AWS2	18.39	12	20.83	27	M	M	M	NA	NA	989.8	NA	NA		M	NA	NA	NA	NA
2019/11/23 10:47:00	AWS2	17.05	11	20.83	27	M	M	M	NA	NA	990.2	NA	NA		M	NA	NA	NA	NA
2019/11/23 10:48:00	AWS2	16.81	9	20.83	27	M	M	M	NA	NA	988.9	NA	NA		M	NA	NA	NA	NA
2019/11/23 10:49:00	AWS2	17.93	13	21.40	7	M	M	M	NA	NA	989.9	NA	NA		M	NA	NA	NA	NA
2019/11/23 10:50:00	AWS2	18.45	13	21.40	7	M	M	M	NA	NA	989.9	NA	NA		M	NA	NA	NA	NA
2019/11/23 10:51:00	AWS2	17.48	8	21.40	7	M	M	M	NA	NA	990.2	NA	NA		M	NA	NA	NA	NA
2019/11/23 10:52:00	AWS2	16.32	8	21.40	7	M	M	M	NA	NA	989.6	NA	NA		M	NA	NA	NA	NA
2019/11/23 10:53:00	AWS2	16.58	11	21.40	7	M	M	M	NA	NA	990.4	NA	NA		M	NA	NA	NA	NA
2019/11/23 10:54:01	AWS2	16.98	11	21.40	7	M	M	M	NA	NA	989.4	NA	NA		M	NA	NA	NA	NA
2019/11/23 10:55:00	AWS2	17.38	8	21.40	7	M	M	M	NA	NA	990.0	NA	NA		M	NA	NA	NA	NA
2019/11/23 10:56:00	AWS2	17.96	9	21.40	7	M	M	M	NA	NA	989.3	NA	NA		M	NA	NA	NA	NA
2019/11/23 10:57:00	AWS2	18.13	10	21.92	11	M	M	M	NA	NA	989.4	NA	NA		M	NA	NA	NA	NA
2019/11/23 10:58:00	AWS2	17.51	10	21.92	11	M	M	M	NA	NA	990.1	NA	NA		M	NA	NA	NA	NA
2019/11/23 10:59:00	AWS2	16.87	12	21.92	11	M	M	M	NA	NA	989.6	NA	NA		M	NA	NA	NA	NA
2019/11/23 11:00:00	AWS2	16.53	12	21.92	11	M	M	M	NA	NA	990.7	NA	NA		M	NA	NA	NA	NA
2019/11/23 11:01:00	AWS2	16.53	11	21.92	11	M	M	M	NA	NA	990.4	NA	NA		M	NA	NA	NA	NA
2019/11/23 11:02:00	AWS2	16.54	10	21.92	11	M	M	M	NA	NA	990.1	NA	NA		M	NA	NA	NA	NA
2019/11/23 11:03:00	AWS2	15.50	11	21.92	11	M	M	M	NA	NA	990.3	NA	NA		M	NA	NA	NA	NA
2019/11/23 11:04:00	AWS2	15.30	14	21.92	11	M	M	M	NA	NA	990.0	NA	NA		M	NA	NA	NA	NA
2019/11/23 11:05:00	AWS2	16.17	14	21.92	11	M	M	M	NA	NA	989.7	NA	NA		M	NA	NA	NA	NA
2019/11/23 11:06:00	AWS2	16.06	13	21.92	11	M	M	M	NA	NA	990.7	NA	NA		M	NA	NA	NA	NA
2019/11/23 11:07:00	AWS2	16.55	14	18.88	12	M	M	M	NA	NA	990.2	NA	NA		M	NA	NA	NA	NA
2019/11/23 11:08:00	AWS2	15.90	17	18.88	12	M	M	M	NA	NA	990.6	NA	NA		M	NA	NA	NA	NA
2019/11/23 11:09:00	AWS2	14.98	16	18.88	12	M	M	M	NA	NA	990.2	NA	NA		M	NA	NA	NA	NA
2019/11/23 11:10:00	AWS2	15.63	14	18.88	12	M	M	M	NA	NA	990.7	NA	NA		M	NA	NA	NA	NA
2019/11/23 11:11:00	AWS2	15.76	14	18.47	7	M	M	M	NA	NA	990.1	NA	NA		M	NA	NA	NA	NA
2019/11/23 11:12:00	AWS2	15.36	11	18.26	12	M	M	M	NA	NA	990.2	NA	NA		M	NA	NA	NA	NA
2019/11/23 11:13:00	AWS2	14.85	11	18.26	12	M	M	M	NA	NA	990.1	NA	NA		M	NA	NA	NA	NA
2019/11/23 11:14:00	AWS2	14.68	13	18.26	12	M	M	M	NA	NA	990.3	NA	NA		M	NA	NA	NA	NA
2019/11/23 11:15:00	AWS2	13.98	13	18.26	12	M	M	M	NA	NA	990.6	NA	NA		M	NA	NA	NA	NA
2019/11/23 11:16:00	AWS2	13.90	14	18.26	12	M	M	M	NA	NA	990.8	NA	NA		M	NA	NA	NA	NA
2019/11/23 11:17:00	AWS2	14.71	15	18.01	11	M	M	M	NA	NA	990.5	NA	NA		M	NA	NA	NA	NA
2019/11/23 11:18:00	AWS2	15.18	13	18.01	11	M	M	M	NA	NA	990.0	NA	NA		M	NA	NA	NA	NA
2019/11/23 11:19:00	AWS2	15.73	11	18.01	11	M	M	M	NA	NA	990.2	NA	NA		M	NA	NA	NA	NA
2019/11/23 11:20:00	AWS2	15.55	11	18.01	11	M	M	M	NA	NA	989.1	NA	NA		M	NA	NA	NA	NA
2019/11/23 11:21:00	AWS2	15.38	12	17.29	17	M	M	M	NA	NA	990.4	NA	NA		M	NA	NA	NA	NA
2019/11/23 11:22:00	AWS2	15.97	13	18.11	22	M	M	M	NA	NA	990.3	NA	NA		M	NA	NA	NA	NA
2019/11/23 11:23:00	AWS2	15.81	12	18.11	22	M	M	M	NA	NA	990.5	NA	NA		M	NA	NA	NA	NA
2019/11/23 11:24:00	AWS2	14.91	10	18.11	22	M	M	M	NA	NA	990.7	NA	NA		M	NA	NA	NA	NA
2019/11/23 11:25:00	AWS2	14.82	12	18.11	22	M	M	M	NA	NA	990.3	NA	NA		M	NA	NA	NA	NA
2019/11/23 11:26:00	AWS2	15.01	16	18.11	22	M	M	M	NA	NA	990.2	NA	NA		M	NA	NA	NA	NA
2019/11/23 11:27:00	AWS2	15.26	15	18.11	22	M	M	M	NA	NA	990.1	NA	NA		M	NA	NA	NA	NA
2019/11/23 11:28:00	AWS2	16.10	14	18.11	22	M	M	M	NA	NA	989.7	NA	NA		M	NA	NA	NA	NA
2019/11/23 11:29:00	AWS2	16.09	11	18.11	22	M	M	M	NA	NA	990.7	NA	NA		M	NA	NA	NA	NA
2019/11/23 11:30:00	AWS2	15.58	12	18.11	22	M	M	M	NA	NA	990.2	NA	NA		M	NA	NA	NA	NA
2019/11/23 11:31:00	AWS2	14.61	10	18.11	22	M	M	M	NA	NA	990.5	NA	NA		M	NA	NA	NA	NA
2019/11/23 11:32:00	AWS2	14.69	9	17.65	6	M	M	M	NA	NA	990.1	NA	NA		M	NA	NA	NA	NA
2019/11/23 11:33:00	AWS2	15.41	9	17.65	6	M	M	M	NA	NA	990.4	NA	NA		M	NA	NA	NA	NA
2019/11/23 11:34:00	AWS2	15.88	6	18.11	10	M	M	M	NA	NA	990.3	NA	NA		M	NA	NA	NA	NA
2019/11/23 11:35:00	AWS2	15.06	358	18.11	10	M	M	M	NA	NA	990.9	NA	NA		M	NA	NA	NA	NA
2019/11/23 11:36:00	AWS2	12.94	355	18.11	10	M	M	M	NA	NA	991.4	NA	NA		M	NA	NA	NA	NA
2019/11/23 11:37:00	AWS2	13.22	1	18.11	10	M	M	M	NA	NA	990.7	NA	NA		M	NA	NA	NA	NA
2019/11/23 11:38:00	AWS2	14.47	11	18.11	10	M	M	M	NA	NA	989.8	NA	NA		M	NA	NA	NA	NA
2019/11/23 11:39:01	AWS2	14.51	16	18.11	10	M	M	M	NA	NA	990.7	NA	NA		M	NA	NA	NA	NA
2019/11/23 11:40:00	AWS2	15.37	13	18.11	10	M	M	M	NA	NA	989.8	NA	NA		M	NA	NA	NA	NA
2019/11/23 11:41:00	AWS2	15.59	8	18.11	10	M	M	M	NA	NA	990.0	NA	NA		M	NA	NA	NA	NA
2019/11/23 11:42:00	AWS2	14.81	7	18.11	10	M	M	M	NA	NA	990.2	NA	NA		M	NA	NA	NA	NA
2019/11/23 11:43:00	AWS2	15.08	10	18.11	10	M	M	M	NA	NA	989.7	NA	NA		M	NA	NA	NA	NA
2019/11/23 11:44:00	AWS2	15.61	13	20.06	28	M	M	M	NA	NA	989.5	NA	NA		M	NA	NA	NA	NA
2019/11/23 11:45:00	AWS2	16.88	13	20.06	28	M	M	M	NA	NA	990.3	NA	NA		M	NA	NA	NA	NA
2019/11/23 11:46:00	AWS2	18.75	11	21.71	6	M	M	M	NA	NA	988.4	NA	NA		M	NA	NA	NA	NA
2019/11/23 11:47:00	AWS2	18.59	13	21.71	6	M	M	M	NA	NA	989.6	NA	NA		M	NA	NA	NA	NA
2019/11/23 11:48:00	AWS2	18.17	12	21.71	6	M	M	M	NA	NA	988.9	NA	NA		M	NA	NA	NA	NA
2019/11/23 11:49:00	AWS2	18.12	9	21.71	6	M	M	M	NA	NA	989.6	NA	NA		M	NA	NA	NA	NA
2019/11/23 11:50:00	AWS2	16.60	10	21.71	6	M	M	M	NA	NA	989.8	NA	NA		M	NA	NA	NA	NA
2019/11/23 11:51:00	AWS2	16.84	12	21.71	6	M	M	M	NA	NA	989.3	NA	NA		M	NA	NA	NA	NA
2019/11/23 11:52:00	AWS2	16.40	11	21.71	6	M	M	M	NA	NA	990.4	NA	NA		M	NA	NA	NA	NA
2019/11/23 11:53:00	AWS2	13.95	8	21.71	6	M	M	M	NA	NA	990.4	NA	NA		M	NA	NA	NA	NA
2019/11/23 11:54:00	AWS2	14.36	8	21.71	6	M	M	M	NA	NA	990.5	NA	NA		M	NA	NA	NA	NA
2019/11/23 11:55:00	AWS2	17.23	10	21.71	6	M	M	M	NA	NA	989.6	NA	NA		M	NA	NA	NA	NA
2019/11/23 11:56:00	AWS2	17.93	12	20.78	19	M	M	M	NA	NA	990.1	NA	NA		M	NA	NA	NA	NA
2019/11/23 11:57:00	AWS2	15.95	9	20.78	19	M	M	M	NA	NA	991.0	NA	NA		M	NA	NA	NA	NA
2019/11/23 11:58:00	AWS2	14.59	4	20.17	14	M	M	M	NA	NA	990.5	NA	NA		M	NA	NA	NA	NA
2019/11/23 11:59:00	AWS2	14.10	4	20.17	14	M	M	M	NA	NA	991.4	NA	NA		M	NA	NA	NA	NA
2019/11/23 12:00:00	AWS2	14.31	8	20.17	14	M	M	M	NA	NA	991.4	NA	NA		M	NA	NA	NA	NA
2019/11/23 12:01:00	AWS2	15.75	11	20.17	14	M	M	M	NA	NA	990.6	NA	NA		M	NA	NA	NA	NA
2019/11/23 12:02:00	AWS2	16.71	14	20.17	14	M	M	M	NA	NA	990.3	NA	NA		M	NA	NA	NA	NA
2019/11/23 12:03:00	AWS2	16.91	14	20.17	14	M	M	M	NA	NA	989.7	NA	NA		M	NA	NA	NA	NA
2019/11/23 12:04:00	AWS2	17.49	13	20.58	15	M	M	M	NA	NA	989.9	NA	NA		M	NA	NA	NA	NA
2019/11/23 12:05:00	AWS2	17.27	12	20.58	15	M	M	M	NA	NA	990.6	NA	NA		M	NA	NA	NA	NA
2019/11/23 12:06:00	AWS2	16.88	13	20.58	15	M	M	M	NA	NA	990.8	NA	NA		M	NA	NA	NA	NA
2019/11/23 12:07:00	AWS2	15.89	11	20.58	15	M	M	M	NA	NA	991.2	NA	NA		M	NA	NA	NA	NA
2019/11/23 12:08:00	AWS2	15.06	6	20.58	15	M	M	M	NA	NA	990.6	NA	NA		M	NA	NA	NA	NA
2019/11/23 12:09:00	AWS2	15.10	7	20.58	15	M	M	M	NA	NA	990.4	NA	NA		M	NA	NA	NA	NA
2019/11/23 12:10:00	AWS2	14.51	13	20.58	15	M	M	M	NA	NA	991.3	NA	NA		M	NA	NA	NA	NA
2019/11/23 12:11:00	AWS2	13.71	13	20.58	15	M	M	M	NA	NA	990.9	NA	NA		M	NA	NA	NA	NA
2019/11/23 12:12:00	AWS2	13.75	11	20.58	15	M	M	M	NA	NA	991.7	NA	NA		M	NA	NA	NA	NA
2019/11/23 12:13:00	AWS2	14.90	11	20.58	15	M	M	M	NA	NA	991.5	NA	NA		M	NA	NA	NA	NA
2019/11/23 12:14:00	AWS2	15.64	11	18.57	16	M	M	M	NA	NA	991.4	NA	NA		M	NA	NA	NA	NA
2019/11/23 12:15:00	AWS2	15.68	11	18.57	16	M	M	M	NA	NA	991.4	NA	NA		M	NA	NA	NA	NA
2019/11/23 12:16:00	AWS2	15.70	11	18.57	16	M	M	M	NA	NA	991.4	NA	NA		M	NA	NA	NA	NA
2019/11/23 12:17:00	AWS2	15.09	10	18.57	16	M	M	M	NA	NA	991.5	NA	NA		M	NA	NA	NA	NA
2019/11/23 12:18:00	AWS2	14.48	8	18.57	16	M	M	M	NA	NA	991.5	NA	NA		M	NA	NA	NA	NA
2019/11/23 12:19:00	AWS2	14.10	9	18.57	16	M	M	M	NA	NA	991.4	NA	NA		M	NA	NA	NA	NA
2019/11/23 12:20:00	AWS2	13.53	9	18.57	16	M	M	M	NA	NA	991.4	NA	NA		M	NA	NA	NA	NA
2019/11/23 12:21:00	AWS2	13.97	10	18.57	16	M	M	M	NA	NA	991.4	NA	NA		M	NA	NA	NA	NA
2019/11/23 12:22:00	AWS2	15.08	10	18.57	16	M	M	M	NA	NA	990.6	NA	NA		M	NA	NA	NA	NA
2019/11/23 12:23:00	AWS2	15.13	12	18.57	16	M	M	M	NA	NA	991.0	NA	NA		M	NA	NA	NA	NA
2019/11/23 12:24:00	AWS2	15.45	16	18.52	17	M	M	M	NA	NA	991.0	NA	NA		M	NA	NA	NA	NA
2019/11/23 12:25:00	AWS2	15.88	14	18.52	17	M	M	M	NA	NA	991.1	NA	NA		M	NA	NA	NA	NA
2019/11/23 12:26:00	AWS2	15.47	10	18.52	17	M	M	M	NA	NA	991.3	NA	NA		M	NA	NA	NA	NA
2019/11/23 12:27:00	AWS2	15.55	9	18.52	17	M	M	M	NA	NA	991.5	NA	NA		M	NA	NA	NA	NA
2019/11/23 12:28:00	AWS2	14.89	3	18.52	17	M	M	M	NA	NA	991.9	NA	NA		M	NA	NA	NA	NA
2019/11/23 12:29:00	AWS2	13.62	354	18.52	17	M	M	M	NA	NA	991.9	NA	NA		M	NA	NA	NA	NA
2019/11/23 12:30:00	AWS2	12.73	354	18.52	17	M	M	M	NA	NA	992.0	NA	NA		M	NA	NA	NA	NA
2019/11/23 12:31:00	AWS2	11.90	358	18.52	17	M	M	M	NA	NA	992.0	NA	NA		M	NA	NA	NA	NA
2019/11/23 12:32:00	AWS2	11.21	354	18.52	17	M	M	M	NA	NA	992.2	NA	NA		M	NA	NA	NA	NA
2019/11/23 12:33:00	AWS2	11.06	356	18.52	17	M	M	M	NA	NA	992.2	NA	NA		M	NA	NA	NA	NA
2019/11/23 12:34:00	AWS2	10.93	2	17.90	14	M	M	M	NA	NA	992.0	NA	NA		M	NA	NA	NA	NA
2019/11/23 12:35:00	AWS2	12.02	7	17.90	14	M	M	M	NA	NA	991.6	NA	NA		M	NA	NA	NA	NA
2019/11/23 12:36:00	AWS2	14.41	9	16.87	15	M	M	M	NA	NA	991.2	NA	NA		M	NA	NA	NA	NA
2019/11/23 12:37:00	AWS2	16.05	8	17.44	7	M	M	M	NA	NA	991.3	NA	NA		M	NA	NA	NA	NA
2019/11/23 12:38:00	AWS2	16.90	10	18.67	5	M	M	M	NA	NA	990.6	NA	NA		M	NA	NA	NA	NA
2019/11/23 12:39:00	AWS2	17.37	9	19.81	7	M	M	M	NA	NA	990.7	NA	NA		M	NA	NA	NA	NA
2019/11/23 12:40:00	AWS2	16.70	7	19.81	7	M	M	M	NA	NA	990.9	NA	NA		M	NA	NA	NA	NA
2019/11/23 12:41:00	AWS2	15.29	11	19.81	7	M	M	M	NA	NA	991.4	NA	NA		M	NA	NA	NA	NA
2019/11/23 12:42:00	AWS2	14.88	12	19.81	7	M	M	M	NA	NA	991.4	NA	NA		M	NA	NA	NA	NA
2019/11/23 12:43:00	AWS2	14.90	10	19.81	7	M	M	M	NA	NA	991.5	NA	NA		M	NA	NA	NA	NA
2019/11/23 12:44:00	AWS2	15.29	11	19.81	7	M	M	M	NA	NA	990.8	NA	NA		M	NA	NA	NA	NA
2019/11/23 12:45:00	AWS2	15.46	12	19.81	7	M	M	M	NA	NA	991.0	NA	NA		M	NA	NA	NA	NA
2019/11/23 12:46:00	AWS2	15.21	13	19.81	7	M	M	M	NA	NA	990.2	NA	NA		M	NA	NA	NA	NA
2019/11/23 12:47:00	AWS2	16.02	14	19.81	7	M	M	M	NA	NA	989.9	NA	NA		M	NA	NA	NA	NA
2019/11/23 12:48:00	AWS2	16.01	13	19.81	7	M	M	M	NA	NA	990.1	NA	NA		M	NA	NA	NA	NA
2019/11/23 12:49:00	AWS2	15.91	10	18.31	12	M	M	M	NA	NA	990.2	NA	NA		M	NA	NA	NA	NA
2019/11/23 12:50:00	AWS2	15.88	9	18.31	12	M	M	M	NA	NA	990.5	NA	NA		M	NA	NA	NA	NA
2019/11/23 12:51:00	AWS2	14.67	10	18.31	12	M	M	M	NA	NA	990.2	NA	NA		M	NA	NA	NA	NA
2019/11/23 12:52:00	AWS2	14.42	9	18.31	12	M	M	M	NA	NA	990.0	NA	NA		M	NA	NA	NA	NA
2019/11/23 12:53:00	AWS2	15.36	11	18.31	12	M	M	M	NA	NA	989.8	NA	NA		M	NA	NA	NA	NA
2019/11/23 12:54:00	AWS2	15.68	10	18.31	12	M	M	M	NA	NA	990.1	NA	NA		M	NA	NA	NA	NA
2019/11/23 12:55:00	AWS2	15.32	9	18.31	12	M	M	M	NA	NA	990.6	NA	NA		M	NA	NA	NA	NA
2019/11/23 12:56:00	AWS2	14.72	8	18.31	12	M	M	M	NA	NA	990.2	NA	NA		M	NA	NA	NA	NA
2019/11/23 12:57:00	AWS2	15.20	8	17.85	18	M	M	M	NA	NA	990.7	NA	NA		M	NA	NA	NA	NA
2019/11/23 12:58:00	AWS2	16.18	12	17.85	18	M	M	M	NA	NA	990.0	NA	NA		M	NA	NA	NA	NA
2019/11/23 12:59:00	AWS2	16.63	14	18.57	19	M	M	M	NA	NA	989.5	NA	NA		M	NA	NA	NA	NA
2019/11/23 13:00:00	AWS2	16.66	12	18.57	19	M	M	M	NA	NA	990.0	NA	NA		M	NA	NA	NA	NA
2019/11/23 13:01:00	AWS2	15.89	7	18.57	19	M	M	M	NA	NA	990.9	NA	NA		M	NA	NA	NA	NA
2019/11/23 13:02:00	AWS2	14.87	1	18.57	19	M	M	M	NA	NA	990.3	NA	NA		M	NA	NA	NA	NA
2019/11/23 13:03:00	AWS2	14.17	357	18.57	19	M	M	M	NA	NA	991.0	NA	NA		M	NA	NA	NA	NA
2019/11/23 13:04:00	AWS2	13.26	358	18.57	19	M	M	M	NA	NA	991.1	NA	NA		M	NA	NA	NA	NA
2019/11/23 13:05:00	AWS2	13.35	4	18.57	19	M	M	M	NA	NA	990.2	NA	NA		M	NA	NA	NA	NA
2019/11/23 13:06:00	AWS2	14.90	9	18.57	19	M	M	M	NA	NA	990.0	NA	NA		M	NA	NA	NA	NA
2019/11/23 13:07:00	AWS2	15.83	10	18.57	19	M	M	M	NA	NA	989.6	NA	NA		M	NA	NA	NA	NA
2019/11/23 13:08:00	AWS2	15.65	11	18.57	19	M	M	M	NA	NA	990.6	NA	NA		M	NA	NA	NA	NA
2019/11/23 13:09:00	AWS2	15.72	11	18.31	17	M	M	M	NA	NA	989.9	NA	NA		M	NA	NA	NA	NA
2019/11/23 13:10:00	AWS2	16.68	12	18.57	11	M	M	M	NA	NA	989.5	NA	NA		M	NA	NA	NA	NA
2019/11/23 13:11:00	AWS2	17.51	11	20.37	9	M	M	M	NA	NA	989.6	NA	NA		M	NA	NA	NA	NA
2019/11/23 13:12:00	AWS2	16.80	10	20.37	9	M	M	M	NA	NA	990.2	NA	NA		M	NA	NA	NA	NA
2019/11/23 13:13:00	AWS2	15.88	10	20.37	9	M	M	M	NA	NA	990.1	NA	NA		M	NA	NA	NA	NA
2019/11/23 13:14:00	AWS2	16.61	9	20.37	9	M	M	M	NA	NA	989.3	NA	NA		M	NA	NA	NA	NA
2019/11/23 13:15:00	AWS2	15.92	7	20.37	9	M	M	M	NA	NA	990.6	NA	NA		M	NA	NA	NA	NA
2019/11/23 13:16:00	AWS2	14.77	8	20.37	9	M	M	M	NA	NA	990.1	NA	NA		M	NA	NA	NA	NA
2019/11/23 13:17:00	AWS2	14.58	5	20.37	9	M	M	M	NA	NA	991.0	NA	NA		M	NA	NA	NA	NA
2019/11/23 13:18:00	AWS2	14.85	3	20.37	9	M	M	M	NA	NA	989.5	NA	NA		M	NA	NA	NA	NA
2019/11/23 13:19:00	AWS2	14.86	3	20.37	9	M	M	M	NA	NA	990.8	NA	NA		M	NA	NA	NA	NA
2019/11/23 13:20:00	AWS2	14.39	5	20.37	9	M	M	M	NA	NA	990.1	NA	NA		M	NA	NA	NA	NA
2019/11/23 13:21:00	AWS2	14.26	4	18.37	4	M	M	M	NA	NA	990.2	NA	NA		M	NA	NA	NA	NA
2019/11/23 13:22:00	AWS2	15.09	4	19.55	11	M	M	M	NA	NA	989.8	NA	NA		M	NA	NA	NA	NA
2019/11/23 13:23:00	AWS2	15.76	8	19.55	11	M	M	M	NA	NA	989.8	NA	NA		M	NA	NA	NA	NA
2019/11/23 13:24:00	AWS2	15.01	8	19.55	11	M	M	M	NA	NA	990.3	NA	NA		M	NA	NA	NA	NA
2019/11/23 13:25:00	AWS2	14.56	5	19.55	11	M	M	M	NA	NA	989.9	NA	NA		M	NA	NA	NA	NA
2019/11/23 13:26:00	AWS2	14.98	6	19.55	11	M	M	M	NA	NA	990.2	NA	NA		M	NA	NA	NA	NA
2019/11/23 13:27:00	AWS2	15.71	7	19.55	11	M	M	M	NA	NA	989.9	NA	NA		M	NA	NA	NA	NA
2019/11/23 13:28:00	AWS2	15.77	4	19.55	11	M	M	M	NA	NA	990.7	NA	NA		M	NA	NA	NA	NA
2019/11/23 13:29:00	AWS2	15.51	6	19.55	11	M	M	M	NA	NA	990.0	NA	NA		M	NA	NA	NA	NA
2019/11/23 13:30:00	AWS2	16.41	9	19.55	11	M	M	M	NA	NA	989.4	NA	NA		M	NA	NA	NA	NA
2019/11/23 13:31:00	AWS2	16.83	12	19.55	11	M	M	M	NA	NA	989.4	NA	NA		M	NA	NA	NA	NA
2019/11/23 13:32:00	AWS2	16.68	12	19.19	4	M	M	M	NA	NA	990.2	NA	NA		M	NA	NA	NA	NA
2019/11/23 13:33:00	AWS2	16.66	9	19.19	4	M	M	M	NA	NA	989.5	NA	NA		M	NA	NA	NA	NA
2019/11/23 13:34:00	AWS2	16.15	8	19.19	4	M	M	M	NA	NA	989.8	NA	NA		M	NA	NA	NA	NA
2019/11/23 13:35:00	AWS2	15.70	7	19.19	4	M	M	M	NA	NA	990.4	NA	NA		M	NA	NA	NA	NA
2019/11/23 13:36:00	AWS2	16.56	6	19.19	4	M	M	M	NA	NA	990.1	NA	NA		M	NA	NA	NA	NA
2019/11/23 13:37:00	AWS2	16.87	10	19.19	4	M	M	M	NA	NA	990.4	NA	NA		M	NA	NA	NA	NA
2019/11/23 13:38:00	AWS2	16.18	10	19.19	4	M	M	M	NA	NA	989.4	NA	NA		M	NA	NA	NA	NA
2019/11/23 13:39:01	AWS2	17.36	8	19.86	9	M	M	M	NA	NA	989.0	NA	NA		M	NA	NA	NA	NA
2019/11/23 13:40:00	AWS2	17.83	11	19.86	9	M	M	M	NA	NA	989.8	NA	NA		M	NA	NA	NA	NA
2019/11/23 13:41:00	AWS2	17.68	10	21.04	12	M	M	M	NA	NA	989.7	NA	NA		M	NA	NA	NA	NA
2019/11/23 13:42:00	AWS2	17.50	8	21.04	12	M	M	M	NA	NA	989.8	NA	NA		M	NA	NA	NA	NA
2019/11/23 13:43:00	AWS2	16.83	7	21.04	12	M	M	M	NA	NA	990.2	NA	NA		M	NA	NA	NA	NA
2019/11/23 13:44:00	AWS2	15.78	9	21.04	12	M	M	M	NA	NA	989.7	NA	NA		M	NA	NA	NA	NA
2019/11/23 13:45:00	AWS2	15.48	10	21.04	12	M	M	M	NA	NA	989.9	NA	NA		M	NA	NA	NA	NA
2019/11/23 13:46:00	AWS2	16.65	7	21.04	12	M	M	M	NA	NA	989.5	NA	NA		M	NA	NA	NA	NA
2019/11/23 13:47:00	AWS2	16.87	6	21.04	12	M	M	M	NA	NA	989.7	NA	NA		M	NA	NA	NA	NA
2019/11/23 13:48:00	AWS2	16.57	10	21.04	12	M	M	M	NA	NA	989.4	NA	NA		M	NA	NA	NA	NA
2019/11/23 13:49:00	AWS2	15.78	6	21.04	12	M	M	M	NA	NA	990.3	NA	NA		M	NA	NA	NA	NA
2019/11/23 13:50:00	AWS2	15.08	4	21.04	12	M	M	M	NA	NA	990.8	NA	NA		M	NA	NA	NA	NA
2019/11/23 13:51:00	AWS2	15.20	8	19.45	3	M	M	M	NA	NA	990.1	NA	NA		M	NA	NA	NA	NA
2019/11/23 13:52:00	AWS2	15.57	7	18.98	3	M	M	M	NA	NA	989.5	NA	NA		M	NA	NA	NA	NA
2019/11/23 13:53:00	AWS2	15.59	6	18.73	7	M	M	M	NA	NA	989.7	NA	NA		M	NA	NA	NA	NA
2019/11/23 13:54:00	AWS2	15.26	6	18.73	7	M	M	M	NA	NA	989.3	NA	NA		M	NA	NA	NA	NA
2019/11/23 13:55:00	AWS2	15.39	5	18.73	7	M	M	M	NA	NA	990.4	NA	NA		M	NA	NA	NA	NA
2019/11/23 13:56:00	AWS2	15.83	3	18.73	7	M	M	M	NA	NA	990.0	NA	NA		M	NA	NA	NA	NA
2019/11/23 13:57:00	AWS2	16.82	3	19.91	1	M	M	M	NA	NA	989.8	NA	NA		M	NA	NA	NA	NA
2019/11/23 13:58:00	AWS2	17.18	5	19.91	1	M	M	M	NA	NA	990.4	NA	NA		M	NA	NA	NA	NA
2019/11/23 13:59:00	AWS2	16.15	5	19.91	1	M	M	M	NA	NA	990.6	NA	NA		M	NA	NA	NA	NA
2019/11/23 14:00:00	AWS2	15.13	5	19.91	1	M	M	M	NA	NA	990.2	NA	NA		M	NA	NA	NA	NA
2019/11/23 14:01:00	AWS2	16.03	8	19.91	1	M	M	M	NA	NA	990.5	NA	NA		M	NA	NA	NA	NA
2019/11/23 14:02:00	AWS2	17.30	11	19.91	1	M	M	M	NA	NA	990.0	NA	NA		M	NA	NA	NA	NA
2019/11/23 14:03:00	AWS2	16.83	9	19.91	1	M	M	M	NA	NA	989.7	NA	NA		M	NA	NA	NA	NA
2019/11/23 14:04:00	AWS2	15.89	8	19.91	1	M	M	M	NA	NA	989.9	NA	NA		M	NA	NA	NA	NA
2019/11/23 14:05:00	AWS2	15.58	7	19.91	1	M	M	M	NA	NA	990.0	NA	NA		M	NA	NA	NA	NA
2019/11/23 14:06:00	AWS2	15.66	8	19.91	1	M	M	M	NA	NA	990.3	NA	NA		M	NA	NA	NA	NA
2019/11/23 14:07:00	AWS2	15.64	9	18.98	181	M	M	M	NA	NA	990.4	NA	NA		M	NA	NA	NA	NA
2019/11/23 14:08:00	AWS2	15.79	8	18.98	181	M	M	M	NA	NA	990.1	NA	NA		M	NA	NA	NA	NA
2019/11/23 14:09:00	AWS2	15.41	10	18.98	181	M	M	M	NA	NA	989.9	NA	NA		M	NA	NA	NA	NA
2019/11/23 14:10:00	AWS2	15.60	10	18.98	181	M	M	M	NA	NA	990.1	NA	NA		M	NA	NA	NA	NA
2019/11/23 14:11:00	AWS2	16.36	9	18.67	6	M	M	M	NA	NA	990.0	NA	NA		M	NA	NA	NA	NA
2019/11/23 14:12:00	AWS2	16.47	7	18.42	22	M	M	M	NA	NA	990.2	NA	NA		M	NA	NA	NA	NA
2019/11/23 14:13:00	AWS2	15.70	9	18.42	22	M	M	M	NA	NA	990.1	NA	NA		M	NA	NA	NA	NA
2019/11/23 14:14:00	AWS2	15.66	12	18.42	22	M	M	M	NA	NA	989.7	NA	NA		M	NA	NA	NA	NA
2019/11/23 14:15:00	AWS2	16.56	12	18.88	12	M	M	M	NA	NA	990.8	NA	NA		M	NA	NA	NA	NA
2019/11/23 14:16:00	AWS2	17.12	11	18.93	5	M	M	M	NA	NA	989.4	NA	NA		M	NA	NA	NA	NA
2019/11/23 14:17:00	AWS2	17.29	12	19.24	8	M	M	M	NA	NA	989.8	NA	NA		M	NA	NA	NA	NA
2019/11/23 14:18:00	AWS2	17.06	13	19.24	8	M	M	M	NA	NA	990.2	NA	NA		M	NA	NA	NA	NA
2019/11/23 14:19:00	AWS2	17.15	10	19.24	8	M	M	M	NA	NA	990.2	NA	NA		M	NA	NA	NA	NA
2019/11/23 14:20:00	AWS2	16.63	10	19.24	8	M	M	M	NA	NA	990.4	NA	NA		M	NA	NA	NA	NA
2019/11/23 14:21:00	AWS2	16.50	10	19.24	8	M	M	M	NA	NA	990.5	NA	NA		M	NA	NA	NA	NA
2019/11/23 14:22:00	AWS2	16.55	9	19.24	8	M	M	M	NA	NA	990.7	NA	NA		M	NA	NA	NA	NA
2019/11/23 14:23:00	AWS2	16.24	9	19.24	8	M	M	M	NA	NA	990.7	NA	NA		M	NA	NA	NA	NA
2019/11/23 14:24:00	AWS2	16.48	11	19.24	8	M	M	M	NA	NA	990.1	NA	NA		M	NA	NA	NA	NA
2019/11/23 14:25:00	AWS2	16.34	11	19.24	8	M	M	M	NA	NA	990.7	NA	NA		M	NA	NA	NA	NA
2019/11/23 14:26:00	AWS2	16.10	10	19.24	8	M	M	M	NA	NA	990.7	NA	NA		M	NA	NA	NA	NA
2019/11/23 14:27:00	AWS2	15.61	8	18.83	11	M	M	M	NA	NA	991.0	NA	NA		M	NA	NA	NA	NA
2019/11/23 14:28:00	AWS2	14.98	6	18.31	12	M	M	M	NA	NA	991.1	NA	NA		M	NA	NA	NA	NA
2019/11/23 14:29:00	AWS2	15.05	8	18.31	12	M	M	M	NA	NA	991.2	NA	NA		M	NA	NA	NA	NA
2019/11/23 14:30:00	AWS2	15.10	8	18.31	12	M	M	M	NA	NA	991.6	NA	NA		M	NA	NA	NA	NA
2019/11/23 14:31:00	AWS2	15.04	8	17.95	5	M	M	M	NA	NA	990.8	NA	NA		M	NA	NA	NA	NA
2019/11/23 14:32:00	AWS2	15.25	8	17.95	5	M	M	M	NA	NA	991.6	NA	NA		M	NA	NA	NA	NA
2019/11/23 14:33:00	AWS2	14.83	7	17.95	5	M	M	M	NA	NA	991.4	NA	NA		M	NA	NA	NA	NA
2019/11/23 14:34:00	AWS2	14.08	4	17.75	1	M	M	M	NA	NA	991.4	NA	NA		M	NA	NA	NA	NA
2019/11/23 14:35:00	AWS2	12.97	4	17.44	12	M	M	M	NA	NA	992.0	NA	NA		M	NA	NA	NA	NA
2019/11/23 14:36:00	AWS2	13.45	8	17.85	9	M	M	M	NA	NA	992.4	NA	NA		M	NA	NA	NA	NA
2019/11/23 14:37:00	AWS2	14.88	9	17.85	9	M	M	M	NA	NA	991.8	NA	NA		M	NA	NA	NA	NA
2019/11/23 14:38:00	AWS2	14.61	7	17.85	9	M	M	M	NA	NA	992.2	NA	NA		M	NA	NA	NA	NA
2019/11/23 14:39:00	AWS2	14.01	6	17.85	9	M	M	M	NA	NA	992.1	NA	NA		M	NA	NA	NA	NA
2019/11/23 14:40:00	AWS2	14.71	10	18.31	6	M	M	M	NA	NA	991.6	NA	NA		M	NA	NA	NA	NA
2019/11/23 14:41:00	AWS2	15.46	10	18.31	6	M	M	M	NA	NA	992.1	NA	NA		M	NA	NA	NA	NA
2019/11/23 14:42:00	AWS2	14.99	6	18.31	6	M	M	M	NA	NA	991.5	NA	NA		M	NA	NA	NA	NA
2019/11/23 14:43:00	AWS2	14.97	6	18.31	6	M	M	M	NA	NA	991.8	NA	NA		M	NA	NA	NA	NA
2019/11/23 14:44:01	AWS2	14.74	2	18.31	6	M	M	M	NA	NA	991.9	NA	NA		M	NA	NA	NA	NA
2019/11/23 14:45:00	AWS2	13.86	3	18.31	6	M	M	M	NA	NA	992.0	NA	NA		M	NA	NA	NA	NA
2019/11/23 14:46:00	AWS2	14.33	6	18.31	6	M	M	M	NA	NA	991.3	NA	NA		M	NA	NA	NA	NA
2019/11/23 14:47:00	AWS2	15.72	4	18.31	6	M	M	M	NA	NA	991.4	NA	NA		M	NA	NA	NA	NA
2019/11/23 14:48:00	AWS2	15.55	6	18.31	6	M	M	M	NA	NA	991.9	NA	NA		M	NA	NA	NA	NA
2019/11/23 14:49:00	AWS2	15.03	9	18.31	6	M	M	M	NA	NA	991.7	NA	NA		M	NA	NA	NA	NA
2019/11/23 14:50:00	AWS2	14.50	8	17.65	9	M	M	M	NA	NA	991.5	NA	NA		M	NA	NA	NA	NA
2019/11/23 14:51:00	AWS2	14.66	8	17.65	9	M	M	M	NA	NA	991.9	NA	NA		M	NA	NA	NA	NA
2019/11/23 14:52:00	AWS2	15.56	9	17.65	9	M	M	M	NA	NA	991.7	NA	NA		M	NA	NA	NA	NA
2019/11/23 14:53:00	AWS2	16.17	7	17.85	5	M	M	M	NA	NA	991.1	NA	NA		M	NA	NA	NA	NA
2019/11/23 14:54:00	AWS2	16.18	7	17.85	5	M	M	M	NA	NA	991.5	NA	NA		M	NA	NA	NA	NA
2019/11/23 14:55:00	AWS2	15.89	8	17.85	5	M	M	M	NA	NA	991.0	NA	NA		M	NA	NA	NA	NA
2019/11/23 14:56:00	AWS2	16.01	8	17.85	5	M	M	M	NA	NA	991.6	NA	NA		M	NA	NA	NA	NA
2019/11/23 14:57:00	AWS2	15.94	8	17.85	5	M	M	M	NA	NA	991.9	NA	NA		M	NA	NA	NA	NA
2019/11/23 14:58:00	AWS2	15.52	8	17.85	5	M	M	M	NA	NA	991.6	NA	NA		M	NA	NA	NA	NA
2019/11/23 14:59:00	AWS2	15.98	7	17.85	5	M	M	M	NA	NA	991.9	NA	NA		M	NA	NA	NA	NA
2019/11/23 15:00:00	AWS2	16.58	6	18.78	3	M	M	M	NA	NA	991.5	NA	NA		M	NA	NA	NA	NA
2019/11/23 15:01:00	AWS2	16.17	6	18.78	3	M	M	M	NA	NA	992.1	NA	NA		M	NA	NA	NA	NA
2019/11/23 15:02:00	AWS2	15.29	6	18.78	3	M	M	M	NA	NA	992.1	NA	NA		M	NA	NA	NA	NA
2019/11/23 15:03:00	AWS2	14.64	11	18.78	3	M	M	M	NA	NA	992.1	NA	NA		M	NA	NA	NA	NA
2019/11/23 15:04:00	AWS2	15.03	11	18.78	3	M	M	M	NA	NA	992.4	NA	NA		M	NA	NA	NA	NA
2019/11/23 15:05:00	AWS2	15.30	7	18.78	3	M	M	M	NA	NA	992.1	NA	NA		M	NA	NA	NA	NA
2019/11/23 15:06:00	AWS2	15.39	7	18.78	3	M	M	M	NA	NA	992.1	NA	NA		M	NA	NA	NA	NA
2019/11/23 15:07:00	AWS2	15.12	6	18.78	3	M	M	M	NA	NA	992.2	NA	NA		M	NA	NA	NA	NA
2019/11/23 15:08:00	AWS2	15.12	5	18.78	3	M	M	M	NA	NA	992.0	NA	NA		M	NA	NA	NA	NA
2019/11/23 15:09:00	AWS2	15.05	6	18.78	3	M	M	M	NA	NA	992.8	NA	NA		M	NA	NA	NA	NA
2019/11/23 15:10:00	AWS2	14.87	6	17.29	9	M	M	M	NA	NA	992.2	NA	NA		M	NA	NA	NA	NA
2019/11/23 15:11:00	AWS2	14.77	6	17.29	9	M	M	M	NA	NA	992.3	NA	NA		M	NA	NA	NA	NA
2019/11/23 15:12:00	AWS2	15.10	6	17.29	9	M	M	M	NA	NA	992.2	NA	NA		M	NA	NA	NA	NA
2019/11/23 15:13:00	AWS2	14.80	5	17.29	9	M	M	M	NA	NA	992.8	NA	NA		M	NA	NA	NA	NA
2019/11/23 15:14:00	AWS2	14.60	5	17.18	9	M	M	M	NA	NA	992.4	NA	NA		M	NA	NA	NA	NA
2019/11/23 15:15:00	AWS2	15.80	6	17.44	13	M	M	M	NA	NA	991.8	NA	NA		M	NA	NA	NA	NA
2019/11/23 15:16:00	AWS2	15.92	5	17.44	13	M	M	M	NA	NA	992.6	NA	NA		M	NA	NA	NA	NA
2019/11/23 15:17:00	AWS2	15.00	5	17.44	13	M	M	M	NA	NA	992.5	NA	NA		M	NA	NA	NA	NA
2019/11/23 15:18:00	AWS2	14.66	6	17.44	13	M	M	M	NA	NA	992.5	NA	NA		M	NA	NA	NA	NA
2019/11/23 15:19:00	AWS2	14.83	6	17.44	13	M	M	M	NA	NA	992.9	NA	NA		M	NA	NA	NA	NA
2019/11/23 15:20:00	AWS2	15.41	6	17.44	13	M	M	M	NA	NA	992.7	NA	NA		M	NA	NA	NA	NA
2019/11/23 15:21:00	AWS2	15.40	8	17.44	13	M	M	M	NA	NA	992.6	NA	NA		M	NA	NA	NA	NA
2019/11/23 15:22:00	AWS2	14.19	11	17.44	13	M	M	M	NA	NA	993.1	NA	NA		M	NA	NA	NA	NA
2019/11/23 15:23:00	AWS2	13.10	9	17.44	13	M	M	M	NA	NA	993.2	NA	NA		M	NA	NA	NA	NA
2019/11/23 15:24:00	AWS2	13.47	9	17.44	13	M	M	M	NA	NA	993.0	NA	NA		M	NA	NA	NA	NA
2019/11/23 15:25:00	AWS2	14.44	13	16.93	8	M	M	M	NA	NA	992.9	NA	NA		M	NA	NA	NA	NA
2019/11/23 15:26:00	AWS2	14.68	12	16.93	8	M	M	M	NA	NA	993.0	NA	NA		M	NA	NA	NA	NA
2019/11/23 15:27:00	AWS2	14.57	10	16.93	8	M	M	M	NA	NA	993.0	NA	NA		M	NA	NA	NA	NA
2019/11/23 15:28:00	AWS2	14.41	9	16.93	8	M	M	M	NA	NA	993.1	NA	NA		M	NA	NA	NA	NA
2019/11/23 15:29:00	AWS2	14.82	8	16.93	8	M	M	M	NA	NA	992.9	NA	NA		M	NA	NA	NA	NA
2019/11/23 15:30:00	AWS2	14.59	9	16.62	1	M	M	M	NA	NA	993.0	NA	NA		M	NA	NA	NA	NA
2019/11/23 15:31:00	AWS2	13.31	9	16.62	1	M	M	M	NA	NA	993.3	NA	NA		M	NA	NA	NA	NA
2019/11/23 15:32:00	AWS2	12.46	9	16.62	1	M	M	M	NA	NA	993.9	NA	NA		M	NA	NA	NA	NA
2019/11/23 15:33:00	AWS2	12.55	8	16.62	1	M	M	M	NA	NA	993.6	NA	NA		M	NA	NA	NA	NA
2019/11/23 15:34:00	AWS2	12.87	7	16.62	1	M	M	M	NA	NA	993.5	NA	NA		M	NA	NA	NA	NA
2019/11/23 15:35:00	AWS2	13.04	8	16.62	1	M	M	M	NA	NA	993.2	NA	NA		M	NA	NA	NA	NA
2019/11/23 15:36:00	AWS2	13.26	8	16.62	1	M	M	M	NA	NA	993.3	NA	NA		M	NA	NA	NA	NA
2019/11/23 15:37:00	AWS2	12.79	5	16.62	1	M	M	M	NA	NA	993.8	NA	NA		M	NA	NA	NA	NA
2019/11/23 15:38:00	AWS2	12.41	6	16.62	1	M	M	M	NA	NA	993.4	NA	NA		M	NA	NA	NA	NA
2019/11/23 15:39:00	AWS2	13.04	8	15.18	19	M	M	M	NA	NA	993.2	NA	NA		M	NA	NA	NA	NA
2019/11/23 15:40:00	AWS2	13.70	7	14.97	9	M	M	M	NA	NA	993.3	NA	NA		M	NA	NA	NA	NA
2019/11/23 15:41:00	AWS2	13.71	6	14.97	344	M	M	M	NA	NA	993.3	NA	NA		M	NA	NA	NA	NA
2019/11/23 15:42:00	AWS2	13.48	5	14.97	344	M	M	M	NA	NA	993.0	NA	NA		M	NA	NA	NA	NA
2019/11/23 15:43:00	AWS2	13.47	6	14.97	344	M	M	M	NA	NA	992.7	NA	NA		M	NA	NA	NA	NA
2019/11/23 15:44:00	AWS2	13.57	7	14.97	344	M	M	M	NA	NA	993.3	NA	NA		M	NA	NA	NA	NA
2019/11/23 15:45:00	AWS2	13.12	8	14.97	344	M	M	M	NA	NA	993.1	NA	NA		M	NA	NA	NA	NA
2019/11/23 15:46:00	AWS2	12.84	7	14.97	344	M	M	M	NA	NA	993.7	NA	NA		M	NA	NA	NA	NA
2019/11/23 15:47:00	AWS2	13.20	6	16.93	3	M	M	M	NA	NA	993.8	NA	NA		M	NA	NA	NA	NA
2019/11/23 15:48:00	AWS2	14.87	6	17.80	8	M	M	M	NA	NA	992.8	NA	NA		M	NA	NA	NA	NA
2019/11/23 15:49:00	AWS2	16.36	5	17.80	8	M	M	M	NA	NA	992.5	NA	NA		M	NA	NA	NA	NA
2019/11/23 15:50:00	AWS2	16.13	8	18.83	2	M	M	M	NA	NA	992.8	NA	NA		M	NA	NA	NA	NA
2019/11/23 15:51:00	AWS2	16.00	11	18.83	2	M	M	M	NA	NA	992.9	NA	NA		M	NA	NA	NA	NA
2019/11/23 15:52:00	AWS2	16.02	8	18.83	2	M	M	M	NA	NA	992.5	NA	NA		M	NA	NA	NA	NA
2019/11/23 15:53:00	AWS2	15.41	7	18.83	2	M	M	M	NA	NA	993.0	NA	NA		M	NA	NA	NA	NA
2019/11/23 15:54:00	AWS2	14.56	7	18.83	2	M	M	M	NA	NA	993.2	NA	NA		M	NA	NA	NA	NA
2019/11/23 15:55:00	AWS2	14.10	6	18.83	2	M	M	M	NA	NA	993.2	NA	NA		M	NA	NA	NA	NA
2019/11/23 15:56:00	AWS2	14.61	5	18.83	2	M	M	M	NA	NA	993.1	NA	NA		M	NA	NA	NA	NA
2019/11/23 15:57:00	AWS2	15.10	6	18.83	2	M	M	M	NA	NA	993.0	NA	NA		M	NA	NA	NA	NA
2019/11/23 15:58:00	AWS2	14.75	9	18.83	2	M	M	M	NA	NA	993.1	NA	NA		M	NA	NA	NA	NA
2019/11/23 15:59:00	AWS2	15.02	10	18.83	2	M	M	M	NA	NA	993.0	NA	NA		M	NA	NA	NA	NA
2019/11/23 16:00:00	AWS2	15.49	8	17.34	5	M	M	M	NA	NA	993.3	NA	NA		M	NA	NA	NA	NA
2019/11/23 16:01:00	AWS2	15.39	7	17.34	5	M	M	M	NA	NA	993.2	NA	NA		M	NA	NA	NA	NA
2019/11/23 16:02:00	AWS2	14.72	7	17.34	5	M	M	M	NA	NA	993.4	NA	NA		M	NA	NA	NA	NA
2019/11/23 16:03:00	AWS2	14.74	9	17.34	5	M	M	M	NA	NA	993.1	NA	NA		M	NA	NA	NA	NA
2019/11/23 16:04:00	AWS2	15.60	7	17.34	4	M	M	M	NA	NA	992.8	NA	NA		M	NA	NA	NA	NA
2019/11/23 16:05:00	AWS2	15.87	4	17.34	4	M	M	M	NA	NA	992.9	NA	NA		M	NA	NA	NA	NA
2019/11/23 16:06:00	AWS2	15.09	5	17.34	13	M	M	M	NA	NA	993.0	NA	NA		M	NA	NA	NA	NA
2019/11/23 16:07:00	AWS2	14.67	5	17.34	13	M	M	M	NA	NA	993.1	NA	NA		M	NA	NA	NA	NA
2019/11/23 16:08:00	AWS2	14.97	8	17.34	13	M	M	M	NA	NA	993.8	NA	NA		M	NA	NA	NA	NA
2019/11/23 16:09:00	AWS2	14.54	9	17.34	13	M	M	M	NA	NA	993.3	NA	NA		M	NA	NA	NA	NA
2019/11/23 16:10:00	AWS2	13.96	9	17.34	13	M	M	M	NA	NA	993.3	NA	NA		M	NA	NA	NA	NA
2019/11/23 16:11:00	AWS2	13.96	8	17.34	13	M	M	M	NA	NA	993.4	NA	NA		M	NA	NA	NA	NA
2019/11/23 16:12:00	AWS2	14.12	9	17.34	13	M	M	M	NA	NA	993.3	NA	NA		M	NA	NA	NA	NA
2019/11/23 16:13:00	AWS2	14.17	7	17.34	13	M	M	M	NA	NA	993.6	NA	NA		M	NA	NA	NA	NA
2019/11/23 16:14:00	AWS2	13.90	6	17.34	13	M	M	M	NA	NA	993.6	NA	NA		M	NA	NA	NA	NA
2019/11/23 16:15:00	AWS2	13.18	6	17.34	13	M	M	M	NA	NA	994.0	NA	NA		M	NA	NA	NA	NA
2019/11/23 16:16:00	AWS2	13.12	5	16.98	15	M	M	M	NA	NA	993.5	NA	NA		M	NA	NA	NA	NA
2019/11/23 16:17:00	AWS2	13.64	10	15.84	2	M	M	M	NA	NA	993.8	NA	NA		M	NA	NA	NA	NA
2019/11/23 16:18:00	AWS2	13.89	10	15.84	2	M	M	M	NA	NA	993.6	NA	NA		M	NA	NA	NA	NA
2019/11/23 16:19:00	AWS2	14.96	5	17.13	7	M	M	M	NA	NA	993.5	NA	NA		M	NA	NA	NA	NA
2019/11/23 16:20:00	AWS2	15.57	4	17.13	7	M	M	M	NA	NA	993.3	NA	NA		M	NA	NA	NA	NA
2019/11/23 16:21:00	AWS2	14.77	4	17.13	7	M	M	M	NA	NA	993.3	NA	NA		M	NA	NA	NA	NA
2019/11/23 16:22:00	AWS2	14.34	3	17.13	7	M	M	M	NA	NA	993.2	NA	NA		M	NA	NA	NA	NA
2019/11/23 16:23:00	AWS2	13.98	1	17.13	7	M	M	M	NA	NA	993.9	NA	NA		M	NA	NA	NA	NA
2019/11/23 16:24:00	AWS2	13.12	0	17.13	7	M	M	M	NA	NA	993.8	NA	NA		M	NA	NA	NA	NA
2019/11/23 16:25:00	AWS2	12.77	4	17.13	7	M	M	M	NA	NA	993.7	NA	NA		M	NA	NA	NA	NA
2019/11/23 16:26:00	AWS2	13.60	6	17.13	7	M	M	M	NA	NA	993.2	NA	NA		M	NA	NA	NA	NA
2019/11/23 16:27:00	AWS2	13.53	2	17.13	7	M	M	M	NA	NA	993.7	NA	NA		M	NA	NA	NA	NA
2019/11/23 16:28:00	AWS2	13.54	2	17.13	7	M	M	M	NA	NA	993.1	NA	NA		M	NA	NA	NA	NA
2019/11/23 16:29:00	AWS2	14.19	4	16.87	2	M	M	M	NA	NA	993.0	NA	NA		M	NA	NA	NA	NA
2019/11/23 16:30:00	AWS2	13.68	7	16.87	2	M	M	M	NA	NA	993.4	NA	NA		M	NA	NA	NA	NA
2019/11/23 16:31:00	AWS2	14.22	4	17.85	1	M	M	M	NA	NA	993.1	NA	NA		M	NA	NA	NA	NA
2019/11/23 16:32:00	AWS2	15.25	2	17.85	1	M	M	M	NA	NA	992.9	NA	NA		M	NA	NA	NA	NA
2019/11/23 16:33:00	AWS2	15.47	6	17.85	10	M	M	M	NA	NA	992.8	NA	NA		M	NA	NA	NA	NA
2019/11/23 16:34:00	AWS2	15.40	5	17.85	10	M	M	M	NA	NA	993.0	NA	NA		M	NA	NA	NA	NA
2019/11/23 16:35:00	AWS2	14.75	3	17.85	10	M	M	M	NA	NA	993.0	NA	NA		M	NA	NA	NA	NA
2019/11/23 16:36:00	AWS2	13.68	359	17.85	10	M	M	M	NA	NA	993.0	NA	NA		M	NA	NA	NA	NA
2019/11/23 16:37:00	AWS2	14.19	360	17.85	10	M	M	M	NA	NA	993.4	NA	NA		M	NA	NA	NA	NA
2019/11/23 16:38:00	AWS2	15.64	360	18.01	8	M	M	M	NA	NA	993.1	NA	NA		M	NA	NA	NA	NA
2019/11/23 16:39:00	AWS2	16.23	0	18.21	5	M	M	M	NA	NA	993.0	NA	NA		M	NA	NA	NA	NA
2019/11/23 16:40:00	AWS2	15.37	6	18.21	5	M	M	M	NA	NA	993.0	NA	NA		M	NA	NA	NA	NA
2019/11/23 16:41:00	AWS2	14.57	8	18.21	5	M	M	M	NA	NA	993.9	NA	NA		M	NA	NA	NA	NA
2019/11/23 16:42:00	AWS2	15.07	6	18.21	5	M	M	M	NA	NA	993.2	NA	NA		M	NA	NA	NA	NA
2019/11/23 16:43:00	AWS2	15.28	4	18.21	5	M	M	M	NA	NA	993.4	NA	NA		M	NA	NA	NA	NA
2019/11/23 16:44:00	AWS2	14.88	5	18.21	5	M	M	M	NA	NA	994.1	NA	NA		M	NA	NA	NA	NA
2019/11/23 16:45:00	AWS2	14.58	3	18.21	5	M	M	M	NA	NA	993.4	NA	NA		M	NA	NA	NA	NA
2019/11/23 16:46:00	AWS2	14.76	360	18.21	5	M	M	M	NA	NA	993.4	NA	NA		M	NA	NA	NA	NA
2019/11/23 16:47:00	AWS2	14.84	2	18.21	5	M	M	M	NA	NA	993.4	NA	NA		M	NA	NA	NA	NA
2019/11/23 16:48:00	AWS2	14.29	6	18.21	5	M	M	M	NA	NA	994.2	NA	NA		M	NA	NA	NA	NA
2019/11/23 16:49:00	AWS2	13.31	5	16.98	2	M	M	M	NA	NA	993.5	NA	NA		M	NA	NA	NA	NA
2019/11/23 16:50:00	AWS2	13.10	3	16.98	2	M	M	M	NA	NA	994.2	NA	NA		M	NA	NA	NA	NA
2019/11/23 16:51:00	AWS2	13.59	4	16.98	2	M	M	M	NA	NA	993.5	NA	NA		M	NA	NA	NA	NA
2019/11/23 16:52:00	AWS2	13.62	5	16.98	2	M	M	M	NA	NA	993.5	NA	NA		M	NA	NA	NA	NA
2019/11/23 16:53:00	AWS2	13.31	5	16.05	8	M	M	M	NA	NA	993.7	NA	NA		M	NA	NA	NA	NA
2019/11/23 16:54:00	AWS2	14.15	2	16.20	1	M	M	M	NA	NA	993.2	NA	NA		M	NA	NA	NA	NA
2019/11/23 16:55:00	AWS2	14.64	2	16.20	1	M	M	M	NA	NA	993.2	NA	NA		M	NA	NA	NA	NA
2019/11/23 16:56:00	AWS2	14.17	6	16.20	1	M	M	M	NA	NA	993.1	NA	NA		M	NA	NA	NA	NA
2019/11/23 16:57:00	AWS2	14.07	5	16.20	1	M	M	M	NA	NA	993.1	NA	NA		M	NA	NA	NA	NA
2019/11/23 16:58:00	AWS2	14.57	3	16.67	1	M	M	M	NA	NA	993.5	NA	NA		M	NA	NA	NA	NA
2019/11/23 16:59:00	AWS2	14.91	5	16.93	1	M	M	M	NA	NA	993.7	NA	NA		M	NA	NA	NA	NA
2019/11/23 17:00:00	AWS2	14.56	4	16.93	1	M	M	M	NA	NA	994.1	NA	NA		M	NA	NA	NA	NA
2019/11/23 17:01:00	AWS2	14.26	2	16.93	1	M	M	M	NA	NA	993.6	NA	NA		M	NA	NA	NA	NA
2019/11/23 17:02:00	AWS2	13.61	359	16.93	1	M	M	M	NA	NA	992.7	NA	NA		M	NA	NA	NA	NA
2019/11/23 17:03:00	AWS2	12.77	354	16.93	1	M	M	M	NA	NA	993.6	NA	NA		M	NA	NA	NA	NA
2019/11/23 17:04:00	AWS2	12.05	356	16.93	1	M	M	M	NA	NA	993.5	NA	NA		M	NA	NA	NA	NA
2019/11/23 17:05:00	AWS2	11.85	358	16.93	1	M	M	M	NA	NA	993.4	NA	NA		M	NA	NA	NA	NA
2019/11/23 17:06:00	AWS2	12.75	356	16.93	1	M	M	M	NA	NA	992.8	NA	NA		M	NA	NA	NA	NA
2019/11/23 17:07:00	AWS2	13.26	359	16.93	1	M	M	M	NA	NA	993.1	NA	NA		M	NA	NA	NA	NA
2019/11/23 17:08:00	AWS2	12.76	356	16.93	1	M	M	M	NA	NA	993.7	NA	NA		M	NA	NA	NA	NA
2019/11/23 17:09:00	AWS2	12.58	351	16.41	2	M	M	M	NA	NA	994.0	NA	NA		M	NA	NA	NA	NA
2019/11/23 17:10:00	AWS2	11.43	347	15.38	1	M	M	M	NA	NA	994.0	NA	NA		M	NA	NA	NA	NA
2019/11/23 17:11:00	AWS2	9.99	351	14.87	3	M	M	M	NA	NA	994.2	NA	NA		M	NA	NA	NA	NA
2019/11/23 17:12:00	AWS2	9.58	354	14.87	3	M	M	M	NA	NA	993.9	NA	NA		M	NA	NA	NA	NA
2019/11/23 17:13:00	AWS2	9.98	354	14.87	3	M	M	M	NA	NA	993.5	NA	NA		M	NA	NA	NA	NA
2019/11/23 17:14:00	AWS2	10.50	351	14.87	3	M	M	M	NA	NA	995.0	NA	NA		M	NA	NA	NA	NA
2019/11/23 17:15:00	AWS2	10.71	351	14.87	3	M	M	M	NA	NA	992.9	NA	NA		M	NA	NA	NA	NA
2019/11/23 17:16:00	AWS2	12.05	359	14.40	352	M	M	M	NA	NA	993.6	NA	NA		M	NA	NA	NA	NA
2019/11/23 17:17:00	AWS2	12.65	358	14.40	352	M	M	M	NA	NA	993.2	NA	NA		M	NA	NA	NA	NA
2019/11/23 17:18:00	AWS2	12.84	358	14.92	347	M	M	M	NA	NA	993.5	NA	NA		M	NA	NA	NA	NA
2019/11/23 17:19:00	AWS2	13.17	1	14.92	347	M	M	M	NA	NA	993.4	NA	NA		M	NA	NA	NA	NA
2019/11/23 17:20:00	AWS2	13.14	3	15.23	1	M	M	M	NA	NA	994.0	NA	NA		M	NA	NA	NA	NA
2019/11/23 17:21:00	AWS2	13.81	7	15.23	354	M	M	M	NA	NA	993.2	NA	NA		M	NA	NA	NA	NA
2019/11/23 17:22:00	AWS2	13.74	6	15.23	354	M	M	M	NA	NA	993.4	NA	NA		M	NA	NA	NA	NA
2019/11/23 17:23:00	AWS2	12.80	359	15.54	5	M	M	M	NA	NA	993.7	NA	NA		M	NA	NA	NA	NA
2019/11/23 17:24:00	AWS2	12.15	356	15.54	5	M	M	M	NA	NA	993.6	NA	NA		M	NA	NA	NA	NA
2019/11/23 17:25:00	AWS2	11.99	357	15.54	5	M	M	M	NA	NA	994.1	NA	NA		M	NA	NA	NA	NA
2019/11/23 17:26:00	AWS2	12.44	359	15.54	5	M	M	M	NA	NA	993.5	NA	NA		M	NA	NA	NA	NA
2019/11/23 17:27:00	AWS2	13.12	358	15.54	5	M	M	M	NA	NA	993.9	NA	NA		M	NA	NA	NA	NA
2019/11/23 17:28:00	AWS2	13.12	358	15.54	5	M	M	M	NA	NA	993.6	NA	NA		M	NA	NA	NA	NA
2019/11/23 17:29:00	AWS2	13.21	357	15.54	5	M	M	M	NA	NA	993.6	NA	NA		M	NA	NA	NA	NA
2019/11/23 17:30:00	AWS2	13.92	1	15.84	7	M	M	M	NA	NA	993.6	NA	NA		M	NA	NA	NA	NA
2019/11/23 17:31:00	AWS2	13.63	1	15.84	7	M	M	M	NA	NA	993.7	NA	NA		M	NA	NA	NA	NA
2019/11/23 17:32:00	AWS2	13.13	359	15.84	7	M	M	M	NA	NA	993.7	NA	NA		M	NA	NA	NA	NA
2019/11/23 17:33:00	AWS2	12.02	359	15.84	7	M	M	M	NA	NA	994.5	NA	NA		M	NA	NA	NA	NA
2019/11/23 17:34:00	AWS2	11.81	359	15.84	7	M	M	M	NA	NA	994.2	NA	NA		M	NA	NA	NA	NA
2019/11/23 17:35:00	AWS2	11.93	358	15.84	7	M	M	M	NA	NA	994.2	NA	NA		M	NA	NA	NA	NA
2019/11/23 17:36:00	AWS2	11.32	354	15.84	7	M	M	M	NA	NA	993.9	NA	NA		M	NA	NA	NA	NA
2019/11/23 17:37:00	AWS2	11.09	353	15.84	7	M	M	M	NA	NA	994.2	NA	NA		M	NA	NA	NA	NA
2019/11/23 17:38:00	AWS2	11.47	354	15.84	7	M	M	M	NA	NA	993.9	NA	NA		M	NA	NA	NA	NA
2019/11/23 17:39:00	AWS2	12.68	356	15.84	7	M	M	M	NA	NA	993.2	NA	NA		M	NA	NA	NA	NA
2019/11/23 17:40:00	AWS2	12.37	354	14.61	355	M	M	M	NA	NA	993.6	NA	NA		M	NA	NA	NA	NA
2019/11/23 17:41:00	AWS2	11.61	354	14.61	355	M	M	M	NA	NA	993.9	NA	NA		M	NA	NA	NA	NA
2019/11/23 17:42:00	AWS2	11.96	1	14.61	355	M	M	M	NA	NA	993.5	NA	NA		M	NA	NA	NA	NA
2019/11/23 17:43:00	AWS2	12.67	3	14.61	355	M	M	M	NA	NA	993.9	NA	NA		M	NA	NA	NA	NA
2019/11/23 17:44:00	AWS2	13.27	358	15.74	2	M	M	M	NA	NA	993.2	NA	NA		M	NA	NA	NA	NA
2019/11/23 17:45:00	AWS2	13.17	358	15.74	2	M	M	M	NA	NA	994.3	NA	NA		M	NA	NA	NA	NA
2019/11/23 17:46:00	AWS2	12.32	359	15.74	2	M	M	M	NA	NA	993.7	NA	NA		M	NA	NA	NA	NA
2019/11/23 17:47:00	AWS2	12.33	357	15.74	2	M	M	M	NA	NA	993.3	NA	NA		M	NA	NA	NA	NA
2019/11/23 17:48:00	AWS2	12.71	356	15.74	2	M	M	M	NA	NA	994.3	NA	NA		M	NA	NA	NA	NA
2019/11/23 17:49:00	AWS2	12.62	356	15.74	2	M	M	M	NA	NA	994.2	NA	NA		M	NA	NA	NA	NA
2019/11/23 17:50:00	AWS2	12.31	355	15.74	2	M	M	M	NA	NA	993.8	NA	NA		M	NA	NA	NA	NA
2019/11/23 17:51:00	AWS2	12.43	357	15.74	2	M	M	M	NA	NA	993.4	NA	NA		M	NA	NA	NA	NA
2019/11/23 17:52:00	AWS2	12.21	358	15.74	2	M	M	M	NA	NA	993.7	NA	NA		M	NA	NA	NA	NA
2019/11/23 17:53:00	AWS2	12.20	357	15.74	2	M	M	M	NA	NA	993.6	NA	NA		M	NA	NA	NA	NA
2019/11/23 17:54:00	AWS2	12.14	356	15.54	348	M	M	M	NA	NA	994.5	NA	NA		M	NA	NA	NA	NA
2019/11/23 17:55:00	AWS2	11.97	357	15.54	348	M	M	M	NA	NA	993.9	NA	NA		M	NA	NA	NA	NA
2019/11/23 17:56:00	AWS2	12.06	358	15.54	348	M	M	M	NA	NA	994.1	NA	NA		M	NA	NA	NA	NA
2019/11/23 17:57:00	AWS2	11.48	358	15.54	348	M	M	M	NA	NA	994.2	NA	NA		M	NA	NA	NA	NA
2019/11/23 17:58:00	AWS2	12.47	357	15.43	3	M	M	M	NA	NA	993.7	NA	NA		M	NA	NA	NA	NA
2019/11/23 17:59:00	AWS2	13.85	359	15.48	2	M	M	M	NA	NA	994.2	NA	NA		M	NA	NA	NA	NA
2019/11/23 18:00:00	AWS2	13.51	360	15.48	2	M	M	M	NA	NA	993.9	NA	NA		M	NA	NA	NA	NA
2019/11/23 18:01:00	AWS2	13.41	355	15.48	2	M	M	M	NA	NA	993.2	NA	NA		M	NA	NA	NA	NA
2019/11/23 18:02:00	AWS2	13.55	356	15.48	2	M	M	M	NA	NA	993.9	NA	NA		M	NA	NA	NA	NA
2019/11/23 18:03:00	AWS2	12.55	356	15.48	2	M	M	M	NA	NA	994.4	NA	NA		M	NA	NA	NA	NA
2019/11/23 18:04:00	AWS2	11.94	353	15.48	2	M	M	M	NA	NA	994.6	NA	NA		M	NA	NA	NA	NA
2019/11/23 18:05:00	AWS2	12.20	355	15.48	2	M	M	M	NA	NA	994.0	NA	NA		M	NA	NA	NA	NA
2019/11/23 18:06:00	AWS2	12.67	359	15.48	2	M	M	M	NA	NA	994.5	NA	NA		M	NA	NA	NA	NA
2019/11/23 18:07:00	AWS2	13.23	2	15.48	2	M	M	M	NA	NA	993.7	NA	NA		M	NA	NA	NA	NA
2019/11/23 18:08:00	AWS2	13.03	357	15.48	2	M	M	M	NA	NA	994.2	NA	NA		M	NA	NA	NA	NA
2019/11/23 18:09:00	AWS2	11.98	350	15.07	35	M	M	M	NA	NA	993.8	NA	NA		M	NA	NA	NA	NA
2019/11/23 18:10:00	AWS2	11.34	351	15.07	35	M	M	M	NA	NA	994.6	NA	NA		M	NA	NA	NA	NA
2019/11/23 18:11:00	AWS2	11.65	353	15.95	348	M	M	M	NA	NA	994.3	NA	NA		M	NA	NA	NA	NA
2019/11/23 18:12:00	AWS2	12.06	356	15.95	348	M	M	M	NA	NA	994.6	NA	NA		M	NA	NA	NA	NA
2019/11/23 18:13:00	AWS2	11.69	2	15.95	348	M	M	M	NA	NA	994.3	NA	NA		M	NA	NA	NA	NA
2019/11/23 18:14:00	AWS2	11.45	354	15.95	348	M	M	M	NA	NA	994.5	NA	NA		M	NA	NA	NA	NA
2019/11/23 18:15:00	AWS2	11.43	347	15.95	348	M	M	M	NA	NA	993.7	NA	NA		M	NA	NA	NA	NA
2019/11/23 18:16:00	AWS2	12.15	353	15.95	348	M	M	M	NA	NA	993.9	NA	NA		M	NA	NA	NA	NA
2019/11/23 18:17:00	AWS2	13.90	357	15.95	348	M	M	M	NA	NA	994.4	NA	NA		M	NA	NA	NA	NA
2019/11/23 18:18:00	AWS2	14.00	354	16.41	1	M	M	M	NA	NA	994.2	NA	NA		M	NA	NA	NA	NA
2019/11/23 18:19:00	AWS2	12.92	355	16.41	1	M	M	M	NA	NA	993.6	NA	NA		M	NA	NA	NA	NA
2019/11/23 18:20:00	AWS2	12.71	356	16.41	1	M	M	M	NA	NA	994.1	NA	NA		M	NA	NA	NA	NA
2019/11/23 18:21:00	AWS2	12.66	2	16.41	1	M	M	M	NA	NA	994.1	NA	NA		M	NA	NA	NA	NA
2019/11/23 18:22:00	AWS2	12.32	3	16.41	1	M	M	M	NA	NA	994.4	NA	NA		M	NA	NA	NA	NA
2019/11/23 18:23:00	AWS2	12.61	357	16.41	1	M	M	M	NA	NA	993.9	NA	NA		M	NA	NA	NA	NA
2019/11/23 18:24:00	AWS2	12.61	356	16.41	1	M	M	M	NA	NA	994.7	NA	NA		M	NA	NA	NA	NA
2019/11/23 18:25:00	AWS2	12.35	358	16.41	1	M	M	M	NA	NA	994.6	NA	NA		M	NA	NA	NA	NA
2019/11/23 18:26:00	AWS2	12.40	3	16.41	1	M	M	M	NA	NA	994.6	NA	NA		M	NA	NA	NA	NA
2019/11/23 18:27:00	AWS2	12.08	359	16.41	1	M	M	M	NA	NA	994.5	NA	NA		M	NA	NA	NA	NA
2019/11/23 18:28:00	AWS2	12.18	354	15.48	355	M	M	M	NA	NA	994.6	NA	NA		M	NA	NA	NA	NA
2019/11/23 18:29:00	AWS2	12.42	352	15.48	355	M	M	M	NA	NA	994.3	NA	NA		M	NA	NA	NA	NA
2019/11/23 18:30:00	AWS2	12.14	353	15.48	355	M	M	M	NA	NA	994.3	NA	NA		M	NA	NA	NA	NA
2019/11/23 18:31:00	AWS2	11.66	355	15.48	355	M	M	M	NA	NA	994.8	NA	NA		M	NA	NA	NA	NA
2019/11/23 18:32:00	AWS2	11.66	354	15.48	355	M	M	M	NA	NA	994.6	NA	NA		M	NA	NA	NA	NA
2019/11/23 18:33:00	AWS2	11.95	356	15.48	355	M	M	M	NA	NA	994.7	NA	NA		M	NA	NA	NA	NA
2019/11/23 18:34:00	AWS2	12.99	352	16.62	354	M	M	M	NA	NA	993.9	NA	NA		M	NA	NA	NA	NA
2019/11/23 18:35:00	AWS2	13.77	351	16.62	354	M	M	M	NA	NA	994.5	NA	NA		M	NA	NA	NA	NA
2019/11/23 18:36:00	AWS2	12.78	358	16.62	354	M	M	M	NA	NA	994.6	NA	NA		M	NA	NA	NA	NA
2019/11/23 18:37:00	AWS2	12.61	360	16.62	354	M	M	M	NA	NA	994.7	NA	NA		M	NA	NA	NA	NA
2019/11/23 18:38:00	AWS2	12.88	357	16.62	354	M	M	M	NA	NA	994.5	NA	NA		M	NA	NA	NA	NA
2019/11/23 18:39:00	AWS2	12.13	356	16.62	354	M	M	M	NA	NA	994.5	NA	NA		M	NA	NA	NA	NA
2019/11/23 18:40:00	AWS2	11.46	358	16.62	354	M	M	M	NA	NA	994.8	NA	NA		M	NA	NA	NA	NA
2019/11/23 18:41:00	AWS2	11.86	360	16.62	354	M	M	M	NA	NA	994.7	NA	NA		M	NA	NA	NA	NA
2019/11/23 18:42:00	AWS2	12.28	358	16.62	354	M	M	M	NA	NA	994.7	NA	NA		M	NA	NA	NA	NA
2019/11/23 18:43:00	AWS2	12.51	358	16.62	354	M	M	M	NA	NA	994.8	NA	NA		M	NA	NA	NA	NA
2019/11/23 18:44:00	AWS2	12.92	4	16.15	1	M	M	M	NA	NA	994.5	NA	NA		M	NA	NA	NA	NA
2019/11/23 18:45:00	AWS2	12.16	3	14.97	354	M	M	M	NA	NA	994.4	NA	NA		M	NA	NA	NA	NA
2019/11/23 18:46:00	AWS2	11.25	357	14.97	354	M	M	M	NA	NA	995.2	NA	NA		M	NA	NA	NA	NA
2019/11/23 18:47:00	AWS2	11.82	354	15.02	1	M	M	M	NA	NA	994.9	NA	NA		M	NA	NA	NA	NA
2019/11/23 18:48:00	AWS2	12.38	354	15.02	1	M	M	M	NA	NA	995.1	NA	NA		M	NA	NA	NA	NA
2019/11/23 18:49:00	AWS2	12.24	354	15.02	1	M	M	M	NA	NA	994.3	NA	NA		M	NA	NA	NA	NA
2019/11/23 18:50:00	AWS2	12.59	354	15.02	1	M	M	M	NA	NA	995.1	NA	NA		M	NA	NA	NA	NA
2019/11/23 18:51:00	AWS2	12.86	359	15.02	1	M	M	M	NA	NA	994.9	NA	NA		M	NA	NA	NA	NA
2019/11/23 18:52:00	AWS2	12.86	4	15.02	1	M	M	M	NA	NA	994.6	NA	NA		M	NA	NA	NA	NA
2019/11/23 18:53:00	AWS2	12.77	359	15.02	1	M	M	M	NA	NA	995.0	NA	NA		M	NA	NA	NA	NA
2019/11/23 18:54:00	AWS2	11.96	354	15.02	1	M	M	M	NA	NA	995.2	NA	NA		M	NA	NA	NA	NA
2019/11/23 18:55:00	AWS2	11.35	357	15.02	1	M	M	M	NA	NA	995.2	NA	NA		M	NA	NA	NA	NA
2019/11/23 18:56:00	AWS2	11.60	360	15.02	1	M	M	M	NA	NA	995.4	NA	NA		M	NA	NA	NA	NA
2019/11/23 18:57:00	AWS2	11.67	358	14.92	350	M	M	M	NA	NA	995.0	NA	NA		M	NA	NA	NA	NA
2019/11/23 18:58:00	AWS2	11.51	358	14.92	350	M	M	M	NA	NA	995.6	NA	NA		M	NA	NA	NA	NA
2019/11/23 18:59:00	AWS2	11.74	1	14.61	2	M	M	M	NA	NA	994.7	NA	NA		M	NA	NA	NA	NA
2019/11/23 19:00:00	AWS2	11.96	1	14.51	4	M	M	M	NA	NA	995.1	NA	NA		M	NA	NA	NA	NA
2019/11/23 19:01:00	AWS2	11.73	359	14.51	4	M	M	M	NA	NA	994.7	NA	NA		M	NA	NA	NA	NA
2019/11/23 19:02:00	AWS2	11.70	358	14.35	9	M	M	M	NA	NA	994.9	NA	NA		M	NA	NA	NA	NA
2019/11/23 19:03:00	AWS2	12.09	2	14.35	9	M	M	M	NA	NA	994.9	NA	NA		M	NA	NA	NA	NA
2019/11/23 19:04:00	AWS2	11.97	5	14.35	9	M	M	M	NA	NA	994.5	NA	NA		M	NA	NA	NA	NA
2019/11/23 19:05:00	AWS2	11.74	1	14.35	9	M	M	M	NA	NA	995.0	NA	NA		M	NA	NA	NA	NA
2019/11/23 19:06:00	AWS2	11.94	1	14.35	9	M	M	M	NA	NA	994.5	NA	NA		M	NA	NA	NA	NA
2019/11/23 19:07:00	AWS2	11.81	359	14.35	9	M	M	M	NA	NA	994.7	NA	NA		M	NA	NA	NA	NA
2019/11/23 19:08:00	AWS2	11.15	356	14.35	9	M	M	M	NA	NA	995.8	NA	NA		M	NA	NA	NA	NA
2019/11/23 19:09:00	AWS2	10.57	360	14.35	9	M	M	M	NA	NA	995.9	NA	NA		M	NA	NA	NA	NA
2019/11/23 19:10:00	AWS2	11.04	2	13.74	7	M	M	M	NA	NA	995.2	NA	NA		M	NA	NA	NA	NA
2019/11/23 19:11:00	AWS2	11.35	358	13.74	7	M	M	M	NA	NA	994.9	NA	NA		M	NA	NA	NA	NA
2019/11/23 19:12:00	AWS2	11.39	355	13.74	7	M	M	M	NA	NA	995.5	NA	NA		M	NA	NA	NA	NA
2019/11/23 19:13:00	AWS2	11.29	355	13.68	352	M	M	M	NA	NA	994.8	NA	NA		M	NA	NA	NA	NA
2019/11/23 19:14:00	AWS2	11.07	354	13.68	352	M	M	M	NA	NA	995.3	NA	NA		M	NA	NA	NA	NA
2019/11/23 19:15:00	AWS2	11.27	356	13.68	352	M	M	M	NA	NA	994.9	NA	NA		M	NA	NA	NA	NA
2019/11/23 19:16:00	AWS2	11.14	356	13.38	9	M	M	M	NA	NA	994.8	NA	NA		M	NA	NA	NA	NA
2019/11/23 19:17:00	AWS2	10.87	350	13.38	9	M	M	M	NA	NA	995.1	NA	NA		M	NA	NA	NA	NA
2019/11/23 19:18:00	AWS2	10.95	354	13.38	9	M	M	M	NA	NA	995.5	NA	NA		M	NA	NA	NA	NA
2019/11/23 19:19:00	AWS2	10.90	359	13.38	9	M	M	M	NA	NA	995.3	NA	NA		M	NA	NA	NA	NA
2019/11/23 19:20:00	AWS2	11.24	357	13.07	9	M	M	M	NA	NA	995.7	NA	NA		M	NA	NA	NA	NA
2019/11/23 19:21:00	AWS2	11.68	356	13.17	349	M	M	M	NA	NA	995.9	NA	NA		M	NA	NA	NA	NA
2019/11/23 19:22:00	AWS2	11.56	355	13.17	349	M	M	M	NA	NA	995.4	NA	NA		M	NA	NA	NA	NA
2019/11/23 19:23:00	AWS2	11.14	358	13.17	349	M	M	M	NA	NA	995.7	NA	NA		M	NA	NA	NA	NA
2019/11/23 19:24:00	AWS2	10.93	356	13.17	349	M	M	M	NA	NA	995.4	NA	NA		M	NA	NA	NA	NA
2019/11/23 19:25:00	AWS2	11.62	354	13.17	1	M	M	M	NA	NA	995.9	NA	NA		M	NA	NA	NA	NA
2019/11/23 19:26:00	AWS2	12.18	355	13.94	1	M	M	M	NA	NA	995.6	NA	NA		M	NA	NA	NA	NA
2019/11/23 19:27:00	AWS2	11.76	355	13.94	1	M	M	M	NA	NA	995.2	NA	NA		M	NA	NA	NA	NA
2019/11/23 19:28:00	AWS2	11.05	1	13.94	1	M	M	M	NA	NA	995.9	NA	NA		M	NA	NA	NA	NA
2019/11/23 19:29:00	AWS2	10.82	3	13.94	1	M	M	M	NA	NA	995.9	NA	NA		M	NA	NA	NA	NA
2019/11/23 19:30:00	AWS2	10.81	2	13.94	1	M	M	M	NA	NA	996.0	NA	NA		M	NA	NA	NA	NA
2019/11/23 19:31:00	AWS2	11.10	359	13.94	1	M	M	M	NA	NA	995.2	NA	NA		M	NA	NA	NA	NA
2019/11/23 19:32:00	AWS2	11.41	359	13.94	1	M	M	M	NA	NA	996.0	NA	NA		M	NA	NA	NA	NA
2019/11/23 19:33:00	AWS2	11.82	1	13.94	1	M	M	M	NA	NA	995.5	NA	NA		M	NA	NA	NA	NA
2019/11/23 19:34:00	AWS2	11.56	358	13.94	1	M	M	M	NA	NA	995.5	NA	NA		M	NA	NA	NA	NA
2019/11/23 19:35:00	AWS2	11.28	358	13.94	1	M	M	M	NA	NA	995.7	NA	NA		M	NA	NA	NA	NA
2019/11/23 19:36:00	AWS2	11.57	358	14.82	354	M	M	M	NA	NA	996.1	NA	NA		M	NA	NA	NA	NA
2019/11/23 19:37:00	AWS2	11.81	1	15.28	1	M	M	M	NA	NA	996.0	NA	NA		M	NA	NA	NA	NA
2019/11/23 19:38:00	AWS2	12.01	2	15.28	1	M	M	M	NA	NA	995.7	NA	NA		M	NA	NA	NA	NA
2019/11/23 19:39:00	AWS2	11.92	354	15.28	1	M	M	M	NA	NA	996.6	NA	NA		M	NA	NA	NA	NA
2019/11/23 19:40:00	AWS2	10.93	353	15.28	1	M	M	M	NA	NA	996.1	NA	NA		M	NA	NA	NA	NA
2019/11/23 19:41:00	AWS2	9.93	357	15.28	1	M	M	M	NA	NA	996.5	NA	NA		M	NA	NA	NA	NA
2019/11/23 19:42:00	AWS2	10.21	356	15.28	1	M	M	M	NA	NA	996.1	NA	NA		M	NA	NA	NA	NA
2019/11/23 19:43:00	AWS2	11.10	360	15.28	1	M	M	M	NA	NA	996.1	NA	NA		M	NA	NA	NA	NA
2019/11/23 19:44:00	AWS2	11.64	4	15.28	1	M	M	M	NA	NA	995.7	NA	NA		M	NA	NA	NA	NA
2019/11/23 19:45:00	AWS2	11.62	1	15.28	1	M	M	M	NA	NA	996.1	NA	NA		M	NA	NA	NA	NA
2019/11/23 19:46:00	AWS2	11.36	357	15.28	1	M	M	M	NA	NA	996.5	NA	NA		M	NA	NA	NA	NA
2019/11/23 19:47:00	AWS2	11.07	358	14.15	9	M	M	M	NA	NA	996.0	NA	NA		M	NA	NA	NA	NA
2019/11/23 19:48:00	AWS2	10.89	359	14.15	9	M	M	M	NA	NA	996.8	NA	NA		M	NA	NA	NA	NA
2019/11/23 19:49:00	AWS2	11.15	354	14.15	9	M	M	M	NA	NA	996.5	NA	NA		M	NA	NA	NA	NA
2019/11/23 19:50:00	AWS2	10.77	353	14.15	9	M	M	M	NA	NA	997.0	NA	NA		M	NA	NA	NA	NA
2019/11/23 19:51:00	AWS2	10.35	358	14.15	9	M	M	M	NA	NA	996.2	NA	NA		M	NA	NA	NA	NA
2019/11/23 19:52:00	AWS2	10.63	357	14.15	9	M	M	M	NA	NA	996.9	NA	NA		M	NA	NA	NA	NA
2019/11/23 19:53:00	AWS2	10.93	359	12.91	7	M	M	M	NA	NA	996.7	NA	NA		M	NA	NA	NA	NA
2019/11/23 19:54:00	AWS2	10.65	356	12.91	7	M	M	M	NA	NA	996.7	NA	NA		M	NA	NA	NA	NA
2019/11/23 19:55:00	AWS2	9.96	354	12.91	7	M	M	M	NA	NA	996.9	NA	NA		M	NA	NA	NA	NA
2019/11/23 19:56:00	AWS2	10.59	358	12.91	7	M	M	M	NA	NA	996.7	NA	NA		M	NA	NA	NA	NA
2019/11/23 19:57:00	AWS2	11.34	358	13.17	349	M	M	M	NA	NA	996.1	NA	NA		M	NA	NA	NA	NA
2019/11/23 19:58:00	AWS2	11.18	359	13.17	349	M	M	M	NA	NA	996.7	NA	NA		M	NA	NA	NA	NA
2019/11/23 19:59:00	AWS2	10.61	359	13.17	349	M	M	M	NA	NA	996.8	NA	NA		M	NA	NA	NA	NA
2019/11/23 20:00:00	AWS2	10.23	357	13.17	349	M	M	M	NA	NA	996.6	NA	NA		M	NA	NA	NA	NA
2019/11/23 20:01:00	AWS2	9.99	360	13.17	349	M	M	M	NA	NA	996.7	NA	NA		M	NA	NA	NA	NA
2019/11/23 20:02:00	AWS2	9.98	4	13.17	349	M	M	M	NA	NA	996.7	NA	NA		M	NA	NA	NA	NA
2019/11/23 20:03:00	AWS2	10.73	5	13.17	349	M	M	M	NA	NA	996.5	NA	NA		M	NA	NA	NA	NA
2019/11/23 20:04:00	AWS2	11.08	359	13.17	349	M	M	M	NA	NA	996.6	NA	NA		M	NA	NA	NA	NA
2019/11/23 20:05:00	AWS2	10.33	1	13.17	349	M	M	M	NA	NA	996.9	NA	NA		M	NA	NA	NA	NA
2019/11/23 20:06:00	AWS2	9.98	2	13.17	349	M	M	M	NA	NA	997.2	NA	NA		M	NA	NA	NA	NA
2019/11/23 20:07:00	AWS2	10.70	1	12.60	354	M	M	M	NA	NA	996.7	NA	NA		M	NA	NA	NA	NA
2019/11/23 20:08:00	AWS2	10.69	2	12.60	354	M	M	M	NA	NA	996.7	NA	NA		M	NA	NA	NA	NA
2019/11/23 20:09:00	AWS2	10.34	359	12.60	354	M	M	M	NA	NA	997.4	NA	NA		M	NA	NA	NA	NA
2019/11/23 20:10:00	AWS2	10.63	359	12.60	354	M	M	M	NA	NA	996.7	NA	NA		M	NA	NA	NA	NA
2019/11/23 20:11:00	AWS2	10.64	1	12.60	354	M	M	M	NA	NA	996.8	NA	NA		M	NA	NA	NA	NA
2019/11/23 20:12:00	AWS2	10.10	3	12.60	354	M	M	M	NA	NA	997.0	NA	NA		M	NA	NA	NA	NA
2019/11/23 20:13:00	AWS2	9.99	359	12.14	9	M	M	M	NA	NA	996.7	NA	NA		M	NA	NA	NA	NA
2019/11/23 20:14:00	AWS2	10.01	356	12.04	354	M	M	M	NA	NA	997.4	NA	NA		M	NA	NA	NA	NA
2019/11/23 20:15:00	AWS2	10.08	359	12.04	1	M	M	M	NA	NA	997.1	NA	NA		M	NA	NA	NA	NA
2019/11/23 20:16:00	AWS2	10.83	2	12.40	4	M	M	M	NA	NA	996.8	NA	NA		M	NA	NA	NA	NA
2019/11/23 20:17:00	AWS2	10.89	1	12.40	4	M	M	M	NA	NA	997.3	NA	NA		M	NA	NA	NA	NA
2019/11/23 20:18:00	AWS2	10.35	1	12.40	4	M	M	M	NA	NA	997.4	NA	NA		M	NA	NA	NA	NA
2019/11/23 20:19:00	AWS2	9.94	1	12.40	4	M	M	M	NA	NA	997.1	NA	NA		M	NA	NA	NA	NA
2019/11/23 20:20:00	AWS2	9.81	358	12.40	4	M	M	M	NA	NA	996.9	NA	NA		M	NA	NA	NA	NA
2019/11/23 20:21:00	AWS2	10.01	1	12.40	4	M	M	M	NA	NA	997.5	NA	NA		M	NA	NA	NA	NA
2019/11/23 20:22:00	AWS2	10.44	3	12.40	4	M	M	M	NA	NA	997.2	NA	NA		M	NA	NA	NA	NA
2019/11/23 20:23:00	AWS2	11.21	5	13.22	10	M	M	M	NA	NA	996.3	NA	NA		M	NA	NA	NA	NA
2019/11/23 20:24:00	AWS2	11.46	5	13.22	10	M	M	M	NA	NA	997.2	NA	NA		M	NA	NA	NA	NA
2019/11/23 20:25:00	AWS2	11.76	3	13.68	5	M	M	M	NA	NA	997.2	NA	NA		M	NA	NA	NA	NA
2019/11/23 20:26:00	AWS2	11.80	3	13.68	5	M	M	M	NA	NA	997.4	NA	NA		M	NA	NA	NA	NA
2019/11/23 20:27:00	AWS2	11.11	4	13.68	5	M	M	M	NA	NA	997.5	NA	NA		M	NA	NA	NA	NA
2019/11/23 20:28:00	AWS2	10.93	4	13.68	5	M	M	M	NA	NA	997.4	NA	NA		M	NA	NA	NA	NA
2019/11/23 20:29:00	AWS2	10.93	3	13.68	5	M	M	M	NA	NA	996.4	NA	NA		M	NA	NA	NA	NA
2019/11/23 20:30:00	AWS2	10.96	2	13.68	5	M	M	M	NA	NA	996.9	NA	NA		M	NA	NA	NA	NA
2019/11/23 20:31:00	AWS2	11.19	2	13.68	5	M	M	M	NA	NA	997.7	NA	NA		M	NA	NA	NA	NA
2019/11/23 20:32:00	AWS2	11.09	2	13.68	5	M	M	M	NA	NA	997.4	NA	NA		M	NA	NA	NA	NA
2019/11/23 20:33:00	AWS2	11.13	3	13.68	5	M	M	M	NA	NA	997.4	NA	NA		M	NA	NA	NA	NA
2019/11/23 20:34:00	AWS2	11.39	2	13.68	5	M	M	M	NA	NA	997.2	NA	NA		M	NA	NA	NA	NA
2019/11/23 20:35:00	AWS2	11.02	2	12.55	2	M	M	M	NA	NA	997.8	NA	NA		M	NA	NA	NA	NA
2019/11/23 20:36:00	AWS2	10.59	4	12.55	2	M	M	M	NA	NA	997.4	NA	NA		M	NA	NA	NA	NA
2019/11/23 20:37:00	AWS2	10.70	4	12.55	2	M	M	M	NA	NA	997.6	NA	NA		M	NA	NA	NA	NA
2019/11/23 20:38:00	AWS2	10.59	4	12.55	2	M	M	M	NA	NA	998.1	NA	NA		M	NA	NA	NA	NA
2019/11/23 20:39:00	AWS2	10.13	4	12.55	2	M	M	M	NA	NA	997.8	NA	NA		M	NA	NA	NA	NA
2019/11/23 20:40:00	AWS2	10.38	4	12.35	354	M	M	M	NA	NA	998.0	NA	NA		M	NA	NA	NA	NA
2019/11/23 20:41:00	AWS2	10.61	3	12.35	354	M	M	M	NA	NA	997.3	NA	NA		M	NA	NA	NA	NA
2019/11/23 20:42:00	AWS2	10.88	5	12.71	7	M	M	M	NA	NA	997.4	NA	NA		M	NA	NA	NA	NA
2019/11/23 20:43:00	AWS2	11.36	4	12.71	7	M	M	M	NA	NA	997.0	NA	NA		M	NA	NA	NA	NA
2019/11/23 20:44:00	AWS2	11.31	3	12.71	7	M	M	M	NA	NA	997.5	NA	NA		M	NA	NA	NA	NA
2019/11/23 20:45:00	AWS2	11.09	4	12.71	7	M	M	M	NA	NA	997.7	NA	NA		M	NA	NA	NA	NA
2019/11/23 20:46:00	AWS2	10.53	6	12.71	7	M	M	M	NA	NA	997.3	NA	NA		M	NA	NA	NA	NA
2019/11/23 20:47:00	AWS2	10.35	9	12.71	7	M	M	M	NA	NA	997.5	NA	NA		M	NA	NA	NA	NA
2019/11/23 20:48:00	AWS2	10.56	10	12.71	7	M	M	M	NA	NA	997.8	NA	NA		M	NA	NA	NA	NA
2019/11/23 20:49:00	AWS2	10.45	9	12.71	7	M	M	M	NA	NA	998.0	NA	NA		M	NA	NA	NA	NA
2019/11/23 20:50:00	AWS2	9.97	9	12.71	7	M	M	M	NA	NA	997.5	NA	NA		M	NA	NA	NA	NA
2019/11/23 20:51:00	AWS2	9.56	11	12.71	7	M	M	M	NA	NA	998.0	NA	NA		M	NA	NA	NA	NA
2019/11/23 20:52:00	AWS2	9.72	12	12.30	2	M	M	M	NA	NA	997.5	NA	NA		M	NA	NA	NA	NA
2019/11/23 20:53:00	AWS2	10.13	10	11.99	10	M	M	M	NA	NA	997.7	NA	NA		M	NA	NA	NA	NA
2019/11/23 20:54:00	AWS2	9.86	8	11.68	5	M	M	M	NA	NA	998.1	NA	NA		M	NA	NA	NA	NA
2019/11/23 20:55:00	AWS2	9.72	7	11.47	13	M	M	M	NA	NA	998.1	NA	NA		M	NA	NA	NA	NA
2019/11/23 20:56:00	AWS2	10.19	8	11.47	13	M	M	M	NA	NA	997.6	NA	NA		M	NA	NA	NA	NA
2019/11/23 20:57:00	AWS2	10.34	9	11.47	13	M	M	M	NA	NA	998.0	NA	NA		M	NA	NA	NA	NA
2019/11/23 20:58:00	AWS2	10.21	8	11.47	13	M	M	M	NA	NA	997.7	NA	NA		M	NA	NA	NA	NA
2019/11/23 20:59:00	AWS2	9.63	7	11.47	13	M	M	M	NA	NA	998.6	NA	NA		M	NA	NA	NA	NA
2019/11/23 21:00:00	AWS2	9.52	7	11.47	13	M	M	M	NA	NA	997.9	NA	NA		M	NA	NA	NA	NA
2019/11/23 21:01:00	AWS2	9.39	8	11.47	13	M	M	M	NA	NA	998.1	NA	NA		M	NA	NA	NA	NA
2019/11/23 21:02:00	AWS2	9.55	7	11.47	13	M	M	M	NA	NA	998.0	NA	NA		M	NA	NA	NA	NA
2019/11/23 21:03:00	AWS2	10.26	8	11.47	13	M	M	M	NA	NA	998.1	NA	NA		M	NA	NA	NA	NA
2019/11/23 21:04:00	AWS2	10.54	9	11.47	13	M	M	M	NA	NA	998.2	NA	NA		M	NA	NA	NA	NA
2019/11/23 21:05:00	AWS2	10.28	10	11.42	9	M	M	M	NA	NA	997.9	NA	NA		M	NA	NA	NA	NA
2019/11/23 21:06:00	AWS2	9.99	9	11.42	9	M	M	M	NA	NA	997.9	NA	NA		M	NA	NA	NA	NA
2019/11/23 21:07:00	AWS2	10.11	8	11.42	9	M	M	M	NA	NA	998.0	NA	NA		M	NA	NA	NA	NA
2019/11/23 21:08:00	AWS2	10.56	9	11.99	6	M	M	M	NA	NA	998.4	NA	NA		M	NA	NA	NA	NA
2019/11/23 21:09:00	AWS2	10.67	10	11.99	6	M	M	M	NA	NA	998.0	NA	NA		M	NA	NA	NA	NA
2019/11/23 21:10:00	AWS2	10.29	8	11.99	6	M	M	M	NA	NA	998.4	NA	NA		M	NA	NA	NA	NA
2019/11/23 21:11:00	AWS2	10.19	8	11.99	6	M	M	M	NA	NA	997.3	NA	NA		M	NA	NA	NA	NA
2019/11/23 21:12:00	AWS2	10.41	10	11.99	6	M	M	M	NA	NA	997.6	NA	NA		M	NA	NA	NA	NA
2019/11/23 21:13:00	AWS2	10.87	11	11.99	6	M	M	M	NA	NA	998.1	NA	NA		M	NA	NA	NA	NA
2019/11/23 21:14:00	AWS2	10.86	10	11.99	6	M	M	M	NA	NA	997.4	NA	NA		M	NA	NA	NA	NA
2019/11/23 21:15:00	AWS2	10.73	9	11.99	6	M	M	M	NA	NA	998.7	NA	NA		M	NA	NA	NA	NA
2019/11/23 21:16:00	AWS2	11.07	8	11.99	6	M	M	M	NA	NA	997.5	NA	NA		M	NA	NA	NA	NA
2019/11/23 21:17:00	AWS2	10.71	8	11.99	6	M	M	M	NA	NA	998.5	NA	NA		M	NA	NA	NA	NA
2019/11/23 21:18:00	AWS2	10.20	9	11.78	6	M	M	M	NA	NA	998.3	NA	NA		M	NA	NA	NA	NA
2019/11/23 21:19:00	AWS2	10.31	10	11.78	6	M	M	M	NA	NA	998.1	NA	NA		M	NA	NA	NA	NA
2019/11/23 21:20:00	AWS2	10.71	9	11.78	6	M	M	M	NA	NA	998.0	NA	NA		M	NA	NA	NA	NA
2019/11/23 21:21:00	AWS2	10.77	9	11.78	6	M	M	M	NA	NA	998.4	NA	NA		M	NA	NA	NA	NA
2019/11/23 21:22:00	AWS2	10.63	12	12.04	1	M	M	M	NA	NA	998.0	NA	NA		M	NA	NA	NA	NA
2019/11/23 21:23:00	AWS2	10.79	10	12.04	1	M	M	M	NA	NA	998.6	NA	NA		M	NA	NA	NA	NA
2019/11/23 21:24:00	AWS2	10.87	6	12.04	1	M	M	M	NA	NA	998.4	NA	NA		M	NA	NA	NA	NA
2019/11/23 21:25:00	AWS2	10.72	6	12.04	1	M	M	M	NA	NA	998.5	NA	NA		M	NA	NA	NA	NA
2019/11/23 21:26:00	AWS2	10.70	8	12.04	1	M	M	M	NA	NA	998.4	NA	NA		M	NA	NA	NA	NA
2019/11/23 21:27:00	AWS2	10.87	8	12.04	1	M	M	M	NA	NA	998.1	NA	NA		M	NA	NA	NA	NA
2019/11/23 21:28:00	AWS2	10.66	6	12.04	1	M	M	M	NA	NA	998.0	NA	NA		M	NA	NA	NA	NA
2019/11/23 21:29:00	AWS2	10.06	6	12.04	1	M	M	M	NA	NA	999.2	NA	NA		M	NA	NA	NA	NA
2019/11/23 21:30:00	AWS2	9.67	11	12.04	1	M	M	M	NA	NA	998.6	NA	NA		M	NA	NA	NA	NA
2019/11/23 21:31:00	AWS2	9.80	11	12.04	1	M	M	M	NA	NA	998.3	NA	NA		M	NA	NA	NA	NA
2019/11/23 21:32:00	AWS2	9.72	8	11.57	7	M	M	M	NA	NA	998.8	NA	NA		M	NA	NA	NA	NA
2019/11/23 21:33:00	AWS2	9.49	8	11.57	7	M	M	M	NA	NA	998.6	NA	NA		M	NA	NA	NA	NA
2019/11/23 21:34:00	AWS2	9.58	11	11.57	7	M	M	M	NA	NA	998.8	NA	NA		M	NA	NA	NA	NA
2019/11/23 21:35:00	AWS2	9.45	10	11.57	7	M	M	M	NA	NA	998.3	NA	NA		M	NA	NA	NA	NA
2019/11/23 21:36:00	AWS2	8.98	9	11.57	7	M	M	M	NA	NA	998.9	NA	NA		M	NA	NA	NA	NA
2019/11/23 21:37:00	AWS2	9.20	8	11.21	11	M	M	M	NA	NA	998.2	NA	NA		M	NA	NA	NA	NA
2019/11/23 21:38:00	AWS2	9.38	6	11.21	11	M	M	M	NA	NA	998.2	NA	NA		M	NA	NA	NA	NA
2019/11/23 21:39:00	AWS2	9.09	7	10.96	8	M	M	M	NA	NA	998.5	NA	NA		M	NA	NA	NA	NA
2019/11/23 21:40:00	AWS2	9.40	8	10.96	8	M	M	M	NA	NA	999.1	NA	NA		M	NA	NA	NA	NA
2019/11/23 21:41:00	AWS2	9.72	7	10.96	8	M	M	M	NA	NA	998.7	NA	NA		M	NA	NA	NA	NA
2019/11/23 21:42:00	AWS2	9.54	7	10.96	8	M	M	M	NA	NA	998.7	NA	NA		M	NA	NA	NA	NA
2019/11/23 21:43:00	AWS2	9.37	8	10.96	8	M	M	M	NA	NA	998.3	NA	NA		M	NA	NA	NA	NA
2019/11/23 21:44:00	AWS2	9.07	9	10.55	6	M	M	M	NA	NA	998.7	NA	NA		M	NA	NA	NA	NA
2019/11/23 21:45:00	AWS2	8.93	9	10.55	6	M	M	M	NA	NA	998.7	NA	NA		M	NA	NA	NA	NA
2019/11/23 21:46:00	AWS2	9.29	9	10.55	6	M	M	M	NA	NA	998.9	NA	NA		M	NA	NA	NA	NA
2019/11/23 21:47:00	AWS2	9.12	8	10.55	6	M	M	M	NA	NA	998.6	NA	NA		M	NA	NA	NA	NA
2019/11/23 21:48:00	AWS2	8.50	8	10.55	6	M	M	M	NA	NA	999.7	NA	NA		M	NA	NA	NA	NA
2019/11/23 21:49:00	AWS2	8.00	8	10.55	6	M	M	M	NA	NA	999.7	NA	NA		M	NA	NA	NA	NA
2019/11/23 21:50:00	AWS2	7.97	10	10.24	14	M	M	M	NA	NA	999.1	NA	NA		M	NA	NA	NA	NA
2019/11/23 21:51:00	AWS2	8.20	9	10.19	2	M	M	M	NA	NA	998.9	NA	NA		M	NA	NA	NA	NA
2019/11/23 21:52:00	AWS2	8.32	7	10.08	5	M	M	M	NA	NA	1000.0	NA	NA		M	NA	NA	NA	NA
2019/11/23 21:53:00	AWS2	8.25	7	10.08	5	M	M	M	NA	NA	999.3	NA	NA		M	NA	NA	NA	NA
2019/11/23 21:54:00	AWS2	8.12	6	10.08	5	M	M	M	NA	NA	999.5	NA	NA		M	NA	NA	NA	NA
2019/11/23 21:55:00	AWS2	8.38	7	10.08	5	M	M	M	NA	NA	997.8	NA	NA		M	NA	NA	NA	NA
2019/11/23 21:56:00	AWS2	8.43	8	9.52	10	M	M	M	NA	NA	999.6	NA	NA		M	NA	NA	NA	NA
2019/11/23 21:57:00	AWS2	8.31	7	9.21	6	M	M	M	NA	NA	999.6	NA	NA		M	NA	NA	NA	NA
2019/11/23 21:58:00	AWS2	8.53	4	9.72	10	M	M	M	NA	NA	999.7	NA	NA		M	NA	NA	NA	NA
2019/11/23 21:59:00	AWS2	8.89	5	10.08	11	M	M	M	NA	NA	999.3	NA	NA		M	NA	NA	NA	NA
2019/11/23 22:00:00	AWS2	8.74	8	10.08	11	M	M	M	NA	NA	1000.0	NA	NA		M	NA	NA	NA	NA
2019/11/23 22:01:00	AWS2	8.28	7	10.08	11	M	M	M	NA	NA	999.3	NA	NA		M	NA	NA	NA	NA
2019/11/23 22:02:00	AWS2	8.42	6	10.19	1	M	M	M	NA	NA	999.1	NA	NA		M	NA	NA	NA	NA
2019/11/23 22:03:00	AWS2	8.69	6	10.19	1	M	M	M	NA	NA	998.9	NA	NA		M	NA	NA	NA	NA
2019/11/23 22:04:00	AWS2	8.68	8	10.19	1	M	M	M	NA	NA	999.6	NA	NA		M	NA	NA	NA	NA
2019/11/23 22:05:00	AWS2	9.01	8	10.34	175	M	M	M	NA	NA	999.4	NA	NA		M	NA	NA	NA	NA
2019/11/23 22:06:00	AWS2	9.66	8	11.11	3	M	M	M	NA	NA	999.4	NA	NA		M	NA	NA	NA	NA
2019/11/23 22:07:00	AWS2	9.83	6	11.11	3	M	M	M	NA	NA	999.0	NA	NA		M	NA	NA	NA	NA
2019/11/23 22:08:00	AWS2	9.52	6	11.11	3	M	M	M	NA	NA	999.4	NA	NA		M	NA	NA	NA	NA
2019/11/23 22:09:00	AWS2	9.59	7	11.11	3	M	M	M	NA	NA	1000.0	NA	NA		M	NA	NA	NA	NA
2019/11/23 22:10:00	AWS2	9.90	7	11.11	3	M	M	M	NA	NA	999.3	NA	NA		M	NA	NA	NA	NA
2019/11/23 22:11:00	AWS2	9.89	8	11.11	3	M	M	M	NA	NA	999.8	NA	NA		M	NA	NA	NA	NA
2019/11/23 22:12:00	AWS2	9.73	8	11.11	3	M	M	M	NA	NA	999.5	NA	NA		M	NA	NA	NA	NA
2019/11/23 22:13:00	AWS2	9.53	8	11.11	3	M	M	M	NA	NA	999.6	NA	NA		M	NA	NA	NA	NA
2019/11/23 22:14:00	AWS2	9.49	8	11.11	3	M	M	M	NA	NA	999.5	NA	NA		M	NA	NA	NA	NA
2019/11/23 22:15:00	AWS2	9.37	8	11.11	3	M	M	M	NA	NA	999.6	NA	NA		M	NA	NA	NA	NA
2019/11/23 22:16:00	AWS2	9.18	9	10.80	6	M	M	M	NA	NA	999.6	NA	NA		M	NA	NA	NA	NA
2019/11/23 22:17:00	AWS2	8.98	6	10.80	6	M	M	M	NA	NA	999.7	NA	NA		M	NA	NA	NA	NA
2019/11/23 22:18:00	AWS2	8.83	4	10.80	6	M	M	M	NA	NA	999.6	NA	NA		M	NA	NA	NA	NA
2019/11/23 22:19:00	AWS2	9.10	4	10.65	9	M	M	M	NA	NA	999.6	NA	NA		M	NA	NA	NA	NA
2019/11/23 22:20:00	AWS2	9.28	3	10.60	7	M	M	M	NA	NA	1000.0	NA	NA		M	NA	NA	NA	NA
2019/11/23 22:21:00	AWS2	9.12	3	10.60	7	M	M	M	NA	NA	999.9	NA	NA		M	NA	NA	NA	NA
2019/11/23 22:22:00	AWS2	8.97	6	10.49	5	M	M	M	NA	NA	999.5	NA	NA		M	NA	NA	NA	NA
2019/11/23 22:23:00	AWS2	9.35	7	10.80	11	M	M	M	NA	NA	999.6	NA	NA		M	NA	NA	NA	NA
2019/11/23 22:24:00	AWS2	9.36	7	10.80	11	M	M	M	NA	NA	999.8	NA	NA		M	NA	NA	NA	NA
2019/11/23 22:25:00	AWS2	9.49	6	10.80	11	M	M	M	NA	NA	999.3	NA	NA		M	NA	NA	NA	NA
2019/11/23 22:26:00	AWS2	9.41	5	10.80	11	M	M	M	NA	NA	1000.1	NA	NA		M	NA	NA	NA	NA
2019/11/23 22:27:00	AWS2	8.92	5	10.80	11	M	M	M	NA	NA	999.8	NA	NA		M	NA	NA	NA	NA
2019/11/23 22:28:00	AWS2	9.13	4	10.80	11	M	M	M	NA	NA	999.7	NA	NA		M	NA	NA	NA	NA
2019/11/23 22:29:00	AWS2	9.02	4	10.80	11	M	M	M	NA	NA	999.9	NA	NA		M	NA	NA	NA	NA
2019/11/23 22:30:00	AWS2	9.09	4	10.80	354	M	M	M	NA	NA	1000.3	NA	NA		M	NA	NA	NA	NA
2019/11/23 22:31:00	AWS2	9.22	3	10.80	354	M	M	M	NA	NA	1000.0	NA	NA		M	NA	NA	NA	NA
2019/11/23 22:32:00	AWS2	9.16	4	10.80	354	M	M	M	NA	NA	1000.0	NA	NA		M	NA	NA	NA	NA
2019/11/23 22:33:00	AWS2	8.75	1	10.80	354	M	M	M	NA	NA	1000.3	NA	NA		M	NA	NA	NA	NA
2019/11/23 22:34:00	AWS2	8.61	0	10.80	354	M	M	M	NA	NA	1000.4	NA	NA		M	NA	NA	NA	NA
2019/11/23 22:35:00	AWS2	8.93	5	10.80	354	M	M	M	NA	NA	1000.1	NA	NA		M	NA	NA	NA	NA
2019/11/23 22:36:00	AWS2	9.01	5	10.80	354	M	M	M	NA	NA	1000.1	NA	NA		M	NA	NA	NA	NA
2019/11/23 22:37:00	AWS2	9.08	6	10.80	354	M	M	M	NA	NA	1000.1	NA	NA		M	NA	NA	NA	NA
2019/11/23 22:38:00	AWS2	8.40	5	10.80	354	M	M	M	NA	NA	1000.4	NA	NA		M	NA	NA	NA	NA
2019/11/23 22:39:00	AWS2	7.99	6	10.80	354	M	M	M	NA	NA	1000.0	NA	NA		M	NA	NA	NA	NA
2019/11/23 22:40:00	AWS2	8.00	9	10.55	6	M	M	M	NA	NA	998.9	NA	NA		M	NA	NA	NA	NA
2019/11/23 22:41:00	AWS2	7.74	7	10.55	6	M	M	M	NA	NA	1000.1	NA	NA		M	NA	NA	NA	NA
2019/11/23 22:42:00	AWS2	7.87	4	10.55	6	M	M	M	NA	NA	1000.0	NA	NA		M	NA	NA	NA	NA
2019/11/23 22:43:00	AWS2	8.03	6	10.55	6	M	M	M	NA	NA	1000.3	NA	NA		M	NA	NA	NA	NA
2019/11/23 22:44:00	AWS2	7.86	10	10.55	6	M	M	M	NA	NA	1000.4	NA	NA		M	NA	NA	NA	NA
2019/11/23 22:45:00	AWS2	7.45	13	10.55	6	M	M	M	NA	NA	1000.7	NA	NA		M	NA	NA	NA	NA
2019/11/23 22:46:00	AWS2	7.15	14	10.03	23	M	M	M	NA	NA	1000.3	NA	NA		M	NA	NA	NA	NA
2019/11/23 22:47:00	AWS2	7.01	14	8.95	7	M	M	M	NA	NA	1000.5	NA	NA		M	NA	NA	NA	NA
2019/11/23 22:48:00	AWS2	6.89	15	8.95	7	M	M	M	NA	NA	1000.7	NA	NA		M	NA	NA	NA	NA
2019/11/23 22:49:00	AWS2	6.96	16	8.95	7	M	M	M	NA	NA	1000.9	NA	NA		M	NA	NA	NA	NA
2019/11/23 22:50:00	AWS2	7.29	15	8.95	7	M	M	M	NA	NA	1000.3	NA	NA		M	NA	NA	NA	NA
2019/11/23 22:51:00	AWS2	7.74	14	8.95	7	M	M	M	NA	NA	999.7	NA	NA		M	NA	NA	NA	NA
2019/11/23 22:52:00	AWS2	8.13	12	9.31	16	M	M	M	NA	NA	1000.3	NA	NA		M	NA	NA	NA	NA
2019/11/23 22:53:00	AWS2	8.75	8	9.98	8	M	M	M	NA	NA	999.9	NA	NA		M	NA	NA	NA	NA
2019/11/23 22:54:00	AWS2	9.19	3	9.98	8	M	M	M	NA	NA	999.8	NA	NA		M	NA	NA	NA	NA
2019/11/23 22:55:00	AWS2	9.25	345	10.08	294	M	M	M	NA	NA	999.4	NA	NA		M	NA	NA	NA	NA
2019/11/23 22:56:00	AWS2	9.33	340	10.08	294	M	M	M	NA	NA	999.7	NA	NA		M	NA	NA	NA	NA
2019/11/23 22:57:00	AWS2	9.39	359	10.24	7	M	M	M	NA	NA	999.9	NA	NA		M	NA	NA	NA	NA
2019/11/23 22:58:00	AWS2	9.09	6	10.24	7	M	M	M	NA	NA	1000.0	NA	NA		M	NA	NA	NA	NA
2019/11/23 22:59:00	AWS2	9.01	7	10.24	7	M	M	M	NA	NA	999.9	NA	NA		M	NA	NA	NA	NA
2019/11/23 23:00:00	AWS2	9.19	6	10.24	7	M	M	M	NA	NA	1000.0	NA	NA		M	NA	NA	NA	NA
2019/11/23 23:01:00	AWS2	8.77	8	10.24	7	M	M	M	NA	NA	999.8	NA	NA		M	NA	NA	NA	NA
2019/11/23 23:02:00	AWS2	8.48	10	10.24	7	M	M	M	NA	NA	999.9	NA	NA		M	NA	NA	NA	NA
2019/11/23 23:03:00	AWS2	8.45	10	10.24	7	M	M	M	NA	NA	999.5	NA	NA		M	NA	NA	NA	NA
2019/11/23 23:04:00	AWS2	8.28	10	10.24	7	M	M	M	NA	NA	999.8	NA	NA		M	NA	NA	NA	NA
2019/11/23 23:05:00	AWS2	8.29	11	10.24	7	M	M	M	NA	NA	1000.2	NA	NA		M	NA	NA	NA	NA
2019/11/23 23:06:00	AWS2	8.06	12	10.24	7	M	M	M	NA	NA	999.8	NA	NA		M	NA	NA	NA	NA
2019/11/23 23:07:00	AWS2	8.10	12	9.98	3	M	M	M	NA	NA	1000.1	NA	NA		M	NA	NA	NA	NA
2019/11/23 23:08:00	AWS2	8.76	9	10.24	7	M	M	M	NA	NA	1000.3	NA	NA		M	NA	NA	NA	NA
2019/11/23 23:09:00	AWS2	8.73	10	10.24	7	M	M	M	NA	NA	1000.1	NA	NA		M	NA	NA	NA	NA
2019/11/23 23:10:00	AWS2	8.61	10	10.24	7	M	M	M	NA	NA	999.7	NA	NA		M	NA	NA	NA	NA
2019/11/23 23:11:00	AWS2	8.41	9	10.24	7	M	M	M	NA	NA	1000.7	NA	NA		M	NA	NA	NA	NA
2019/11/23 23:12:00	AWS2	8.16	8	10.24	7	M	M	M	NA	NA	1000.7	NA	NA		M	NA	NA	NA	NA
2019/11/23 23:13:00	AWS2	8.35	5	10.24	7	M	M	M	NA	NA	1000.2	NA	NA		M	NA	NA	NA	NA
2019/11/23 23:14:00	AWS2	8.70	4	10.24	7	M	M	M	NA	NA	1000.3	NA	NA		M	NA	NA	NA	NA
2019/11/23 23:15:00	AWS2	9.01	4	10.24	7	M	M	M	NA	NA	1000.0	NA	NA		M	NA	NA	NA	NA
2019/11/23 23:16:00	AWS2	8.91	6	10.24	7	M	M	M	NA	NA	1000.3	NA	NA		M	NA	NA	NA	NA
2019/11/23 23:17:00	AWS2	8.95	6	10.24	7	M	M	M	NA	NA	999.4	NA	NA		M	NA	NA	NA	NA
2019/11/23 23:18:00	AWS2	9.34	3	10.34	354	M	M	M	NA	NA	999.9	NA	NA		M	NA	NA	NA	NA
2019/11/23 23:19:00	AWS2	9.52	3	10.70	1	M	M	M	NA	NA	1000.2	NA	NA		M	NA	NA	NA	NA
2019/11/23 23:20:00	AWS2	8.98	2	10.70	1	M	M	M	NA	NA	999.9	NA	NA		M	NA	NA	NA	NA
2019/11/23 23:21:00	AWS2	8.76	358	10.70	1	M	M	M	NA	NA	1000.4	NA	NA		M	NA	NA	NA	NA
2019/11/23 23:22:00	AWS2	9.25	357	10.70	1	M	M	M	NA	NA	1000.5	NA	NA		M	NA	NA	NA	NA
2019/11/23 23:23:00	AWS2	9.35	1	10.70	1	M	M	M	NA	NA	1000.0	NA	NA		M	NA	NA	NA	NA
2019/11/23 23:24:00	AWS2	8.67	360	10.70	1	M	M	M	NA	NA	999.8	NA	NA		M	NA	NA	NA	NA
2019/11/23 23:25:00	AWS2	8.81	358	10.70	1	M	M	M	NA	NA	1000.1	NA	NA		M	NA	NA	NA	NA
2019/11/23 23:26:00	AWS2	9.56	359	10.70	1	M	M	M	NA	NA	1000.5	NA	NA		M	NA	NA	NA	NA
2019/11/23 23:27:00	AWS2	9.88	356	10.96	4	M	M	M	NA	NA	1000.1	NA	NA		M	NA	NA	NA	NA
2019/11/23 23:28:00	AWS2	9.96	356	10.96	4	M	M	M	NA	NA	1000.2	NA	NA		M	NA	NA	NA	NA
2019/11/23 23:29:00	AWS2	9.68	353	10.96	4	M	M	M	NA	NA	999.7	NA	NA		M	NA	NA	NA	NA
2019/11/23 23:30:00	AWS2	9.68	352	11.57	2	M	M	M	NA	NA	999.7	NA	NA		M	NA	NA	NA	NA
2019/11/23 23:31:00	AWS2	10.06	356	11.57	2	M	M	M	NA	NA	1000.1	NA	NA		M	NA	NA	NA	NA
2019/11/23 23:32:00	AWS2	10.39	356	11.57	2	M	M	M	NA	NA	999.6	NA	NA		M	NA	NA	NA	NA
2019/11/23 23:33:00	AWS2	10.23	356	11.57	2	M	M	M	NA	NA	999.5	NA	NA		M	NA	NA	NA	NA
2019/11/23 23:34:00	AWS2	9.91	1	11.57	2	M	M	M	NA	NA	1000.3	NA	NA		M	NA	NA	NA	NA
2019/11/23 23:35:00	AWS2	9.60	5	11.57	2	M	M	M	NA	NA	999.8	NA	NA		M	NA	NA	NA	NA
2019/11/23 23:36:00	AWS2	8.88	4	11.57	2	M	M	M	NA	NA	1000.8	NA	NA		M	NA	NA	NA	NA
2019/11/23 23:37:00	AWS2	8.20	4	11.57	2	M	M	M	NA	NA	1000.4	NA	NA		M	NA	NA	NA	NA
2019/11/23 23:38:00	AWS2	7.83	5	11.57	2	M	M	M	NA	NA	999.5	NA	NA		M	NA	NA	NA	NA
2019/11/23 23:39:00	AWS2	7.60	6	11.57	2	M	M	M	NA	NA	999.8	NA	NA		M	NA	NA	NA	NA
2019/11/23 23:40:00	AWS2	7.36	8	10.91	354	M	M	M	NA	NA	1000.1	NA	NA		M	NA	NA	NA	NA
2019/11/23 23:41:00	AWS2	6.97	12	10.91	354	M	M	M	NA	NA	1000.3	NA	NA		M	NA	NA	NA	NA
2019/11/23 23:42:00	AWS2	6.39	12	10.65	1	M	M	M	NA	NA	1000.0	NA	NA		M	NA	NA	NA	NA
2019/11/23 23:43:00	AWS2	5.81	13	10.65	1	M	M	M	NA	NA	1000.5	NA	NA		M	NA	NA	NA	NA
2019/11/23 23:44:00	AWS2	5.40	16	9.67	3	M	M	M	NA	NA	1000.3	NA	NA		M	NA	NA	NA	NA
2019/11/23 23:45:00	AWS2	5.17	18	8.95	6	M	M	M	NA	NA	1000.5	NA	NA		M	NA	NA	NA	NA
2019/11/23 23:46:00	AWS2	4.91	19	8.28	4	M	M	M	NA	NA	1000.3	NA	NA		M	NA	NA	NA	NA
2019/11/23 23:47:00	AWS2	4.54	20	8.08	3	M	M	M	NA	NA	1000.6	NA	NA		M	NA	NA	NA	NA
2019/11/23 23:48:00	AWS2	4.40	19	7.77	2	M	M	M	NA	NA	999.6	NA	NA		M	NA	NA	NA	NA
2019/11/23 23:49:00	AWS2	4.56	16	7.72	7	M	M	M	NA	NA	1000.8	NA	NA		M	NA	NA	NA	NA
2019/11/23 23:50:00	AWS2	4.53	13	7.15	11	M	M	M	NA	NA	999.8	NA	NA		M	NA	NA	NA	NA
2019/11/23 23:51:00	AWS2	4.60	10	6.38	10	M	M	M	NA	NA	1000.9	NA	NA		M	NA	NA	NA	NA
2019/11/23 23:52:00	AWS2	4.70	5	5.97	13	M	M	M	NA	NA	1000.1	NA	NA		M	NA	NA	NA	NA
2019/11/23 23:53:00	AWS2	5.04	360	5.86	4	M	M	M	NA	NA	1001.1	NA	NA		M	NA	NA	NA	NA
2019/11/23 23:54:00	AWS2	5.57	359	6.38	4	M	M	M	NA	NA	1000.9	NA	NA		M	NA	NA	NA	NA
2019/11/23 23:55:00	AWS2	5.85	359	7.10	1	M	M	M	NA	NA	1000.0	NA	NA		M	NA	NA	NA	NA
2019/11/23 23:56:00	AWS2	5.81	350	7.10	1	M	M	M	NA	NA	1000.3	NA	NA		M	NA	NA	NA	NA
2019/11/23 23:57:00	AWS2	5.71	347	7.10	1	M	M	M	NA	NA	1000.1	NA	NA		M	NA	NA	NA	NA
2019/11/23 23:58:00	AWS2	5.72	353	7.10	1	M	M	M	NA	NA	1000.6	NA	NA		M	NA	NA	NA	NA
2019/11/23 23:59:00	AWS2	5.61	351	7.10	1	M	M	M	NA	NA	1000.5	NA	NA		M	NA	NA	NA	NA